[[{"header":{"parameterUnit":"m.s-1","parameterCategory":1,"la1":30.6,"la2":29.2853,"lo1":-89.7004,"lo2":-87.6739,"dy":0.0162,"dx":0.0183,"nx":112,"ny":82,"refTime":"2024-05-07T12:00:00:Z","depth":0,"parameterNumber":2,"parameterNumberName":"U-component_of_WINDS"},"data":[0.0,0.0,0.0,0.0,0.0,0.0,0.0,0.0,0.0,0.0,0.0,0.0,0.0,0.0,0.0,0.0,0.0,0.0,0.0,0.0,0.0,0.0,0.0,0.0,0.0,0.0,0.0,0.0,0.0,0.0,0.0,0.0,0.0,0.0,0.0,0.0,0.0,0.0,0.0,0.0,0.0,0.0,0.0,0.0,0.0,0.0,0.0,0.0,0.0,0.0,0.0,0.0,0.0,0.0,0.0,0.0,0.0,0.0,0.0,0.0,0.0,0.0,0.0,0.0,0.0,0.0,0.0,0.0,0.0,0.0,0.0,0.0,0.0,0.0,0.0,0.0,0.0,0.0,0.0,0.0,0.0,0.0,0.0,0.0,0.0,0.0,0.0,0.0,0.0,0.0,-6.7996,-6.8277,-6.9865,-7.0492,-6.9497,-6.9402,-6.8221,-6.5471,0.0,0.0,0.0,0.0,0.0,0.0,0.0,0.0,0.0,0.0,0.0,0.0,0.0,0.0,0.0,0.0,0.0,0.0,0.0,0.0,0.0,0.0,0.0,0.0,0.0,0.0,0.0,0.0,0.0,0.0,0.0,0.0,0.0,0.0,0.0,0.0,0.0,0.0,0.0,0.0,0.0,0.0,0.0,0.0,0.0,0.0,0.0,0.0,0.0,0.0,0.0,0.0,0.0,0.0,0.0,0.0,0.0,0.0,0.0,0.0,0.0,0.0,0.0,0.0,0.0,0.0,0.0,0.0,0.0,0.0,0.0,0.0,0.0,0.0,0.0,0.0,0.0,0.0,0.0,0.0,0.0,0.0,0.0,0.0,0.0,0.0,0.0,0.0,0.0,0.0,0.0,0.0,0.0,0.0,0.0,0.0,0.0,0.0,0.0,0.0,0.0,0.0,0.0,0.0,-6.7559,-6.9032,-7.0755,-7.1156,-6.9548,-6.9405,-6.7968,-6.4601,0.0,0.0,0.0,0.0,0.0,0.0,0.0,0.0,0.0,0.0,0.0,0.0,0.0,0.0,0.0,0.0,0.0,0.0,0.0,0.0,0.0,0.0,0.0,0.0,0.0,0.0,0.0,0.0,0.0,0.0,0.0,0.0,0.0,0.0,0.0,0.0,0.0,0.0,0.0,0.0,0.0,0.0,0.0,0.0,0.0,0.0,0.0,0.0,0.0,0.0,0.0,0.0,0.0,0.0,0.0,0.0,0.0,0.0,0.0,0.0,0.0,0.0,0.0,0.0,0.0,0.0,0.0,0.0,0.0,0.0,0.0,0.0,0.0,0.0,0.0,0.0,0.0,0.0,0.0,0.0,0.0,0.0,0.0,0.0,0.0,0.0,0.0,0.0,0.0,0.0,0.0,0.0,0.0,0.0,0.0,0.0,0.0,0.0,0.0,0.0,0.0,0.0,0.0,-6.7056,-6.8472,-6.9318,-7.0969,-7.1485,-7.0208,-6.9674,-6.8318,-6.5778,-6.4692,0.0,0.0,0.0,0.0,0.0,0.0,0.0,0.0,0.0,0.0,0.0,0.0,0.0,0.0,0.0,0.0,0.0,0.0,0.0,0.0,0.0,0.0,0.0,0.0,0.0,0.0,0.0,0.0,0.0,0.0,0.0,0.0,0.0,0.0,0.0,0.0,0.0,0.0,0.0,0.0,0.0,0.0,0.0,0.0,0.0,0.0,0.0,0.0,0.0,0.0,0.0,0.0,0.0,0.0,0.0,0.0,0.0,0.0,0.0,0.0,0.0,0.0,0.0,0.0,0.0,0.0,0.0,0.0,0.0,0.0,0.0,0.0,0.0,0.0,0.0,0.0,0.0,0.0,0.0,0.0,0.0,0.0,0.0,0.0,0.0,0.0,0.0,0.0,0.0,0.0,0.0,0.0,0.0,0.0,0.0,0.0,0.0,0.0,0.0,0.0,0.0,0.0,-6.8058,-6.9092,-6.9371,-7.0788,-7.1421,-7.075,-6.9903,-6.8589,-6.664,-6.5077,0.0,0.0,0.0,0.0,0.0,0.0,0.0,0.0,0.0,0.0,0.0,0.0,0.0,0.0,0.0,0.0,0.0,0.0,0.0,0.0,0.0,0.0,0.0,0.0,0.0,0.0,0.0,0.0,0.0,0.0,0.0,0.0,0.0,0.0,0.0,0.0,0.0,0.0,0.0,0.0,0.0,0.0,0.0,0.0,0.0,0.0,0.0,0.0,0.0,0.0,0.0,0.0,0.0,0.0,0.0,0.0,0.0,0.0,0.0,0.0,0.0,0.0,0.0,0.0,0.0,0.0,0.0,0.0,0.0,0.0,0.0,0.0,0.0,0.0,0.0,0.0,0.0,0.0,0.0,0.0,0.0,0.0,0.0,0.0,0.0,0.0,0.0,0.0,0.0,0.0,0.0,0.0,0.0,0.0,0.0,0.0,0.0,0.0,0.0,0.0,0.0,0.0,-6.7547,-6.8437,-6.9308,-7.0236,-7.0762,-7.0718,-6.99,-6.8333,-6.584,-6.4815,0.0,0.0,0.0,0.0,0.0,0.0,0.0,0.0,0.0,0.0,0.0,0.0,0.0,0.0,0.0,0.0,0.0,0.0,0.0,0.0,0.0,0.0,0.0,0.0,0.0,0.0,0.0,0.0,0.0,0.0,0.0,0.0,0.0,0.0,0.0,0.0,0.0,0.0,0.0,0.0,0.0,0.0,0.0,0.0,0.0,0.0,0.0,0.0,0.0,0.0,0.0,0.0,0.0,0.0,0.0,0.0,0.0,0.0,0.0,0.0,0.0,0.0,0.0,0.0,0.0,0.0,0.0,0.0,0.0,0.0,0.0,0.0,0.0,0.0,0.0,0.0,0.0,0.0,0.0,0.0,0.0,0.0,0.0,0.0,0.0,0.0,0.0,0.0,0.0,0.0,0.0,0.0,0.0,0.0,0.0,0.0,0.0,0.0,0.0,0.0,0.0,0.0,-6.7491,-6.8347,-6.924,-7.0144,-7.0893,-7.1406,-7.069,-6.9106,-6.6518,0.0,0.0,0.0,0.0,0.0,0.0,0.0,0.0,0.0,0.0,0.0,0.0,0.0,0.0,0.0,0.0,0.0,0.0,0.0,0.0,0.0,0.0,0.0,0.0,0.0,0.0,0.0,0.0,0.0,0.0,0.0,0.0,0.0,0.0,0.0,0.0,0.0,0.0,0.0,0.0,0.0,0.0,0.0,0.0,0.0,0.0,0.0,0.0,0.0,0.0,0.0,0.0,0.0,0.0,0.0,0.0,0.0,0.0,0.0,0.0,0.0,0.0,0.0,0.0,0.0,0.0,0.0,0.0,0.0,0.0,0.0,0.0,0.0,0.0,0.0,0.0,0.0,0.0,0.0,0.0,0.0,0.0,0.0,0.0,0.0,0.0,0.0,0.0,0.0,0.0,0.0,0.0,0.0,0.0,0.0,0.0,0.0,0.0,0.0,0.0,0.0,0.0,-6.6474,-6.7453,-6.8451,-6.9592,-7.0282,-7.0992,-7.1826,-7.0916,-6.9294,-6.696,0.0,0.0,0.0,0.0,0.0,0.0,0.0,0.0,0.0,0.0,0.0,0.0,0.0,0.0,0.0,0.0,0.0,0.0,0.0,0.0,0.0,0.0,0.0,0.0,0.0,0.0,0.0,0.0,0.0,0.0,0.0,0.0,0.0,0.0,0.0,0.0,0.0,0.0,0.0,0.0,0.0,0.0,0.0,0.0,0.0,0.0,0.0,0.0,0.0,0.0,0.0,0.0,0.0,0.0,0.0,0.0,0.0,0.0,0.0,0.0,0.0,0.0,0.0,0.0,0.0,0.0,0.0,0.0,0.0,0.0,0.0,0.0,0.0,0.0,0.0,0.0,0.0,0.0,0.0,0.0,0.0,0.0,0.0,0.0,0.0,0.0,0.0,0.0,0.0,0.0,0.0,0.0,0.0,0.0,0.0,0.0,0.0,0.0,0.0,0.0,0.0,0.0,-6.6477,-6.7448,-6.8642,-7.0387,-7.0585,-7.0925,-7.1806,-7.035,-6.867,0.0,0.0,0.0,0.0,0.0,0.0,0.0,0.0,0.0,0.0,0.0,0.0,0.0,0.0,0.0,0.0,0.0,0.0,0.0,0.0,0.0,0.0,0.0,0.0,0.0,0.0,0.0,0.0,0.0,0.0,0.0,0.0,0.0,0.0,0.0,0.0,0.0,0.0,0.0,0.0,0.0,0.0,0.0,0.0,0.0,0.0,0.0,0.0,0.0,0.0,0.0,0.0,0.0,0.0,0.0,0.0,0.0,0.0,0.0,0.0,0.0,0.0,0.0,0.0,0.0,0.0,0.0,0.0,0.0,0.0,0.0,0.0,0.0,0.0,0.0,0.0,0.0,0.0,0.0,0.0,0.0,0.0,0.0,0.0,0.0,0.0,0.0,0.0,0.0,0.0,0.0,0.0,0.0,0.0,0.0,0.0,0.0,0.0,0.0,0.0,0.0,0.0,0.0,-6.5655,-6.6542,-6.7521,-6.865,-6.9326,-6.9783,-7.0033,-7.0219,-6.9318,-6.6959,0.0,0.0,0.0,0.0,0.0,0.0,0.0,0.0,0.0,0.0,0.0,0.0,0.0,0.0,0.0,0.0,0.0,0.0,0.0,0.0,0.0,0.0,0.0,0.0,0.0,0.0,0.0,0.0,0.0,0.0,0.0,0.0,0.0,0.0,0.0,0.0,0.0,0.0,0.0,0.0,0.0,0.0,0.0,0.0,0.0,0.0,0.0,0.0,0.0,0.0,0.0,0.0,0.0,0.0,0.0,0.0,0.0,0.0,0.0,0.0,0.0,0.0,0.0,0.0,0.0,0.0,0.0,0.0,0.0,0.0,0.0,0.0,0.0,0.0,0.0,0.0,0.0,0.0,0.0,0.0,0.0,0.0,0.0,0.0,0.0,0.0,0.0,0.0,0.0,0.0,0.0,0.0,0.0,0.0,0.0,0.0,0.0,0.0,0.0,0.0,0.0,0.0,-6.5328,-6.6463,-6.7514,-6.8413,-6.8963,-6.927,-6.9299,-6.9523,-6.8836,-6.691,0.0,0.0,0.0,0.0,0.0,0.0,0.0,0.0,0.0,0.0,0.0,0.0,0.0,0.0,0.0,0.0,0.0,0.0,0.0,0.0,0.0,0.0,0.0,0.0,0.0,0.0,0.0,0.0,0.0,0.0,0.0,0.0,0.0,0.0,0.0,0.0,0.0,0.0,0.0,0.0,0.0,0.0,0.0,0.0,0.0,0.0,0.0,0.0,0.0,0.0,0.0,0.0,0.0,0.0,0.0,0.0,0.0,0.0,0.0,0.0,0.0,0.0,0.0,0.0,0.0,0.0,0.0,0.0,0.0,0.0,0.0,0.0,0.0,0.0,0.0,0.0,0.0,0.0,0.0,0.0,0.0,0.0,0.0,0.0,0.0,0.0,0.0,0.0,0.0,0.0,0.0,0.0,0.0,0.0,0.0,0.0,0.0,0.0,0.0,0.0,0.0,0.0,-6.5273,-6.6783,-6.8111,-6.8972,-6.9073,-6.9089,-6.9057,-6.8479,-6.7735,-6.6851,0.0,0.0,0.0,0.0,0.0,0.0,0.0,0.0,0.0,0.0,0.0,0.0,0.0,0.0,0.0,0.0,0.0,0.0,0.0,0.0,0.0,0.0,0.0,0.0,0.0,0.0,0.0,0.0,0.0,0.0,0.0,0.0,0.0,0.0,0.0,0.0,0.0,0.0,0.0,0.0,0.0,0.0,0.0,0.0,0.0,0.0,0.0,0.0,0.0,0.0,0.0,0.0,0.0,0.0,0.0,0.0,0.0,0.0,0.0,0.0,-6.1187,0.0,0.0,0.0,0.0,0.0,0.0,0.0,0.0,0.0,0.0,0.0,0.0,0.0,0.0,0.0,0.0,0.0,0.0,0.0,0.0,0.0,0.0,0.0,0.0,0.0,0.0,0.0,0.0,0.0,0.0,0.0,0.0,0.0,0.0,0.0,0.0,0.0,0.0,0.0,0.0,0.0,-6.4451,-6.5933,-6.7036,-6.7224,-6.7852,-6.7969,-6.73,-6.7766,-6.7728,-6.6856,-6.5184,0.0,0.0,0.0,0.0,0.0,0.0,0.0,0.0,0.0,0.0,0.0,0.0,0.0,0.0,0.0,0.0,0.0,0.0,0.0,0.0,0.0,0.0,0.0,0.0,0.0,0.0,0.0,0.0,0.0,0.0,0.0,0.0,0.0,0.0,0.0,0.0,0.0,0.0,0.0,0.0,0.0,0.0,0.0,0.0,0.0,0.0,0.0,0.0,0.0,0.0,0.0,0.0,0.0,0.0,0.0,0.0,0.0,0.0,0.0,0.0,-6.1155,0.0,0.0,0.0,0.0,0.0,0.0,0.0,0.0,0.0,0.0,0.0,0.0,0.0,0.0,0.0,0.0,0.0,0.0,0.0,0.0,0.0,0.0,0.0,0.0,0.0,0.0,0.0,0.0,0.0,0.0,0.0,0.0,0.0,0.0,0.0,0.0,0.0,0.0,0.0,0.0,-6.477,-6.5884,-6.6666,-6.6707,-6.7112,-6.7195,-6.6746,-6.7169,-6.727,-6.6831,-6.5562,0.0,0.0,0.0,0.0,0.0,0.0,0.0,0.0,0.0,0.0,0.0,0.0,0.0,0.0,0.0,0.0,0.0,0.0,0.0,0.0,0.0,0.0,0.0,0.0,0.0,0.0,0.0,0.0,0.0,0.0,0.0,0.0,0.0,0.0,0.0,0.0,0.0,0.0,0.0,0.0,0.0,0.0,0.0,0.0,0.0,0.0,0.0,0.0,0.0,0.0,0.0,0.0,0.0,-6.607,-6.5671,-6.4874,-6.4122,-6.4267,-6.5005,-6.3599,-6.2641,-6.2004,-6.1577,0.0,0.0,0.0,0.0,0.0,0.0,0.0,0.0,0.0,0.0,0.0,0.0,0.0,0.0,0.0,0.0,0.0,0.0,0.0,0.0,0.0,0.0,0.0,0.0,-5.931,-5.9355,0.0,0.0,0.0,0.0,0.0,0.0,0.0,0.0,0.0,0.0,0.0,0.0,-6.5418,-6.6142,-6.6633,-6.6692,-6.6696,-6.6696,-6.6702,-6.6744,-6.6787,-6.6782,-6.5985,-6.5432,0.0,0.0,0.0,0.0,0.0,0.0,0.0,0.0,0.0,0.0,0.0,0.0,0.0,0.0,0.0,0.0,0.0,0.0,0.0,0.0,0.0,0.0,0.0,0.0,0.0,0.0,0.0,0.0,0.0,0.0,0.0,0.0,-6.303,-6.2633,0.0,0.0,0.0,0.0,0.0,0.0,0.0,0.0,0.0,0.0,0.0,0.0,0.0,-6.6691,-6.7381,-6.7688,-6.7472,-6.6753,-6.6822,-6.6442,-6.5621,-6.4886,-6.5022,-6.5804,-6.4953,0.0,-6.4452,-6.2288,0.0,0.0,0.0,0.0,0.0,0.0,0.0,0.0,0.0,0.0,0.0,0.0,0.0,0.0,0.0,0.0,0.0,0.0,0.0,0.0,0.0,0.0,-5.929,-5.9974,-6.0145,-6.0348,0.0,-6.0217,-5.9459,-6.0099,-6.1038,0.0,0.0,0.0,0.0,0.0,0.0,0.0,-6.5475,-6.6185,-6.6698,-6.6702,-6.6702,-6.6707,-6.6692,-6.6702,-6.6716,-6.672,-6.5956,-6.5164,-6.4404,-6.3409,0.0,0.0,0.0,0.0,0.0,0.0,0.0,0.0,0.0,0.0,0.0,0.0,0.0,0.0,0.0,0.0,0.0,0.0,0.0,0.0,0.0,0.0,0.0,0.0,0.0,0.0,0.0,0.0,0.0,-6.191,-6.2992,-6.395,-6.475,-6.5002,0.0,0.0,0.0,0.0,0.0,0.0,0.0,0.0,0.0,-6.7566,-6.7359,-6.7455,-6.7897,-6.8453,-6.8323,-6.751,-6.8081,-6.7686,-6.6467,-6.6186,-6.603,-6.5986,-6.5658,-6.5571,-6.5558,-6.4041,-6.3173,-6.2643,0.0,0.0,0.0,0.0,-5.8938,-5.963,-5.9308,-5.9746,0.0,-5.9482,0.0,0.0,0.0,0.0,0.0,0.0,0.0,0.0,0.0,0.0,0.0,-6.0943,-6.1036,-6.1138,-6.1521,-6.1015,-6.0617,0.0,-6.2164,-6.3077,-6.2951,0.0,0.0,0.0,0.0,-6.564,-6.6164,-6.6545,-6.6735,-6.6692,-6.6707,-6.6712,-6.6712,-6.6697,-6.6716,-6.6748,-6.5968,-6.5328,-6.495,-6.3592,-6.2264,0.0,0.0,0.0,0.0,0.0,0.0,0.0,0.0,0.0,0.0,0.0,0.0,0.0,0.0,0.0,0.0,0.0,0.0,0.0,0.0,0.0,0.0,0.0,0.0,0.0,0.0,0.0,0.0,-6.2105,-6.3382,-6.554,-6.6213,-6.6407,0.0,0.0,0.0,0.0,0.0,0.0,-6.7638,-6.7522,-6.7688,-6.8266,-6.8162,-6.8226,-6.8515,-6.9209,-6.9145,-6.8319,-6.9023,-6.8522,-6.6981,-6.7044,-6.6667,-6.5984,-6.5986,-6.6024,-6.6022,-6.5286,-6.4663,-6.4047,-6.2604,-6.2076,-6.1906,-6.0172,-6.01,-6.0781,-6.0403,-6.0817,-6.1367,-6.0551,0.0,-5.9732,-5.8483,0.0,0.0,0.0,0.0,-6.0291,-6.0306,-6.0949,-6.1597,-6.1607,-6.1763,-6.1938,-6.1938,-6.227,-6.2459,0.0,-6.298,-6.3795,-6.3593,0.0,0.0,0.0,0.0,-6.6057,-6.6707,-6.6787,-6.6767,-6.6702,-6.6698,-6.6702,-6.6702,-6.6673,-6.6595,-6.6438,-6.5816,-6.527,-6.482,-6.3521,-6.2394,-6.1518,0.0,0.0,0.0,0.0,0.0,0.0,0.0,0.0,0.0,0.0,0.0,0.0,0.0,0.0,0.0,0.0,0.0,0.0,0.0,0.0,0.0,0.0,0.0,0.0,0.0,0.0,0.0,0.0,0.0,-6.6871,-6.7192,0.0,0.0,0.0,0.0,-6.6631,-6.6811,-6.7348,-6.8394,-6.7844,-6.8237,-6.9813,-6.9217,-6.9266,-7.0171,-7.0228,-6.9878,-6.9139,-6.9253,-6.8468,-6.6907,-6.6962,-6.6602,-6.591,-6.5984,-6.6005,-6.5947,-6.5206,-6.4919,-6.4869,-6.4084,-6.3775,-6.3569,-6.1894,-6.1823,-6.2355,-6.0752,-6.0764,-6.1367,-6.0491,-5.9696,-5.9056,-5.8978,-5.8939,0.0,0.0,-5.9638,-6.0289,-6.0311,-6.0943,-6.1595,-6.1592,-6.2231,-6.2835,-6.2835,-6.4082,-6.473,0.0,-6.291,-6.3479,-6.5093,0.0,-6.5726,-6.6608,-6.6689,-6.6681,-6.6783,-6.6748,-6.6702,-6.6698,-6.671,-6.6694,-6.6694,-6.6645,-6.6244,-6.5426,-6.5329,-6.4603,-6.2994,-6.2852,-6.2379,-6.1523,-6.0594,0.0,0.0,0.0,0.0,0.0,0.0,0.0,0.0,0.0,0.0,0.0,0.0,0.0,0.0,0.0,0.0,0.0,0.0,0.0,0.0,0.0,0.0,0.0,0.0,0.0,0.0,0.0,0.0,-6.7089,-6.7672,0.0,-6.9301,-6.8986,-6.9087,-6.9985,-6.9578,-6.9534,-7.0076,-6.936,-6.9247,-6.9984,-6.9735,-6.9825,-7.0305,-7.0305,-7.0203,-6.9979,-7.0012,-6.9161,-6.761,-6.7717,-6.7058,-6.5833,-6.591,-6.5958,-6.5994,-6.5719,-6.57,-6.577,-6.4981,-6.4693,-6.4532,-6.2857,-6.2424,-6.2528,-6.1363,-6.1181,-6.1395,-6.1128,-6.0486,-5.9932,-6.0456,-6.0252,-5.9947,-6.0453,-6.0833,-6.1072,-6.114,-6.1359,-6.1592,-6.1549,-6.1778,-6.2006,-6.2004,-6.2472,-6.3056,-6.3573,-6.4578,-6.5363,-6.5441,-6.5908,-6.6381,-6.6681,-6.6716,-6.672,-6.6779,-6.6744,-6.6702,-6.6692,-6.6705,-6.6682,-6.6645,-6.6101,-6.5628,-6.5323,-6.4286,-6.3391,-6.2754,-6.2205,-6.1486,-6.0612,-5.9691,-5.881,0.0,0.0,0.0,0.0,0.0,0.0,0.0,0.0,0.0,0.0,0.0,0.0,0.0,0.0,0.0,0.0,0.0,0.0,0.0,0.0,0.0,0.0,0.0,0.0,0.0,-6.5226,-6.6654,-6.7967,-6.8265,-6.8846,-7.0116,-6.9901,-7.0157,-7.1272,-7.0893,-7.068,-7.0863,-7.0396,-7.006,-6.991,-6.991,-7.0021,-7.0253,-7.0219,-7.0268,-7.04,-7.04,-6.9553,-6.7986,-6.8133,-6.7304,-6.5793,-6.5872,-6.5933,-6.6001,-6.6001,-6.6102,-6.6225,-6.5692,-6.5552,-6.54,-6.3713,-6.3114,-6.298,-6.1791,-6.1396,-6.1402,-6.1472,-6.1148,-6.0789,-6.1337,-6.1148,-6.0857,-6.1388,-6.1524,-6.1549,-6.1583,-6.1607,-6.1583,-6.1549,-6.1734,-6.1937,-6.1935,-6.2171,-6.2729,-6.3877,-6.4794,-6.5469,-6.5781,-6.6064,-6.6366,-6.6654,-6.6693,-6.6717,-6.6759,-6.6712,-6.6668,-6.6696,-6.6682,-6.6652,-6.6607,-6.5757,-6.5114,-6.481,-6.3487,-6.2541,-6.2184,-6.1335,-6.0614,-6.0007,-5.8847,-5.7672,-5.647,0.0,0.0,0.0,0.0,0.0,0.0,0.0,0.0,0.0,0.0,0.0,0.0,0.0,0.0,0.0,0.0,0.0,0.0,0.0,0.0,0.0,0.0,0.0,-6.5675,-6.655,-6.7771,-6.9509,-6.9007,-6.8974,-7.0069,-6.9458,-6.9397,-7.0338,-7.058,-7.0672,-7.0654,-7.0882,-7.0587,-6.9718,-6.9699,-6.9854,-7.0186,-7.0077,-7.0147,-7.0402,-7.0383,-6.9553,-6.8005,-6.8133,-6.7304,-6.5793,-6.5872,-6.5933,-6.6001,-6.6001,-6.608,-6.6215,-6.6264,-6.6321,-6.6153,-6.4508,-6.3907,-6.368,-6.1985,-6.1396,-6.1402,-6.1472,-6.1501,-6.1489,-6.1509,-6.1544,-6.1583,-6.1607,-6.1607,-6.1607,-6.1607,-6.1607,-6.1607,-6.1607,-6.2192,-6.2755,-6.2755,-6.3408,-6.4013,-6.4052,-6.3375,-6.3612,-6.6201,-6.597,-6.5733,-6.657,-6.671,0.0,-6.6707,-6.6643,-6.6639,-6.6688,-6.6646,-6.6586,-6.6567,-6.5646,-6.4698,-6.3798,-6.2941,-6.2044,-6.1137,-6.036,-5.9895,-5.9764,-5.8164,-5.6499,-5.4727,0.0,0.0,0.0,0.0,0.0,0.0,0.0,0.0,0.0,0.0,0.0,0.0,0.0,0.0,0.0,0.0,0.0,0.0,0.0,0.0,0.0,-6.4812,-6.6205,-6.653,-6.7383,-6.8414,-6.9558,-6.9509,-6.9985,-7.159,-7.1675,-7.1957,-7.2923,-7.2537,-7.2071,-7.1573,-7.1101,-7.0486,-6.9656,-6.9776,-6.9891,-6.9985,-7.0096,-7.0201,-7.0338,-7.0386,-6.9521,-6.7944,-6.8104,-6.7276,-6.5655,-6.5827,-6.5933,-6.6001,-6.6001,-6.608,-6.6215,-6.6264,-6.5925,-6.5255,-6.4267,-6.313,-6.2041,-6.1577,-6.1396,-6.1396,-6.1428,-6.1452,-6.149,-6.1433,-6.1433,-6.1464,-6.1509,-6.1528,-6.1537,-6.1598,-6.1554,-6.1539,-6.1532,-6.1659,-6.179,-6.1778,-6.1978,-6.2321,-6.2963,-6.2899,-6.3359,-6.5349,-6.6059,-6.6413,-6.6666,-6.6691,0.0,-6.6705,-6.6688,-6.6665,-6.662,-6.6572,-6.6264,-6.5631,-6.4713,-6.3789,-6.2902,-6.2086,-6.1496,-6.1192,-6.1004,-6.0261,-5.8886,-5.713,-5.5972,0.0,0.0,0.0,0.0,0.0,0.0,0.0,0.0,0.0,0.0,0.0,0.0,0.0,0.0,0.0,0.0,0.0,0.0,0.0,0.0,0.0,0.0,-6.5748,-6.6998,-6.7285,-6.7837,-6.871,-7.0035,-6.9868,-7.0338,-7.2143,-7.2167,-7.2419,-7.3357,-7.3091,-7.2568,-7.1864,-7.149,-7.0914,-7.0043,-6.9887,-7.0005,-7.0403,-7.0212,-7.0184,-7.0305,-7.0369,-6.9521,-6.7913,-6.804,-6.7194,0.0,-6.5787,-6.5909,-6.6001,-6.6001,-6.608,0.0,0.0,0.0,0.0,0.0,-6.2529,-6.14,-6.1402,-6.1428,-6.144,-6.1433,-6.1495,-6.1537,-6.147,-6.1439,-6.1445,-6.1487,-6.1507,-6.1507,-6.1548,-6.1534,-6.1504,-6.149,-6.146,-6.1389,-6.1408,-6.1407,-6.1548,-6.206,0.0,0.0,-6.4046,-6.5278,-6.6236,-6.6594,-6.6665,-6.6671,-6.6652,-6.6316,-6.6056,-6.6028,-6.5619,-6.5164,-6.4655,-6.3742,0.0,0.0,0.0,-6.1,-6.0596,-6.0219,0.0,0.0,0.0,-5.5776,-5.5745,0.0,0.0,0.0,-5.2133,-5.1822,0.0,0.0,0.0,0.0,0.0,0.0,0.0,0.0,0.0,0.0,0.0,0.0,0.0,0.0,0.0,0.0,-6.661,-6.7835,-6.8028,-6.8159,-6.883,-7.0529,-7.0089,-7.0312,-7.2035,-7.1839,-7.1909,-7.2675,-7.2932,-7.2658,-7.1757,0.0,0.0,0.0,0.0,-7.0098,-7.0914,-7.0327,-7.0111,-7.0288,-7.0369,-6.9578,-6.8066,-6.8013,-6.717,-6.5761,-6.5772,-6.5891,-6.5982,-6.5886,-6.5887,-6.5915,-6.5915,-6.5432,-6.454,-6.3017,-6.1997,0.0,-6.1409,0.0,0.0,-6.1498,-6.1544,-6.1573,-6.1509,-6.1484,-6.1498,-6.1509,-6.1482,-6.1498,-6.1509,-6.1482,-6.1493,-6.1484,-6.1434,-6.1389,-6.1389,-6.1401,-6.1393,-6.1393,-6.2022,-6.2585,-6.2682,-6.4066,-6.546,-6.6321,-6.6457,-6.6496,-6.6579,-6.579,-6.5215,-6.52,0.0,0.0,-6.3662,-6.2886,-6.2365,-6.2269,-6.1457,-6.0625,-5.9755,-5.8806,-5.7895,-5.7044,-5.6219,-5.5806,-5.5787,-5.4304,-5.3899,-5.4448,-5.2685,-5.2367,0.0,0.0,0.0,0.0,0.0,0.0,0.0,0.0,0.0,0.0,0.0,0.0,0.0,0.0,0.0,-6.6939,-6.8366,-6.9329,-6.9073,-6.8955,-6.9126,-6.9705,-7.0263,-7.1044,-7.2116,-7.2882,-7.3404,-7.3572,-7.3813,-7.3296,-7.1794,-7.1852,-7.1221,-6.9675,-6.9694,-6.9794,-6.9984,-7.0098,-7.0185,-7.022,0.0,0.0,-6.8929,-6.83,-6.7514,-6.6624,-6.6055,-6.5891,-6.5944,-6.5288,-6.469,-6.4184,-6.4184,-6.369,-6.2865,-6.1918,-6.1454,-6.1325,-6.1441,-6.144,-6.1434,-6.1484,-6.1515,-6.1515,-6.1446,-6.1415,0.0,-6.1478,-6.1472,-6.1421,-6.1497,-6.1472,-6.1415,-6.1428,-6.1415,-6.1407,-6.1407,-6.14,-6.1393,-6.1393,-6.1529,-6.1859,-6.2585,-6.356,-6.4558,-6.542,-6.5544,-6.579,-6.6434,-6.5793,-6.5261,-6.5208,-6.4355,-6.3527,-6.2809,-6.2547,-6.2104,-6.1408,-6.1128,-6.0655,-5.9891,-5.8915,-5.8006,-5.7177,-5.625,-5.5766,-5.5724,-5.5388,-5.4944,-5.4363,-5.2098,-5.1846,0.0,0.0,0.0,0.0,0.0,0.0,0.0,0.0,0.0,0.0,0.0,-6.2756,-6.3312,0.0,-6.7214,-6.7842,-6.8629,-6.9144,-6.9098,-6.9168,-6.9307,-6.957,-7.0369,-7.1261,-7.2211,-7.328,-7.3869,-7.3815,-7.3644,-7.2992,-7.1666,-7.1372,-7.0879,-7.0032,-6.9826,-6.9907,-7.0361,-7.0175,-7.0132,-7.0204,-7.0305,-6.9949,-6.9158,-6.8376,-6.7591,-6.6854,-6.6131,-6.5891,-6.5936,-6.5211,-6.4162,-6.3052,-6.3052,-6.2819,-6.24,-6.1591,-6.131,-6.131,-6.1428,-6.1434,-6.1421,-6.1434,-6.1464,-6.1501,-6.1415,-6.1428,-6.1453,-6.1454,-6.1434,-6.1415,-6.1434,-6.1434,-6.1389,-6.1389,-6.1388,-6.1393,-6.1393,-6.1393,-6.1393,-6.1393,-6.1393,-6.1529,-6.1983,-6.2405,-6.3138,-6.444,-6.4998,-6.5406,-6.579,-6.5095,-6.454,-6.4499,-6.3268,-6.2275,-6.1849,-6.1765,-6.1553,-6.1079,-6.1021,-6.0625,-5.9784,-5.8846,-5.7956,-5.7126,-5.6209,-5.5724,-5.564,-5.5256,-5.4581,-5.3662,-5.245,-5.2375,0.0,0.0,0.0,0.0,0.0,0.0,0.0,-6.3715,-6.2784,-6.2285,-6.2995,-6.3855,-6.4363,-6.5728,-6.7212,-6.8411,-6.876,-6.893,-6.91,-6.9362,-6.9514,-6.9453,-7.0177,-7.107,-7.2019,-7.3092,-7.3699,-7.3553,-7.3157,-7.2424,-7.1377,-7.0843,-7.0541,-7.0392,-6.9939,-7.0059,-7.0778,-7.0289,-7.0095,-7.0204,-7.027,-6.9933,-6.9158,-6.8342,-6.7591,-6.6835,-6.5966,-6.5538,-6.5442,-6.4751,-6.3545,-6.2124,-6.2133,-6.2191,-6.2159,-6.1533,-6.1302,-6.1314,-6.1373,-6.1408,-6.1396,-6.1396,-6.1445,-6.1479,-6.1428,-6.1453,-6.1485,-6.1414,-6.1401,-6.1395,-6.1407,-6.1401,-6.1395,-6.14,-6.1393,-6.1386,-6.1386,-6.1378,-6.1371,-6.1371,-6.1371,-6.1378,-6.1386,-6.1386,-6.191,-6.3517,-6.4294,-6.4772,-6.492,-6.4155,-6.3591,-6.3555,-6.2092,-6.1099,-6.1089,-6.108,-6.1051,-6.1009,-6.101,-6.0585,-5.9672,-5.8772,-5.7904,-5.7033,-5.6145,-5.5651,-5.5596,-5.4951,-5.4054,-5.2981,-5.3154,-5.3091,-6.2909,-6.4121,-6.5061,-6.6178,-6.6408,-6.6167,0.0,-6.513,-6.4569,-6.347,-6.3713,-6.4222,-6.4512,-6.59,-6.7491,-6.9029,-6.9985,-7.0409,-7.0027,-7.0191,-6.9895,-6.8624,-6.9385,-7.0301,-7.1001,-7.2141,-7.2777,-7.2657,-7.2801,-7.2226,-7.0683,-7.0608,-7.0319,-6.9726,-6.9696,-6.9814,-7.0024,-7.0134,-7.0204,-7.0204,-7.0338,-6.9963,-6.9158,-6.8314,-6.7546,-6.683,-6.5436,-6.4386,-6.3631,-6.2903,-6.2036,-6.1157,-6.1215,-6.1253,-6.1253,-6.1292,-6.1306,-6.1302,-6.1375,-6.1396,-6.1396,-6.1396,-6.1445,-6.1498,-6.1415,-6.1454,-6.1485,-6.1414,-6.14,-6.14,-6.1393,-6.14,-6.14,-6.1393,-6.1352,-6.131,-6.131,-6.1318,-6.1314,-6.1314,-6.1314,-6.1302,-6.1302,-6.131,-6.1667,-6.2694,-6.2915,-6.3231,-6.395,-6.3332,-6.2773,-6.2663,-6.177,-6.1146,-6.1022,-6.1012,-6.1022,-6.1099,-6.103,-6.0632,-5.9804,-5.8841,-5.7929,-5.7095,-5.6124,-5.5607,-5.5596,-5.5443,-5.4522,-5.2924,-5.3697,-5.3292,-6.3951,-6.4752,-6.5418,-6.6836,-6.6887,-6.6542,-6.631,-6.5651,-6.492,-6.4322,-6.4131,-6.4204,-6.4658,-6.5585,-6.6819,-6.8448,-6.9493,-7.0098,-7.01,-7.032,-6.9969,-6.8487,-6.9255,-7.0038,-7.0398,-7.1808,-7.2464,-7.1949,-7.1666,-7.119,-7.0425,-7.0076,-6.9813,-6.9596,-6.9678,-6.9758,-6.9891,-7.0022,-7.0077,-7.0095,-6.9737,-6.9401,-6.9055,-6.7833,-6.6882,-6.6195,-6.5115,-6.4169,-6.3349,-6.2603,-6.1794,-6.1012,-6.108,-6.1099,-6.1127,-6.1245,-6.1281,-6.1253,-6.1359,-6.1368,-6.1354,-6.1394,-6.1415,-6.1446,-6.1421,-6.1415,-6.1447,-6.1414,-6.1393,-6.1393,-6.1393,-6.1393,-6.1393,-6.1393,-6.1386,-6.1352,-6.1352,-6.1322,-6.1306,-6.1349,-6.133,-6.1294,-6.1295,-6.1299,-6.1427,-6.1838,-6.2342,-6.2803,-6.3115,-6.2828,-6.2369,-6.1806,-6.1412,-6.1146,-6.1012,-6.1032,-6.1041,-6.098,-6.0525,-6.0091,-5.9694,-5.8308,-5.7376,-5.7,-5.606,-5.5562,-5.548,-5.5456,-5.4559,-5.2872,-5.4256,-5.3477,-6.4896,-6.5375,-6.6011,-6.7568,-6.761,-6.7179,-6.6854,-6.6103,-6.5325,-6.464,-6.411,-6.3925,-6.4445,-6.505,-6.6074,-6.7891,-6.9001,-6.9686,-7.0008,-7.0468,-7.013,-6.8405,-6.9292,-6.996,-6.9729,-7.1331,-7.2038,-7.1237,-7.0751,-7.0342,-7.0027,-6.9646,-6.9515,-6.9596,-6.9698,-6.9796,-6.9891,-6.9985,-7.0021,-7.0039,-6.9323,-6.8891,-6.8657,-6.7137,-6.605,-6.5337,-6.4565,-6.3762,-6.2956,-6.2221,-6.1551,-6.1001,-6.1061,-6.1089,-6.1127,-6.1245,-6.1281,-6.1245,-6.1349,-6.1352,-6.1337,-6.1352,-6.1375,-6.1409,-6.1386,-6.1388,-6.1409,-6.1373,-6.1386,-6.1393,-6.1393,-6.1393,-6.1393,-6.1386,-6.1371,-6.1364,-6.1349,-6.1306,-6.1271,-6.1306,-6.1294,-6.127,-6.1263,-6.1259,-6.1281,-6.1297,-6.1877,-6.2288,-6.2246,-6.2178,-6.1895,-6.125,-6.1155,-6.1118,-6.1011,-6.1051,-6.0925,-6.0597,-6.0012,-5.9665,-5.9601,-5.7929,-5.7085,-5.7259,-5.6172,-5.5539,-5.5408,-5.5408,-5.4625,-5.3187,-5.4448,-5.3473,-6.6054,-6.663,-6.7476,-6.859,-6.8881,-6.8547,-6.7117,-6.6762,-6.6191,-6.4218,-6.3525,-6.3346,-6.3753,-6.4257,-6.541,-6.7819,-6.8972,-6.9675,-6.9884,-7.0798,-7.0587,-6.8202,-6.9413,-7.0024,-6.886,-7.0443,-7.1218,-7.039,-7.0451,-7.0142,-6.9275,-6.9453,-6.9596,-6.9616,-6.9795,-6.9891,-6.9891,-6.9985,-7.0077,-7.0185,-6.9377,-6.8638,-6.7878,-6.6268,-6.5092,-6.4302,-6.3571,-6.2778,-6.1984,-6.1251,-6.0963,-6.0997,-6.1001,-6.1032,-6.1127,-6.1245,-6.1297,-6.1306,-6.1306,-6.1344,-6.1386,-6.1318,-6.1354,-6.1395,-6.1326,-6.1352,-6.1383,-6.1325,-6.1352,-6.1393,-6.1393,-6.1393,-6.1386,-6.131,-6.1291,-6.1289,-6.1219,-6.1191,-6.1173,-6.1117,-6.1155,-6.121,-6.121,-6.121,-6.1227,-6.1297,-6.1325,-6.1344,-6.1344,-6.1275,-6.1212,-6.1108,-6.1041,-6.1001,-6.0997,-6.0991,-6.0634,-5.9792,-5.9715,-5.9665,-5.9601,-5.7929,-5.7373,-5.815,-5.6479,-5.5539,-5.5408,-5.5408,-5.495,-5.4065,-5.4104,-5.3206,-6.6844,-6.7584,-6.8357,-6.88,-6.9024,-6.8731,-6.7203,-6.6825,-6.642,-6.5066,-6.4086,-6.359,-6.4002,-6.4695,-6.5539,-6.6553,-6.8538,-6.9806,-6.9431,-7.0119,-7.0124,-6.8481,-6.9304,-6.9676,-6.8903,-7.0198,-7.0638,-6.9507,-7.0005,-6.999,-6.9109,-6.9411,-6.9616,-6.9616,-6.9795,-6.9891,-6.9891,-6.9985,-6.9755,-6.9259,-6.7952,-6.6959,-6.6216,-6.5673,-6.5316,-6.503,-6.3696,-6.3009,-6.2695,-6.1412,-6.0903,-6.0944,-6.0991,-6.1032,-6.1108,-6.121,-6.125,-6.1306,-6.1344,-6.1352,-6.1344,-6.1352,-6.099,-6.0621,-6.114,-6.0907,-6.0592,-6.1147,-6.1329,-6.1344,-6.1386,-6.1393,-6.1386,-6.1329,-6.1329,-6.1349,-6.1283,-6.1278,-6.1261,-6.1231,-6.1171,-6.1146,-6.1201,-6.1164,-6.1146,-6.1164,-6.121,-6.1227,-6.1227,-6.1219,-6.1201,-6.1164,-6.1182,-6.1173,-6.1137,-6.1127,-6.0741,-5.9823,-5.9176,-5.8816,-5.8745,-5.7063,-5.6527,-5.7317,-5.6191,-5.5539,-5.5408,-5.5408,-5.495,-5.4104,-5.4104,-5.3206,-6.7649,-6.8311,-6.8763,-6.8952,-6.9157,-6.8878,-6.7324,-6.6927,-6.662,-6.5572,-6.4716,-6.4316,-6.4816,-6.557,-6.6277,-6.6733,-6.8475,-6.975,-6.961,-7.0007,-6.9903,-6.8927,-6.923,-6.9354,-6.8884,-6.9817,-7.007,-6.9143,-6.9552,-6.9608,-6.9091,-6.9393,-6.9616,-6.9616,-6.9795,-6.9891,-6.9891,-6.9644,-6.8978,-6.7929,-6.6943,-6.6119,-6.5394,-6.5394,-6.5272,-6.4967,-6.3669,-6.295,-6.2599,-6.137,-6.0869,-6.0903,-6.0959,-6.1011,-6.108,-6.1146,-6.1225,-6.1306,-6.1344,-6.1352,-6.1286,-6.0983,-6.0536,-6.0141,-6.0317,-5.9991,-5.9681,-6.0247,-6.0623,-6.0883,-6.0925,-6.1172,-6.1386,-6.1314,-6.1329,-6.1344,-6.1306,-6.1302,-6.1286,-6.1275,-6.1189,-6.1146,-6.1155,-6.1146,-6.1137,-6.1099,-6.1155,-6.1201,-6.1164,-6.1164,-6.1164,-6.1201,-6.1236,-6.1236,-6.1164,-6.0902,-6.0305,-5.934,-5.8452,-5.7929,-5.7878,-5.6507,-5.6128,-5.695,-5.6124,-5.5607,-5.5468,-5.5181,-5.4877,-5.4542,-5.3663,-5.2822,-6.8323,-6.8754,-6.8791,-6.9116,-6.931,-6.902,-6.7519,-6.7181,-6.6858,-6.5791,-6.5413,-6.5484,-6.6101,-6.6765,-6.7441,-6.8136,-6.88,-6.9492,-7.0286,-7.0309,-7.0024,-6.9352,-6.9259,-6.9117,-6.8729,-6.9296,-6.9546,-6.9216,0.0,-6.9109,-6.92,-6.9434,-6.9597,-6.9616,-6.9758,-6.9816,-6.9816,-6.8925,-6.7784,-6.64,-6.6423,-6.6081,-6.5394,-6.5394,-6.4974,-6.4225,-6.3431,-6.2636,-6.1806,-6.1099,-6.0835,-6.0911,-6.0911,-6.0948,-6.1012,-6.108,-6.1182,-6.1306,-6.1306,-6.1344,-6.125,-6.0301,-6.0024,-5.9871,-5.8967,-5.8704,-5.8734,-5.878,-5.9381,-6.0041,-6.0099,-6.0711,-6.134,-6.1302,-6.1299,-6.1295,-6.1294,-6.1306,-6.1289,-6.1219,-6.1201,-6.1164,-6.1108,-6.1155,-6.1164,-6.1108,-6.1155,-6.1164,-6.1108,-6.1099,-6.1137,-6.1201,-6.1201,-6.1164,-6.1108,-6.0409,-5.9484,-5.838,-5.7669,-5.7196,-5.7039,-5.623,-5.6201,-5.702,-5.621,-5.5735,-5.5607,-5.4789,-5.4741,-5.535,-5.2862,-5.2135,-6.6927,-6.8043,-6.896,-6.9141,-6.9393,-6.9294,-6.8355,-6.8129,-6.7882,-6.6896,-6.6526,-6.6413,-6.6475,-6.6967,-6.7374,-6.746,-6.8556,-6.9288,-6.89,-6.9337,-6.948,-6.8773,-6.8838,-6.8912,-6.8833,-6.9052,-6.9166,-6.92,-6.9671,-6.9746,-6.9241,-6.9455,-6.9617,-6.9659,-6.919,-6.8925,-6.8925,-6.7576,-6.67,-6.6315,-6.5789,-6.5452,-6.534,-6.534,-6.5238,-6.5027,-6.368,-6.2981,-6.2669,-6.1349,-6.0812,-6.0835,-6.0869,-6.0948,-6.1012,-6.108,-6.1182,-6.1306,-6.1294,-6.1341,-6.1257,-6.0356,-5.9643,-5.9078,-5.8793,-5.8257,-5.7901,-5.8533,-5.889,-5.9215,-5.9915,-6.0266,-6.057,-6.1159,-6.1337,-6.1352,-6.1314,-6.1306,-6.1291,-6.127,-6.1182,-6.1108,-6.1099,-6.1108,-6.1108,-6.1099,-6.1108,-6.1146,-6.1164,-6.1137,-6.1137,-6.1201,-6.1201,-6.1182,-6.1192,-6.0988,-6.0207,-5.8616,-5.8298,-5.7584,-5.6261,-5.5991,-5.5972,-5.6203,-5.5942,-5.5756,-5.5662,-5.4811,-5.4741,-5.535,-5.287,-5.2089,-6.6877,-6.7924,-6.864,-6.8767,-6.8972,-6.8886,-6.7789,-6.7807,-6.7902,-6.7354,-6.7408,-6.7626,-6.7906,-6.7933,-6.7862,-6.7691,-6.8361,-6.8819,-6.8631,-6.8926,-6.9162,-6.9208,-6.8978,-6.8869,-6.8952,-6.8983,-6.9072,-6.92,-6.9522,-6.96,-6.9308,-6.9495,-6.9467,-6.9169,-6.8793,-6.8243,-6.7504,-6.6648,-6.6056,-6.5711,-6.5306,-6.5177,-6.5309,-6.5309,-6.5161,-6.4862,0.0,-6.2918,-6.2516,-6.1303,-6.08,-6.0812,-6.0835,-6.0924,-6.101,-6.1041,-6.0924,-6.0735,-6.0735,-6.0519,-6.0169,-5.9655,-5.9141,-5.8614,-5.7835,-5.7234,-5.6939,-5.7463,-5.7866,-5.8347,-5.9245,-5.9786,-6.0305,-6.1116,-6.1352,-6.1393,-6.1352,-6.131,-6.1287,-6.1261,-6.1173,-6.1099,-6.1099,-6.1117,-6.1117,-6.1099,-6.1137,-6.1155,-6.1201,-6.1164,-6.1155,-6.1201,-6.1227,-6.1227,-6.121,-6.0532,-5.9654,-5.8624,-5.7834,-5.6956,-5.5972,-5.5933,-5.5943,-5.5942,-5.5876,-5.5623,-5.5168,-5.4682,-5.4602,-5.4814,-5.2709,-5.212,-6.7404,-6.8039,-6.8154,-6.8294,-6.847,-6.8242,-6.6795,-6.7096,-6.7667,-6.7615,-6.8186,-6.8925,-6.9625,-6.9209,-6.8698,-6.8523,-6.8364,-6.8443,-6.8937,-6.8869,-6.9057,-6.985,-6.9355,-6.8952,-6.9005,-6.9027,-6.9072,-6.92,-6.9116,-6.916,-6.9413,-6.9536,-6.9222,-6.8376,-6.83,-6.7523,-6.5969,-6.595,-6.5625,-6.4991,-6.5008,-6.5092,-6.5293,-6.5293,-6.4986,-6.4408,0.0,0.0,-6.2074,-6.118,-6.08,-6.08,-6.08,-6.088,-6.0987,-6.0871,-6.0461,-5.9963,-5.9855,-5.9359,-5.875,-5.8595,-5.8533,-5.8242,-5.6676,-5.6149,-5.6106,-5.6184,-5.6703,-5.7447,-5.8327,-5.9233,-6.013,-6.0949,-6.1274,-6.1393,-6.1393,-6.1344,-6.1271,-6.1208,-6.1155,-6.1099,-6.1099,-6.1146,-6.1164,-6.1099,-6.1155,-6.1201,-6.1192,-6.1192,-6.1201,-6.1201,-6.1236,-6.1206,-6.1046,-5.9691,-5.8708,-5.8355,-5.6965,-5.6115,-5.5999,-5.5999,-5.5989,-5.5986,-5.5923,-5.5451,-5.4505,-5.4493,-5.4329,-5.3996,-5.2502,-5.2093,-6.6919,-6.7805,-6.8314,-6.8508,-6.8584,-6.8375,-6.7549,-6.8038,-6.8647,-6.8647,-6.9223,-6.9833,-7.0077,-6.9815,-6.9569,-6.9472,-6.9334,-6.9188,-6.9016,-6.9075,-6.9106,-6.9108,-6.9117,-6.9113,-6.9009,-6.9094,-6.916,-6.92,-6.9268,-6.9393,-6.9556,-6.9596,-6.8978,-6.7618,-6.6898,-6.6082,-6.5116,-6.5116,-6.504,-6.4906,-6.4974,-6.5095,-6.5213,-6.5277,-6.526,-6.5138,-6.3699,0.0,-6.2797,-6.1387,-6.08,-6.08,-6.08,-6.088,-6.091,-6.0177,-5.992,-5.9805,-5.9088,-5.8792,-5.8599,-5.7931,-5.7705,-5.7504,-5.644,-5.6106,-5.6106,-5.6184,-5.6296,-5.6621,-5.7546,-5.8402,-5.9244,-6.0092,-6.0868,-6.1393,-6.1393,-6.1341,-6.1306,-6.127,-6.1182,-6.1099,-6.1099,-6.1108,-6.1108,-6.1099,-6.1155,-6.1173,-6.1117,-6.1127,-6.1146,-6.1182,-6.1164,-6.0866,-6.0189,-5.986,-5.9077,-5.7599,-5.7186,-5.6694,-5.6038,-5.5999,-5.5981,-5.5924,-5.5905,-5.5451,-5.4512,-5.4449,-5.3999,-5.3192,-5.2176,-5.1778,-6.6969,-6.7674,-6.7864,-6.7409,-6.7727,-6.7983,-6.7209,-6.7717,-6.8493,-6.8881,-6.9607,-7.0217,-7.0255,-6.982,-6.9463,-6.9412,-6.9284,-6.8944,-6.8274,-6.8554,-6.8775,-6.8605,-6.8608,-6.8629,-6.8584,-6.8978,-6.9013,-6.8621,-6.9085,-6.9455,-6.9577,-6.8807,-6.8054,-6.7428,-6.6066,-6.5214,-6.4907,-6.4907,-6.4907,-6.4907,-6.4941,-6.501,-6.5076,-6.472,-6.4409,-6.4097,-6.2927,0.0,-6.1837,-6.1104,-6.08,-6.0812,-6.0835,-6.0922,-6.0901,-6.0064,-5.9552,-5.9144,-5.828,-5.7757,-5.7383,-5.6956,-5.7116,-5.728,-5.6322,-5.6073,-5.6098,-5.6141,-5.6164,-5.6408,-5.73,-5.7851,-5.8506,-5.9788,-6.0778,-6.1393,-6.1352,-6.1326,-6.1289,-6.1245,-6.1164,-6.1099,-6.1099,-6.1099,-6.1099,-6.1099,-6.1137,-6.1146,-6.1099,-6.1099,-6.1108,-6.1146,-6.0748,-6.0314,-5.9919,-5.905,-5.8151,-5.7357,-5.681,-5.6367,-5.6007,-5.6008,-5.5981,-5.5962,-5.547,-5.4978,-5.446,-5.4007,-5.3481,-5.2928,-5.2138,-5.1713,-6.6967,-6.7353,-6.722,-6.6396,-6.6859,-6.7349,-6.6711,-6.7254,-6.811,-6.8902,-6.9658,-7.0209,-7.0334,-6.975,-6.9269,-6.9363,-6.9146,-6.8682,-6.7841,-6.8205,-6.8413,-6.8127,-6.8312,-6.8325,-6.7962,-6.8575,-6.8718,-6.81,-6.8751,-6.9233,-6.9353,-6.8016,-6.7203,-6.7125,-6.5574,-6.4798,-6.4907,-6.4907,-6.4907,-6.4907,-6.4906,-6.4958,-6.497,-6.4253,-6.3669,-6.316,-6.2205,0.0,0.0,-6.0834,-6.0788,-6.0812,-6.0858,-6.0933,-6.0882,-5.9871,-5.9145,-5.8521,-5.7482,-5.6759,-5.6278,-5.6218,-5.6636,-5.7005,-5.6275,-5.6073,-5.6098,-5.6122,-5.6164,-5.6369,-5.706,-5.7424,-5.802,-5.9703,-6.0616,-6.1153,-6.1283,-6.1147,-6.1056,-6.118,-6.101,-6.0905,-6.1079,-6.1099,-6.1099,-6.1099,-6.1108,-6.1127,-6.1099,-6.0944,-6.0818,-6.0809,-6.0275,-5.9742,-5.9349,-5.8017,-5.7157,-5.703,-5.6309,-5.5904,-5.594,-5.5971,-5.5943,-5.5953,-5.5036,-5.4505,-5.4375,-5.3746,-5.3174,-5.2648,-5.2253,-5.1823,-6.6483,-6.6592,-6.6512,-6.6464,-6.6535,-6.6656,-6.6755,-6.7351,-6.8158,-6.908,-6.9345,-6.9632,-7.042,-6.9923,-6.9578,-7.0187,-6.9658,-6.9096,-6.8797,-6.871,-6.8354,-6.7486,-6.8659,-6.8901,-6.7192,-6.7791,-6.8261,-6.8186,-6.8308,-6.8466,-6.8583,-6.7827,-6.7012,-6.6234,-6.5344,-6.489,-6.4907,-6.4907,-6.4907,-6.4907,-6.4957,-6.4989,-6.497,-6.4299,-6.3955,-6.3833,-6.2357,0.0,0.0,-6.098,-6.0753,-6.08,-6.0812,-6.09,-6.0794,-5.9145,-5.8558,-5.8391,-5.6784,-5.6218,-5.6218,-5.6194,-5.6248,-5.6282,-5.6199,-5.6141,-5.6114,-5.617,-5.6202,-5.6233,-5.6369,-5.6991,-5.8013,-5.9699,-6.0167,-6.0427,-6.1147,-6.0685,-6.0339,-6.1064,-6.0555,-6.0248,-6.0963,-6.1099,-6.1099,-6.1099,-6.1155,-6.1164,-6.1099,-6.0402,-5.992,-5.992,-5.992,-5.9233,-5.7582,-5.7303,-5.6897,-5.6173,-5.5914,-5.5807,-5.5817,-5.5826,-5.5787,-5.5735,-5.4929,-5.4444,-5.4319,-5.4231,-5.341,-5.1907,-5.2574,-5.2107,-6.66,-6.6716,-6.651,-6.5979,-6.6258,-6.6835,-6.7491,-6.7869,-6.8468,-6.9858,-6.9753,-6.95,-6.9819,-6.9649,-6.9385,-6.9179,-6.927,-6.895,-6.7748,-6.7595,-6.7194,-6.6056,-6.6914,-6.7088,-6.5823,-6.6803,-6.7555,-6.7555,-6.7616,-6.7467,-6.7033,-6.6636,-6.6314,-6.6048,-6.5216,-6.4816,-6.4907,-6.4907,-6.4907,-6.4907,-6.4924,-6.4941,-6.4903,-6.3701,-6.3169,-6.3135,-6.1677,0.0,0.0,-6.0856,-6.0469,-6.0081,-6.0688,-6.0627,-6.0082,-5.8945,-5.8574,-5.8416,-5.6738,-5.6209,-5.6272,-5.6251,-5.6258,-5.6239,-5.6221,-5.6184,-5.6164,-5.6185,-5.619,-5.6221,-5.6272,-5.6958,-5.7768,-5.8434,-5.8958,-5.9534,-6.0344,-5.9808,-5.9398,-6.019,-6.0036,-5.9882,-6.0259,-6.0316,-6.0336,-6.0383,-5.991,-5.9572,-5.9534,-5.9196,-5.8752,-5.8239,-5.8221,-5.797,-5.7255,-5.6686,-5.6233,-5.5962,-5.5816,-5.5785,-5.5865,-5.5826,-5.5536,-5.4986,-5.4158,-5.3663,-5.351,-5.3026,-5.2423,-5.176,-5.2653,-5.2209,-6.646,-6.6701,-6.6657,-6.602,-6.6528,-6.7467,-6.8397,-6.8589,-6.8978,-7.0445,-7.01,-6.9577,-6.9774,-6.9481,-6.9102,-6.8757,-6.8531,-6.804,-6.6997,-6.646,-6.5925,-6.5261,-6.5637,-6.5705,-6.4998,-6.6012,-6.6708,-6.6689,-6.6729,-6.6484,-6.5879,-6.5558,-6.5464,-6.5615,-6.5009,-6.4743,-6.4853,-6.4871,-6.4907,-6.4907,-6.4907,-6.4775,-6.4471,-6.3163,-6.2478,-6.225,0.0,0.0,0.0,-6.0729,-6.04,-5.9946,-6.066,-6.0436,-5.962,-5.8829,-5.8445,-5.811,-5.6668,-5.6216,-5.6278,-5.6278,-5.6278,-5.6265,-5.6216,-5.6206,-5.6206,-5.6211,-5.6204,-5.625,-5.6278,-5.6758,-5.7282,-5.7502,-5.8007,-5.8627,-5.9417,-5.8864,-5.8456,-5.9263,-5.9166,-5.905,-5.9341,-5.9399,-5.9408,-5.9447,-5.8916,-5.8491,-5.8481,-5.8201,-5.7784,-5.7165,-5.6896,-5.6762,-5.6772,-5.6183,-5.5826,-5.5875,-5.5756,-5.5745,-5.5836,-5.5806,-5.5362,-5.4514,-5.3907,-5.3526,-5.3398,-5.2598,-5.2302,-5.254,-5.2937,-5.2385,-6.5858,-6.6331,-6.6892,-6.6892,-6.7544,-6.8436,-6.9371,-6.9481,-6.9663,-7.0599,-7.0151,-6.9833,-7.0647,-6.9546,-6.877,-6.956,-6.7532,-6.616,-6.707,-6.5603,-6.4717,-6.5512,-6.5469,-6.529,-6.5025,-6.55,-6.5784,-6.5723,-6.5704,0.0,-6.5505,-6.4816,-6.452,-6.4707,-6.4688,-6.4688,-6.4706,-6.4816,-6.4907,-6.4907,-6.4907,-6.4453,-6.36,-6.2831,-6.2094,0.0,0.0,0.0,0.0,-6.0604,-6.066,-6.0781,-6.08,-6.0393,-5.9688,-5.875,-5.7977,-5.7288,-5.6404,-5.6133,-5.6199,-5.6199,-5.6199,-5.6199,-5.6199,-5.619,-5.6206,-5.6211,-5.6246,-5.6291,-5.6291,-5.6311,-5.6518,-5.7312,-5.7518,-5.7717,-5.8466,-5.7923,-5.755,-5.8355,-5.7825,-5.7477,-5.8287,-5.8462,-5.8481,-5.8432,-5.8462,-5.8481,-5.8413,-5.7639,-5.7107,-5.7107,-5.6265,-5.5735,-5.5806,-5.5816,-5.5797,-5.5797,-5.5735,-5.5703,-5.5703,-5.5703,-5.5318,-5.4511,-5.4491,-5.444,-5.4386,-5.3511,-5.3565,-5.4437,-5.3608,-5.2771,-6.6039,-6.6548,-6.709,-6.7057,-6.7678,-6.8575,-6.9454,-6.9632,-6.9863,-7.0752,-7.0298,-6.965,-6.9348,-6.8847,-6.8229,-6.7375,-6.7012,-6.6478,-6.5492,-6.4934,-6.4392,-6.3815,-6.36,-6.3673,-6.4132,-6.4244,-6.4481,-6.4916,-6.4992,0.0,-6.4741,-6.4536,-6.4424,-6.4501,-6.4577,-6.4634,-6.4634,-6.4671,-6.4726,-6.4761,-6.4761,-6.4344,-6.3581,-6.2878,0.0,0.0,0.0,0.0,0.0,-6.0002,-5.9506,-5.91,-5.9138,-5.8682,-5.7989,-5.7737,-5.7564,-5.7334,-5.6463,-5.6216,-5.6252,-5.6206,-5.6199,-5.6192,-5.6153,-5.6164,-5.6206,-5.6211,-5.6225,-5.6246,-5.6285,-5.6291,-5.6369,-5.6628,-5.6647,-5.6825,-5.7606,-5.705,-5.6643,-5.7458,-5.7361,-5.7234,-5.7525,-5.7603,-5.7593,-5.7583,-5.7082,-5.6705,-5.6636,-5.6344,-5.6139,-5.6139,-5.5868,-5.5714,-5.5735,-5.5735,-5.5735,-5.5735,-5.5714,-5.5703,-5.5703,-5.5703,-5.5051,-5.3706,-5.4173,-5.3565,-5.1817,-5.3325,-5.4213,-5.4477,-5.309,-5.2318,-6.6582,-6.6935,-6.7388,-6.7987,-6.8565,-6.9188,-6.9996,-7.0201,-7.0298,-7.0535,-7.023,-6.9648,-6.8791,-6.813,-6.7465,-6.672,-6.6174,-6.5674,-6.5137,-6.4234,-6.3239,-6.2122,-6.2684,-6.3096,-6.2908,-6.3611,-6.4117,-6.418,-6.4426,0.0,-6.4405,-6.4385,-6.4365,-6.4365,-6.4463,-6.452,-6.452,-6.4577,-6.4634,-6.4688,-6.4385,-6.3872,-6.3126,-6.2442,0.0,0.0,0.0,0.0,0.0,-6.0047,-5.941,-5.8761,-5.88,-5.8141,-5.7168,-5.7235,-5.714,-5.6885,-5.6358,-5.6221,-5.6193,-5.5835,-5.5712,-5.5705,-5.5653,-5.5905,-5.6129,-5.5802,-5.5733,-5.5838,-5.6207,-5.6058,-5.5883,-5.6214,-5.6258,-5.6345,-5.6839,-5.6449,-5.6161,-5.6647,-5.6695,-5.6646,-5.6666,-5.6686,-5.6686,-5.6638,-5.6194,-5.5836,-5.5766,-5.5724,-5.5703,-5.5703,-5.5703,-5.5703,-5.5703,-5.5703,-5.5703,-5.5703,-5.5703,-5.5703,-5.5703,-5.5415,-5.4628,-5.3291,-5.3712,-5.3009,-5.1135,-5.308,-5.3889,-5.3533,-5.2549,-5.1902,0.0,-6.7418,-6.7703,-6.9324,-6.9767,-7.0013,-7.0761,-7.0921,0.0,-7.0039,-6.9946,-6.9719,-6.8796,-6.7396,-6.66,-6.7227,-6.5174,-6.4033,-6.5523,-6.3517,-6.1557,-6.0608,-6.2572,-6.3329,-6.158,-6.336,-6.4323,-6.3571,0.0,0.0,-6.4385,-6.4344,-6.4284,-6.4284,-6.4365,-6.4385,-6.4385,-6.452,-6.4615,-6.467,-6.3875,-6.3097,-6.2351,-6.1652,0.0,0.0,0.0,0.0,0.0,-6.047,-6.0027,-5.9396,-5.9281,-5.8327,-5.7033,-5.7158,-5.6732,-5.6117,-5.6175,-5.6207,-5.6071,-5.5256,-5.4985,-5.4958,-5.4842,-5.5423,-5.5947,-5.5121,-5.4918,-5.5081,-5.5903,-5.5553,-5.5204,-5.6019,-5.6199,-5.618,-5.6121,-5.6046,-5.598,-5.5922,-5.5895,-5.5885,-5.5826,-5.5846,-5.5846,-5.5724,-5.5756,-5.5776,-5.5714,-5.5703,-5.5703,-5.5703,-5.5703,-5.5703,-5.5703,-5.5703,-5.5703,-5.5703,-5.5645,-5.5607,-5.5607,-5.4838,-5.3991,-5.3126,-5.3049,-5.2713,-5.2088,-5.2829,-5.2761,-5.1924,-5.197,-5.1469,-6.7448,0.0,-6.7544,-6.7906,-6.8494,-6.9185,0.0,-6.9647,-6.9324,-6.9807,-6.9435,-6.8773,-6.7935,-6.6942,-6.6312,-6.6525,-6.4977,-6.3612,-6.3284,-6.2479,-6.1544,-6.0608,-6.2051,-6.2662,-6.1507,-6.1747,-6.241,0.0,0.0,-6.3746,-6.4367,-6.4344,-6.4284,-6.4284,-6.4324,-6.4324,-6.4324,-6.4344,-6.4404,-6.4463,-6.3709,-6.2952,-6.2227,-6.1647,0.0,0.0,0.0,0.0,-6.0508,-5.9273,-5.8692,-5.8454,-5.718,-5.6472,-5.6261,-5.6956,-5.6729,-5.6195,-5.6872,-5.6707,-5.6165,-5.5952,-5.5857,-5.5579,-5.4292,-5.4512,-5.5179,-5.5029,-5.4511,-5.4045,-5.4265,-5.464,-5.5048,-5.5262,-5.5754,-5.6022,-5.5353,-5.5668,-5.5855,-5.5139,-5.5489,-5.5895,-5.5885,-5.5846,-5.5797,-5.5776,-5.5787,-5.5776,-5.5714,-5.5703,-5.5703,-5.5703,-5.5703,-5.5703,-5.5703,-5.5703,-5.5703,-5.5703,-5.5126,-5.478,-5.478,-5.3953,-5.3127,-5.23,-5.1626,-5.1847,-5.2993,-5.2521,-5.1875,-5.1092,-5.1046,-5.0236,-6.7168,-6.7035,-6.7084,-6.7845,-6.8105,-6.8461,-6.9629,-6.9274,-6.8825,-6.9297,-6.8768,-6.7948,-6.7106,-6.6308,-6.5652,-6.517,-6.4015,-6.2653,-6.1188,-6.1144,-6.1063,-6.0529,-6.1463,-6.1938,0.0,-6.1592,-6.1911,0.0,0.0,-6.305,-6.3841,-6.38,-6.374,-6.374,-6.374,-6.374,-6.374,-6.374,-6.3611,-6.3295,-6.2485,-6.1955,-6.1625,-6.1026,-6.0509,0.0,0.0,0.0,-6.0508,-5.9242,-5.8534,-5.8165,-5.6862,-5.6384,-5.6464,-5.657,-5.6597,-5.662,-5.6715,-5.6233,-5.5486,-5.5094,-5.5234,-5.5246,-5.3557,-5.3656,-5.4278,-5.3909,-5.3469,-5.3204,-5.3591,-5.3747,-5.4019,-5.4815,-5.5022,-5.5028,-5.4915,-5.5219,-5.5357,-5.4845,-5.541,-5.5953,-5.5953,-5.5856,-5.5797,-5.5797,-5.5797,-5.5787,-5.5756,-5.5745,-5.5745,-5.5745,-5.5745,-5.5735,-5.5714,-5.538,-5.5188,-5.5138,-5.4734,-5.433,-5.3955,-5.3108,-5.2261,-5.1424,-5.0961,-5.121,-5.2107,-5.1259,-5.0641,-5.0188,-4.9783,-4.8896,-6.675,-6.6381,-6.6554,-6.7878,-6.7666,-6.752,-6.9013,-6.8764,-6.8295,-6.8548,-6.7949,-6.7134,-6.6279,-6.544,-6.4629,-6.3876,-6.2773,-6.1407,-5.9614,-5.9779,-6.0127,-6.0193,-6.0679,0.0,-6.0922,0.0,0.0,0.0,0.0,-6.222,-6.305,-6.2954,-6.2894,-6.2895,-6.2894,-6.2819,-6.2726,-6.2839,-6.2615,-6.1996,-6.1112,-6.0807,-6.0982,-6.0297,-6.0026,0.0,0.0,0.0,-6.0514,-5.9518,-5.8786,-5.817,-5.7327,-5.6947,-5.6846,-5.6434,-5.6589,-5.6916,-5.6255,-5.547,-5.4705,-5.4103,-5.4355,-5.4604,-5.3068,-5.3107,-5.3494,-5.2505,-5.2227,-5.2387,-5.3125,-5.2853,-5.2776,-5.4252,-5.4136,-5.389,-5.4566,-5.4657,-5.4649,-5.4782,-5.533,-5.5844,-5.598,-5.5905,-5.5826,-5.5826,-5.5681,-5.5604,-5.5633,-5.5478,-5.5459,-5.5604,-5.5508,-5.5449,-5.5513,-5.4833,-5.4323,-5.412,-5.412,-5.3754,-5.2936,-5.2194,-5.1462,-5.0702,-5.0767,-5.0708,-5.0528,-4.9823,-4.936,-4.9092,-4.8414,-4.7595,-6.6641,-6.6528,-6.6309,-6.5741,-6.547,-6.5645,-6.6642,-6.6177,-6.5983,-6.7405,-6.7018,-6.6177,-6.5419,-6.4047,-6.3228,-6.3852,-6.1883,-6.0134,-5.9703,-5.8868,-5.854,-5.9218,0.0,-5.9265,-5.9193,0.0,0.0,0.0,0.0,-6.1225,-6.2146,-6.2031,-6.1934,-6.1994,-6.1934,-6.1616,-6.0999,-6.1656,-6.1995,-6.1996,-6.1111,-6.0825,-6.0982,-6.0248,-5.9979,0.0,0.0,-6.0444,-6.0411,-5.8911,-5.822,-5.8052,-5.7228,-5.6516,-5.6101,-5.7504,-5.7246,-5.6163,-5.6115,-5.5523,-5.4907,-5.5567,-5.5368,-5.4721,-5.378,-5.3591,-5.3378,-5.1818,-5.1371,-5.1416,-5.1552,-5.1999,-5.2465,-5.2737,-5.3261,-5.3728,-5.379,-5.3788,-5.3991,-5.4675,-5.4847,-5.513,-5.5883,-5.5943,-5.5885,-5.5885,-5.5219,-5.4728,-5.4786,-5.4101,-5.3897,-5.4699,-5.4121,-5.3957,-5.4621,-5.3957,-5.3177,-5.2435,-5.2377,-5.2011,-5.1125,-5.1036,-5.0901,-5.0711,-5.0701,-5.0383,-4.968,-4.9489,-4.8718,-4.7381,-4.7197,-4.666,-6.6765,-6.6556,-6.6283,-6.5345,-6.5114,-6.52,-6.5562,-6.5017,-6.4754,-6.5989,-6.5562,-6.4851,-6.452,-6.3876,-6.3068,-6.2011,-5.9571,-5.7721,-5.751,-5.7282,-5.7458,0.0,0.0,-5.8205,0.0,0.0,0.0,0.0,0.0,0.0,-6.1206,-6.1072,-6.0994,-6.1053,-6.1014,-6.064,-5.991,-6.0266,-6.0473,-6.0548,-6.0135,-6.0038,-6.0251,-6.0009,-5.9963,-6.0099,0.0,-6.0163,-5.9708,-5.8528,-5.7812,-5.7366,-5.6526,-5.6327,-5.6626,-5.7487,-5.7032,-5.5947,-5.5545,-5.5429,-5.5371,-5.4931,-5.5167,-5.5283,-5.3534,-5.3351,-5.3402,-5.1674,-5.1202,-5.1202,-5.1202,-5.1474,-5.1863,-5.229,-5.2368,-5.2453,-5.2867,-5.2917,-5.3141,-5.3944,-5.442,-5.4984,-5.5852,-5.5933,-5.5905,-5.5953,-5.519,-5.4621,-5.464,-5.3879,-5.3475,-5.3907,-5.3589,-5.3484,-5.3822,-5.3145,-5.2508,-5.204,-5.1596,-5.1171,-5.0766,-5.0784,-5.0775,-5.0701,-5.0654,-5.0259,-4.9451,-4.8942,-4.8085,-4.6936,-4.6476,-4.6025,-6.6829,-6.6443,-6.6082,-6.5416,-6.5219,-6.5184,-6.5141,-6.4497,-6.4151,-6.5017,-6.4675,-6.4088,-6.3716,-6.3414,-6.2327,-5.9574,-5.7368,-5.5917,-5.5684,-5.5791,-5.621,-5.7063,-5.6907,0.0,0.0,0.0,0.0,0.0,0.0,0.0,-6.0248,-6.0132,-6.0055,-6.0074,-6.0074,-5.9814,-5.9272,-5.929,-5.9327,-5.9346,-5.9327,-5.9419,-5.965,-5.977,-5.9915,-6.0099,-6.006,-5.972,-5.9094,-5.808,-5.7468,-5.7078,-5.6226,-5.6426,-5.7178,-5.7041,-5.6575,-5.5915,-5.5296,-5.5354,-5.5556,-5.4541,-5.4842,-5.5225,-5.3281,-5.3065,-5.3155,-5.1635,-5.1202,-5.1202,-5.1202,-5.1208,-5.1363,-5.196,-5.1649,-5.1423,-5.2227,-5.2356,-5.2613,-5.3635,-5.4335,-5.5009,-5.5885,-5.5987,-5.5961,-5.5989,-5.5072,-5.4396,-5.4424,-5.3469,-5.288,-5.3091,-5.2928,-5.2758,-5.2703,-5.2177,-5.1801,-5.1693,-5.1132,-5.0801,-5.0801,-5.0829,-5.0784,-5.0682,-5.0462,-4.9923,-4.9067,-4.8231,-4.7394,-4.6586,-4.5956,-4.5648,-6.6732,-6.6098,-6.5469,-6.5403,-6.5277,-6.52,-6.5192,-6.452,-6.4151,-6.5025,-6.5141,-6.4653,-6.3155,-6.1679,-5.9767,-5.7005,-5.6258,-5.5952,-5.5817,0.0,-5.439,-5.5203,-5.516,0.0,0.0,0.0,0.0,0.0,0.0,0.0,-5.9252,-5.9114,-5.9034,-5.9097,-5.9097,-5.9137,-5.9215,-5.9272,-5.9364,-5.9475,-5.9346,-5.9474,-5.9774,-5.9668,-5.9801,-6.0061,-5.9333,-5.9059,-5.8975,-5.7365,-5.7175,-5.7845,-5.7026,-5.6912,-5.7101,-5.6367,-5.6045,-5.5993,-5.5935,-5.547,-5.5004,-5.5769,-5.4997,-5.3771,-5.3631,-5.3092,-5.2315,-5.1455,-5.1202,-5.1202,-5.1202,-5.1206,-5.1197,-5.1266,-5.1241,-5.1423,-5.2227,-5.2389,-5.286,-5.4493,-5.4854,-5.513,-5.5943,-5.609,-5.6065,-5.6012,-5.4577,-5.3524,-5.3586,-5.2069,-5.1318,-5.2194,-5.1509,-5.0957,-5.0884,-5.0845,-5.0807,-5.0797,-5.0804,-5.0801,-5.0801,-5.0855,-5.0793,-5.0616,-4.9922,-4.9086,-4.8097,-4.7347,-4.6547,-4.5691,-4.5633,-4.5594,-6.672,-6.6458,-6.6195,-6.6165,-6.5706,-6.5142,-6.4671,-6.3893,-6.3375,-6.3709,-6.3339,-6.262,-6.1502,-6.0363,-5.8871,-5.6651,-5.5676,-5.4931,-5.4216,-5.3993,-5.3982,-5.4187,0.0,0.0,0.0,0.0,0.0,0.0,0.0,0.0,-5.9044,-5.8961,-5.892,-5.8941,-5.8941,-5.9021,-5.9196,-5.9215,-5.9272,-5.9383,-5.9327,-5.942,-5.9618,-5.965,-5.9798,-6.0003,-5.9291,-5.8725,-5.8307,-5.771,-5.7379,-5.7236,-5.7066,-5.6731,-5.6348,-5.6105,-5.5995,-5.5935,-5.5432,-5.5374,-5.5526,-5.544,-5.5307,-5.5128,-5.466,-5.3934,-5.3091,-5.2199,-5.16,-5.1194,-5.1197,-5.1203,-5.1208,-5.1197,-5.1192,-5.1284,-5.1598,-5.2059,-5.2757,-5.3927,-5.4573,-5.5171,-5.6021,-5.6133,-5.609,-5.6073,-5.4581,-5.3462,-5.3498,-5.1965,-5.1001,-5.1343,-5.1067,-5.085,-5.0833,-5.0827,-5.0829,-5.0829,-5.0846,-5.0846,-5.0801,-5.0819,-5.0552,-4.9922,-4.9567,-4.8693,-4.7328,-4.6982,-4.6405,-4.5594,-4.5594,-4.5594,-6.6668,-6.6306,-6.5942,-6.6188,-6.5598,-6.4816,-6.4322,-6.3501,-6.2874,-6.2894,-6.2009,-6.0971,-6.0143,-5.9282,-5.8102,-5.625,-5.503,-5.396,-5.2935,-5.3207,-5.3482,0.0,0.0,0.0,0.0,0.0,0.0,0.0,0.0,0.0,0.0,-5.8901,-5.8838,-5.8838,-5.8879,-5.898,-5.9139,-5.9177,-5.9234,-5.929,-5.9346,-5.942,-5.9493,-5.9614,-5.9784,-5.9925,-5.8957,-5.8273,-5.7821,-5.7666,-5.7289,-5.6848,-5.7037,-5.6618,-5.5905,-5.5979,-5.5995,-5.5915,-5.5374,-5.5556,-5.591,-5.5149,-5.5121,-5.5259,-5.4427,-5.3623,-5.2902,-5.2521,-5.185,-5.1273,-5.157,-5.1424,-5.1205,-5.1205,-5.12,-5.1203,-5.12,-5.1831,-5.2583,-5.3172,-5.4181,-5.5026,-5.5334,-5.5575,-5.5622,-5.5327,-5.4025,-5.3091,-5.3091,-5.1815,-5.0898,-5.0901,-5.0874,-5.0866,-5.0866,-5.0888,-5.0891,-5.0863,-5.0891,-5.0855,-5.0775,-5.0775,-5.0353,-4.9461,-4.9096,-4.8222,-4.6839,-4.6541,-4.6108,-4.5568,-4.5586,-4.5594,-6.6558,-6.548,-6.432,-6.5264,-6.482,-6.4189,-6.419,-6.3471,-6.2815,-6.2871,-6.155,-6.0115,-5.926,-5.8432,-5.7306,-5.5483,-5.4246,-5.3165,-5.2224,-5.2439,0.0,0.0,0.0,0.0,0.0,0.0,0.0,0.0,0.0,0.0,0.0,-5.8821,-5.8716,-5.8716,-5.8838,-5.8921,-5.8984,-5.9139,-5.9234,-5.929,-5.942,-5.9493,-5.9493,-5.9563,-5.9719,-5.9807,-5.8258,-5.7635,-5.7638,-5.6964,-5.6776,-5.6906,-5.7054,-5.6607,-5.5905,-5.5971,-5.6007,-5.5993,-5.6012,-5.6037,-5.597,-5.5149,-5.4359,-5.3547,-5.2692,-5.1843,-5.1383,-5.2253,-5.1875,-5.1419,-5.2348,-5.1891,-5.1211,-5.1211,-5.119,-5.1194,-5.1194,-5.1828,-5.2407,-5.2407,-5.3805,-5.4692,-5.3771,-5.4319,-5.4568,-5.363,-5.2771,-5.221,-5.219,-5.1428,-5.0901,-5.0908,-5.0846,-5.0801,-5.0782,-5.0855,-5.0863,-5.0782,-5.0836,-5.0819,-5.0701,-5.0701,-5.025,-4.9306,-4.851,-4.7626,-4.6685,-4.5898,-4.5504,-4.5504,-4.5568,-4.5594,-6.5753,-6.5453,-6.4997,-6.4603,-6.3896,-6.3288,-6.329,-6.3066,-6.2546,-6.1373,-6.0262,-5.9229,-5.8416,-5.806,-5.7105,-5.4674,-5.3876,-5.3016,-5.142,0.0,0.0,0.0,0.0,0.0,0.0,0.0,0.0,0.0,0.0,0.0,0.0,-5.8584,-5.8797,-5.8698,-5.8737,-5.882,-5.8921,-5.9022,-5.912,-5.9234,-5.9328,-5.9401,-5.9512,-5.9671,-5.9481,-5.8995,-5.8022,-5.7339,-5.6918,-5.6811,-5.6848,-5.6981,-5.7065,-5.6231,-5.5075,-5.574,-5.564,-5.5238,-5.5799,-5.6037,-5.597,-5.5149,-5.4747,-5.4401,-5.3566,-5.2717,-5.2102,-5.2403,-5.1869,-5.1263,-5.1609,-5.1444,-5.1215,-5.1254,-5.124,-5.1196,-5.1194,-5.1828,-5.2407,-5.2407,-5.33,-5.3993,-5.3722,-5.385,-5.3885,-5.3611,-5.2783,-5.197,-5.137,-5.1053,-5.0898,-5.0901,-5.0874,-5.0626,-5.0014,-4.9964,-4.9697,-4.9003,-4.8992,-4.9504,-5.0643,-5.0162,-4.9412,-4.8462,-4.7674,-4.6828,-4.5935,-4.5694,-4.555,-4.5504,-4.5568,-4.5577,-6.5316,-6.4948,-6.431,-6.3725,-6.3239,-6.2726,-6.2053,-6.1907,-6.1517,-6.0122,-5.9176,-5.8326,-5.7508,-5.7362,-5.6738,-5.4778,-5.4003,-5.3103,-5.1546,0.0,0.0,0.0,0.0,0.0,0.0,0.0,0.0,0.0,0.0,0.0,0.0,-5.8621,-5.8779,-5.8698,-5.8716,-5.8758,-5.8899,-5.8982,-5.9062,-5.9215,-5.9328,-5.9438,-5.9528,-5.9669,-5.9332,-5.86,-5.7596,-5.6984,-5.6658,-5.64,-5.6564,-5.6945,-5.6305,-5.547,-5.467,-5.5266,-5.5195,-5.4929,-5.5722,-5.5825,-5.5447,-5.4653,-5.4166,-5.3754,-5.2938,-5.2348,-5.2005,-5.2383,-5.1869,-5.1297,-5.1673,-5.1493,-5.122,-5.1276,-5.1254,-5.1206,-5.119,-5.1572,-5.2016,-5.2335,-5.3106,-5.3708,-5.3696,-5.3676,-5.3499,-5.3136,-5.231,-5.1529,-5.0964,-5.0909,-5.0901,-5.0898,-5.0565,-5.0135,-4.9644,-4.928,-4.8822,-4.8234,-4.8206,-4.864,-4.9633,-4.921,-4.8537,-4.7644,-4.7116,-4.6433,-4.5594,-4.5577,-4.5559,-4.5531,-4.5577,-4.5577,-6.5075,-6.4125,-6.2869,-6.2727,-6.268,-6.2268,-6.0742,-6.0276,-5.9915,-5.9068,-5.8248,-5.7443,-5.665,-5.6543,-5.6306,-5.5449,-5.441,-5.3339,-5.2257,-5.1882,0.0,0.0,0.0,0.0,0.0,0.0,0.0,0.0,0.0,0.0,0.0,-5.8728,-5.8716,-5.8716,-5.8716,-5.8758,-5.8899,-5.8962,-5.9062,0.0,-5.9383,-5.9511,-5.9562,-5.9616,-5.9209,-5.8423,-5.6997,-5.6505,-5.6628,-5.583,-5.6046,-5.6714,-5.5131,-5.4487,-5.4496,-5.4629,-5.4701,-5.4793,-5.5606,-5.5399,-5.4653,-5.3761,-5.2983,-5.224,-5.1443,-5.1202,-5.1363,-5.2155,-5.1816,-5.1375,-5.2178,-5.1789,-5.122,-5.1284,-5.1239,-5.1206,-5.1206,-5.1205,-5.1411,-5.2141,-5.2931,-5.3469,-5.3476,-5.3469,-5.3165,-5.2309,-5.1511,-5.0971,-5.0914,-5.0835,-5.0781,-5.0801,-5.0022,-4.9476,-4.9373,-4.8704,-4.8199,-4.8002,-4.7964,-4.7938,-4.7875,-4.7952,-4.7663,-4.6904,-4.6771,-4.6329,-4.5594,-4.555,-4.555,-4.5586,-4.5594,-4.5594,-6.4354,-6.3658,-6.2737,-6.2031,-6.1393,-6.0834,-6.0488,-5.9345,-5.8291,-5.8103,-5.7382,-5.6741,-5.6597,-5.6541,-5.6259,-5.5427,-5.4448,-5.3401,-5.2324,0.0,0.0,0.0,0.0,0.0,0.0,0.0,0.0,0.0,0.0,0.0,-5.7098,-5.8231,-5.8818,-5.8698,-5.8716,-5.8758,-5.8899,-5.892,-5.8961,0.0,-5.9196,-5.929,-5.9383,-5.9634,-5.9057,-5.7733,-5.6172,-5.5588,-5.5772,-5.5581,-5.5689,-5.5887,-5.4897,-5.412,-5.3658,-5.4361,-5.4261,-5.3904,-5.4755,-5.4943,-5.4557,-5.3063,-5.2504,-5.224,-5.1443,-5.1202,-5.1247,-5.1436,-5.135,-5.1238,-5.1434,-5.1332,-5.121,-5.122,-5.1201,-5.12,-5.12,-5.1197,-5.1247,-5.1416,-5.161,-5.1746,-5.1734,-5.1696,-5.1587,-5.1398,-5.1114,-5.0941,-5.0971,-5.038,-4.9962,-4.9958,-4.9788,-4.9107,-4.7759,-4.8033,-4.7711,-4.6326,-4.6235,-4.6219,-4.6133,-4.6797,-4.7077,-4.6904,-4.6212,-4.5769,-4.5594,-4.5586,-4.5559,-4.5513,-4.5577,-4.5568,-6.412,-6.321,-6.2182,-6.176,-6.072,-5.9788,-5.9825,-5.8483,-5.7234,-5.7239,-5.6857,-5.6558,-5.6543,-5.6514,-5.636,-5.5931,-5.4726,-5.3476,-5.2407,0.0,0.0,0.0,0.0,0.0,0.0,0.0,0.0,0.0,0.0,-5.6855,-5.7211,-5.823,-5.8758,-5.8698,-5.8716,-5.8737,-5.8799,-5.8859,-5.892,-5.8942,-5.9119,-5.929,-5.9436,-5.8923,-5.8296,-5.7511,-5.5965,-5.5365,-5.5504,-5.5504,-5.5573,-5.5579,-5.4388,-5.3677,-5.3349,-5.3849,-5.3535,-5.3053,-5.4349,-5.4249,-5.3429,-5.2579,-5.2064,-5.1716,-5.132,-5.1202,-5.1202,-5.12,-5.1206,-5.1192,-5.1203,-5.0886,-5.0575,-5.0586,-5.0903,-5.1194,-5.1194,-5.1197,-5.1317,-5.1688,-5.1766,-5.1901,-5.2329,-5.2025,-5.1574,-5.1153,-5.0692,-5.0366,-5.0385,-4.9621,-4.9243,-4.9668,-4.9305,-4.8663,-4.7759,-4.7677,-4.7097,-4.5778,-4.5703,-4.5676,-4.5648,-4.6082,-4.6305,-4.6278,-4.5825,-4.5594,-4.5594,-4.5594,-4.5577,-4.5559,-4.5577,-4.5577,-6.391,-6.2771,-6.158,-6.1507,-6.0273,-5.9076,-5.9,-5.7732,-5.6599,-5.6597,-5.6599,-5.6582,-5.6518,-5.6502,-5.6499,-5.6508,-5.5044,-5.359,-5.2696,0.0,0.0,0.0,0.0,0.0,0.0,0.0,0.0,0.0,0.0,-5.6837,-5.7623,-5.8191,-5.857,-5.8716,-5.8716,-5.8716,-5.8737,-5.8818,-5.8879,-5.8899,-5.908,-5.9253,-5.9351,-5.8037,-5.7506,-5.7496,-5.5998,-5.5396,-5.548,-5.5492,-5.5585,-5.5551,-5.3927,-5.3321,-5.331,-5.3219,-5.276,-5.2422,-5.3846,-5.3401,-5.2179,-5.2126,-5.1643,-5.1114,-5.1178,-5.1086,-5.0989,-5.0989,-5.0872,-5.0755,-5.0755,-5.0212,-4.9673,-4.9673,-5.0331,-5.097,-5.097,-5.1086,-5.1411,-5.2063,-5.2193,-5.2426,-5.3145,-5.2542,-5.1709,-5.0985,-5.0112,-4.9588,-4.9695,-4.8943,-4.874,-4.961,-4.8864,-4.8269,-4.8114,-4.7426,-4.6653,-4.5764,-4.5727,-4.5708,-4.5698,-4.569,-4.5673,-4.5622,-4.5614,-4.5594,-4.5594,-4.5594,-4.5594,-4.5594,-4.5594,-4.5614,-6.3066,-6.2356,-6.1439,-6.0756,-5.9831,-5.8916,-5.8239,-5.7302,-5.66,-5.6601,-5.6601,-5.6582,-5.6517,-5.6502,-5.6499,-5.6508,-5.5036,-5.3828,0.0,0.0,0.0,0.0,0.0,0.0,0.0,0.0,0.0,0.0,-5.4952,-5.5995,-5.6725,-5.7393,-5.8036,-5.8679,-5.8716,-5.8758,-5.8859,-5.8779,-5.8797,-5.8899,-5.8982,-5.8859,-5.8523,-5.764,-5.7349,-5.7407,-5.5836,-5.5242,-5.542,-5.548,-5.5607,-5.5633,-5.3957,-5.334,-5.3305,-5.2552,-5.2247,-5.2229,-5.248,-5.2384,-5.2102,-5.146,-5.1197,-5.1114,-5.1178,-5.0678,-5.0081,-5.0081,-4.9532,-4.8949,-4.8949,-4.8852,-4.8774,-4.8774,-4.944,-5.0068,-5.0068,-5.0664,-5.1227,-5.1338,-5.1358,-5.1396,-5.1513,-5.0751,-5.0112,-4.9995,-4.9181,-4.8863,-4.9599,-4.8943,-4.874,-4.961,-4.8906,-4.8075,-4.732,-4.7146,-4.6699,-4.5831,-4.5791,-4.5757,-4.57,-4.57,-4.5695,-4.5693,-4.5631,-4.5594,-4.5594,-4.5594,-4.5594,-4.5594,-4.5594,-4.5631,-6.2292,-6.1896,-6.1412,-6.0609,-5.9736,-5.8895,-5.8085,-5.7226,-5.6601,-5.6601,-5.6599,-5.6573,-5.6504,-5.6101,-5.5767,-5.5773,-5.4313,-5.298,0.0,0.0,0.0,0.0,0.0,0.0,0.0,0.0,0.0,0.0,-5.5038,-5.5674,-5.5958,-5.7021,-5.7722,-5.8029,-5.8475,-5.8737,-5.8779,-5.8737,-5.8557,-5.8271,-5.7884,-5.7696,-5.7654,-5.6887,-5.6402,-5.6121,-5.5445,-5.5014,-5.4798,-5.4821,-5.4913,-5.4898,-5.3234,-5.2617,-5.2633,-5.2243,-5.1832,-5.1544,-5.2028,-5.1873,-5.1417,-5.1148,-5.106,-5.101,-5.0558,-5.0181,-4.9809,-4.9304,-4.8891,-4.8599,-4.8599,-4.825,-4.7881,-4.7881,-4.8153,-4.858,-4.9066,-5.0231,-5.1202,-5.1202,-5.1202,-5.1047,-5.0561,-5.053,-5.0421,-4.9922,-4.9479,-4.9316,-4.9704,-4.895,-4.8546,-4.8933,-4.8624,-4.8043,-4.7173,-4.7096,-4.6733,-4.5865,-4.5805,-4.5771,-4.5708,-4.5708,-4.5703,-4.5701,-4.564,-4.5594,-4.5594,-4.5594,-4.5594,-4.5594,-4.564,-4.5665,-6.1787,-6.1591,-6.135,-6.0322,-5.9581,-5.8835,-5.7792,-5.7245,-5.6873,-5.664,-5.6771,-5.6836,-5.655,-5.5797,-5.5193,-5.5193,-5.3744,0.0,0.0,0.0,0.0,0.0,0.0,0.0,0.0,0.0,0.0,0.0,-5.4877,-5.5386,-5.5506,-5.6687,-5.7389,-5.7531,-5.8289,-5.8716,-5.8716,-5.8512,-5.8094,-5.749,-5.6949,-5.6719,-5.6767,-5.6002,-5.5208,-5.449,-5.4958,-5.4715,-5.3959,-5.4208,-5.426,-5.4061,-5.2589,-5.2058,-5.2084,-5.1865,-5.1415,-5.0995,-5.1641,-5.1447,-5.0906,-5.1005,-5.0905,-5.0642,-5.0028,-4.9553,-4.9104,-4.8444,-4.8114,-4.7939,-4.7933,-4.7462,-4.6976,-4.6976,-4.7151,-4.7598,-4.8696,-5.0134,-5.1202,-5.1202,-5.1027,-5.0658,-5.0004,-5.025,-5.0328,-4.9662,-4.9511,-4.955,-4.9756,-4.9151,-4.874,-4.874,-4.8527,-4.8043,-4.7173,-4.6902,-4.6489,-4.5841,-4.5812,-4.5778,-4.5719,-4.5715,-4.5692,-4.5698,-4.5657,-4.5622,-4.5594,-4.5594,-4.5594,-4.5594,-4.5676,-4.5709,-6.1607,-6.1603,-6.1212,-5.9563,-5.9136,-5.8664,-5.7031,-5.7265,-5.7595,-5.6775,-5.7261,-5.7564,-5.6669,-5.5797,-5.5193,-5.5193,-5.3796,0.0,0.0,0.0,0.0,0.0,0.0,0.0,0.0,0.0,0.0,0.0,-5.3755,-5.485,-5.5555,-5.6276,-5.6947,-5.7576,-5.8312,-5.8716,-5.8716,-5.7955,-5.7257,-5.6668,-5.6612,-5.6366,-5.5937,-5.5053,-5.3974,-5.2816,-5.4409,-5.4281,-5.3034,-5.3936,-5.3936,-5.3282,-5.2424,-5.2103,-5.202,-5.1249,-5.0937,-5.0917,-5.0956,-5.0937,-5.0914,-5.1053,-5.0538,-4.9873,-4.9883,-4.8735,-4.7434,-4.737,-4.6773,-4.6152,-4.6144,-4.6094,-4.6075,-4.6075,-4.6696,-4.7769,-4.9473,-5.0542,-5.1202,-5.1202,-5.0522,-4.9945,-4.9906,-4.924,-4.873,-4.8662,-4.86,-4.8839,-4.9606,-4.9659,-4.9629,-4.9629,-4.8894,-4.8043,-4.7173,-4.6348,-4.5845,-4.58,-4.5807,-4.58,-4.58,-4.5727,-4.5708,-4.57,-4.5698,-4.5657,-4.5594,-4.5594,-4.5594,-4.5594,-4.5676,-4.5706,-6.1583,-6.1182,-6.0496,-5.9385,-5.8708,-5.8021,-5.6855,-5.7265,-5.7654,-5.6775,-5.7258,-5.7581,-5.6715,-5.5352,-5.4549,-5.5115,0.0,0.0,0.0,0.0,0.0,0.0,0.0,0.0,0.0,0.0,0.0,0.0,0.0,-5.4585,-5.4766,-5.5938,-5.661,-5.6651,-5.7489,-5.7676,-5.7156,-5.632,-5.5842,-5.5753,-5.523,-5.5053,-5.5088,-5.4239,-5.3387,-5.2625,-5.3269,-5.3028,-5.2222,-5.2565,-5.2583,-5.2328,-5.152,-5.123,-5.1233,-5.0932,-5.0858,-5.0898,-5.0898,-5.0898,-5.0809,-5.0347,-5.0014,-4.9602,-4.8559,-4.7794,-4.7173,-4.6613,-4.6208,-4.5947,-4.5991,-4.596,-4.5955,-4.5991,-4.6668,-4.7476,-4.8094,-4.893,-4.9532,-4.9532,-4.9279,-4.9066,-4.9066,-4.926,-4.9435,-4.9423,-4.9374,-4.944,-4.9718,-4.9238,-4.868,-4.8157,-4.7787,-4.7212,-4.6348,-4.5981,-4.5807,-4.5807,-4.5807,-4.5793,-4.581,-4.5781,-4.5731,-4.5708,-4.5692,-4.5671,-4.5594,-4.5635,-4.5662,-4.5676,-4.573,-4.575,-6.1218,-6.074,-6.0036,-5.8948,-5.8256,-5.7647,-5.6796,-5.7265,-5.7655,-5.6775,-5.7236,-5.7558,-5.6714,-5.5331,-5.4426,-5.4716,0.0,0.0,0.0,0.0,0.0,0.0,0.0,0.0,0.0,0.0,0.0,0.0,0.0,0.0,-5.4743,-5.592,-5.659,-5.6572,-5.6852,-5.6651,-5.5874,-5.5299,-5.4968,-5.4875,-5.4352,-5.4171,-5.4236,-5.3421,-5.2735,-5.2201,-5.1986,-5.1694,-5.1393,-5.1677,-5.1681,-5.1453,-5.0923,-5.0767,-5.0819,-5.0836,-5.0858,-5.0898,-5.0898,-5.0898,-5.077,-4.9964,-4.9528,-4.9078,-4.7707,-4.7072,-4.6704,-4.615,-4.5953,-4.5917,-4.5955,-4.5955,-4.5949,-4.596,-4.6435,-4.6851,-4.6851,-4.7784,-4.8605,-4.8591,-4.8605,-4.8508,-4.8241,-4.8896,-4.9363,-4.9066,-4.9211,-4.9362,-4.9362,-4.88,-4.81,-4.7287,-4.7143,-4.6748,-4.5865,-4.5807,-4.5807,-4.5807,-4.5807,-4.5793,-4.581,-4.5795,-4.5773,-4.5731,-4.5723,-4.5692,-4.5637,-4.5676,-4.5692,-4.5706,-4.5777,-4.5795,0.0,0.0,0.0,-5.8214,-5.7775,-5.7563,-5.6773,-5.7265,-5.7656,-5.6776,-5.7237,-5.7535,-5.6628,-5.5764,-5.4905,-5.4047,0.0,0.0,0.0,0.0,0.0,0.0,0.0,0.0,0.0,0.0,0.0,0.0,-5.3124,-5.4056,-5.5542,-5.6218,-5.6815,-5.7416,-5.6535,-5.57,-5.4983,-5.4983,-5.467,-5.4091,-5.409,-5.3834,-5.3371,-5.2617,-5.1945,-5.1364,-5.0624,-5.0371,-5.0568,-5.1408,-5.1336,-5.0701,-5.0775,-5.0846,-5.0908,-5.0901,-5.0898,-5.0898,-5.0898,-5.0879,-5.0732,-4.9933,-4.9069,-4.823,-4.7481,-4.6608,-4.5917,-4.5986,-4.5955,-4.5911,-4.5911,-4.5955,-4.5986,-4.5917,-4.5958,-4.6002,-4.6002,-4.7337,-4.8513,-4.8515,-4.8519,-4.828,-4.7524,-4.8033,-4.8289,-4.7453,-4.7988,-4.8469,-4.8469,-4.8393,-4.8023,-4.7255,-4.7105,-4.6716,-4.5865,-4.5807,-4.5807,-4.5807,-4.5807,-4.5807,-4.5807,-4.581,-4.5807,-4.5807,-4.5807,-4.5773,-4.5708,-4.5708,-4.5708,-4.5708,-4.5773,-4.5791,-6.0203,0.0,0.0,0.0,0.0,0.0,-5.6632,-5.7262,-5.7656,-5.6777,-5.7239,-5.7361,-5.5905,-5.5405,-5.4904,-5.4047,0.0,0.0,0.0,0.0,0.0,0.0,0.0,0.0,0.0,0.0,0.0,0.0,-5.2919,-5.3594,-5.3884,-5.4839,-5.5465,-5.5689,-5.5404,-5.4865,-5.4147,-5.4242,-5.4187,-5.4019,-5.3599,-5.3357,-5.3276,-5.2004,-5.1432,-5.1364,-5.0624,-5.0371,-5.053,-5.0813,-5.0836,-5.0701,-5.072,-5.0793,-5.0899,-5.0897,-5.0893,-5.0898,-5.0898,-5.0511,-4.9908,-4.9083,-4.8237,-4.7397,-4.6595,-4.6131,-4.5899,-4.5911,-4.5918,-4.5899,-4.5905,-4.5955,-4.5991,-4.5986,-4.5994,-4.6002,-4.6002,-4.639,-4.6721,-4.6726,-4.6726,-4.6857,-4.727,-4.7517,-4.7784,-4.8172,-4.7889,-4.7631,-4.7631,-4.7078,-4.6589,-4.6356,-4.6267,-4.6126,-4.5886,-4.5867,-4.5841,-4.5807,-4.5847,-4.5854,-4.5807,-4.5793,-4.5812,-4.5812,-4.5812,-4.5786,-4.5771,-4.5771,-4.5776,-4.5773,-4.5791,-4.5483,-5.9613,-5.8596,-5.7534,-5.7271,0.0,0.0,-5.6556,-5.696,-5.7204,-5.6699,-5.6677,-5.6451,-5.5478,-5.4942,-5.4603,-5.4463,0.0,0.0,0.0,0.0,0.0,0.0,0.0,0.0,0.0,-5.1411,-5.1603,-5.1837,-5.2641,-5.3566,-5.4614,-5.5193,-5.5499,-5.554,-5.4791,-5.4216,-5.3813,-5.3888,-5.3796,-5.3534,-5.3206,-5.2792,-5.2275,-5.1466,-5.1009,-5.085,-5.0429,-5.0348,-5.05,-5.0532,-5.0605,-5.0701,-5.0701,-5.0766,-5.0855,-5.0891,-5.0665,-5.036,-5.0395,-4.9861,-4.9018,-4.819,-4.7584,-4.7042,-4.6215,-4.5918,-4.5906,-4.5905,-4.5925,-4.5938,-4.5912,-4.5955,-4.5994,-4.5997,-4.6,-4.6002,-4.6002,-4.6002,-4.6002,-4.6037,-4.6318,-4.6604,-4.677,-4.707,-4.7356,-4.7492,-4.7084,-4.6754,-4.6754,-4.6305,-4.5997,-4.5997,-4.5949,-4.5899,-4.5899,-4.5899,-4.5873,-4.5835,-4.5874,-4.5886,-4.5847,-4.5814,-4.5807,-4.5807,-4.5807,-4.5807,-4.5807,-4.5807,-4.5793,-4.5791,-4.5793,-4.5548,-5.8823,-5.8046,-5.7274,-5.6568,-5.6433,0.0,-5.6503,-5.6554,-5.6593,-5.6601,-5.5976,-5.5404,-5.5326,-5.4684,-5.4374,0.0,0.0,0.0,0.0,0.0,0.0,0.0,0.0,0.0,-5.1444,-5.1371,-5.1513,-5.2029,-5.2449,-5.3783,-5.6292,-5.6181,-5.6024,-5.6023,-5.4514,-5.3698,-5.3683,-5.3702,-5.3386,-5.2747,-5.2757,-5.21,-5.0904,-5.0965,-5.0662,-5.0108,-5.0194,-5.0325,-5.05,-5.05,-5.0585,-5.0701,-5.0701,-5.0671,-5.0647,-5.0728,-5.0204,-4.9478,-4.9537,-4.8972,-4.8121,-4.7354,-4.7085,-4.69,-4.6132,-4.5899,-4.5899,-4.5905,-4.5949,-4.598,-4.5925,-4.596,-4.5997,-4.6008,-4.6,-4.6002,-4.6002,-4.6002,-4.6026,-4.6071,-4.6673,-4.6934,-4.6207,-4.6673,-4.689,-4.6118,-4.6002,-4.6002,-4.6002,-4.6,-4.6003,-4.6003,-4.5955,-4.5917,-4.5917,-4.5917,-4.5917,-4.5905,-4.5899,-4.59,-4.5893,-4.5821,-4.5807,-4.5807,-4.5807,-4.5807,-4.5807,-4.5807,-4.5807,-4.5807,-4.5807,-4.5742,-5.7761,-5.7033,-5.646,-5.6356,-5.6369,0.0,-5.6494,-5.6514,-5.653,-5.6593,-5.6426,-5.6069,-5.5412,-5.5684,-5.558,0.0,0.0,0.0,0.0,0.0,0.0,0.0,0.0,0.0,-5.2355,-5.2898,-5.3201,-5.3103,-5.3248,-5.3728,-5.4644,-5.454,-5.441,-5.4296,-5.3961,-5.3478,-5.2847,-5.2994,-5.2639,-5.1764,-5.1464,-5.1148,-5.0809,-5.0461,-5.0222,-5.0108,-5.0231,-5.0359,-5.05,-5.05,-5.0585,-5.0701,-5.0701,-5.0305,-4.9759,-4.9821,-4.9296,-4.8551,-4.8628,-4.8082,-4.7335,-4.7208,-4.6686,-4.6053,-4.5951,-4.586,-4.5834,-4.588,-4.5912,-4.5923,-4.5974,-4.5989,-4.5997,-4.5991,-4.5997,-4.6002,-4.6002,-4.6002,-4.6002,-4.6026,-4.6157,-4.6196,-4.6046,-4.6157,-4.6196,-4.6041,-4.6002,-4.6002,-4.6002,-4.5997,-4.5991,-4.5991,-4.5986,-4.5975,-4.5991,-4.5989,-4.5953,-4.5893,-4.5906,-4.5874,-4.5821,-4.5807,-4.5807,-4.5807,-4.5807,-4.5807,-4.5807,-4.5807,-4.5807,-4.5807,-4.5807,-4.5418,-5.7419,-5.672,-5.6163,-5.624,-5.6294,0.0,0.0,-5.6478,-5.6408,-5.603,-5.5912,-5.5508,-5.4233,0.0,-5.481,0.0,0.0,0.0,0.0,0.0,0.0,0.0,0.0,0.0,-5.3254,-5.3629,-5.3862,-5.3889,-5.4145,-5.4492,-5.4933,-5.4816,-5.4689,-5.4541,-5.3684,-5.307,-5.2642,-5.2325,-5.1763,-5.0992,-5.0826,-5.0598,-5.035,-5.0155,-5.0095,-5.0139,-5.0231,-5.0348,-5.0462,-5.004,-4.9931,-5.0048,-5.0048,-4.9816,-4.94,-4.9073,-4.8395,-4.7669,-4.7731,-4.7173,-4.6464,-4.6485,-4.6221,-4.5854,-4.5854,-4.5854,-4.5764,-4.5409,-4.5304,-4.5217,-4.4802,-4.5043,-4.5394,-4.5394,-4.571,-4.6002,-4.6002,-4.6002,-4.6002,-4.6002,-4.6002,-4.6002,-4.6002,-4.6032,-4.6037,-4.6002,-4.6002,-4.6002,-4.6002,-4.6002,-4.6002,-4.6002,-4.6002,-4.5997,-4.6,-4.5991,-4.598,-4.5955,-4.5917,-4.5873,-4.5841,-4.5827,-4.5807,-4.5807,-4.5807,-4.5793,-4.5798,-4.5798,-4.5798,-4.5798,-4.5798,-4.5544,-5.7091,-5.6499,-5.6101,-5.63,-5.6317,-5.6283,0.0,0.0,0.0,-5.5467,0.0,0.0,0.0,0.0,0.0,0.0,0.0,0.0,0.0,0.0,0.0,0.0,0.0,0.0,0.0,-5.4312,-5.448,-5.4677,-5.499,-5.5284,-5.5508,-5.5349,-5.5209,-5.5062,-5.3534,-5.264,-5.249,-5.1637,-5.0887,-5.0298,-5.0375,-5.0237,-4.9893,-4.9992,-5.0,-4.9959,-4.9983,-5.0,-4.9963,-4.9254,-4.9047,-4.9144,-4.9144,-4.9048,-4.8846,-4.8251,-4.7494,-4.6769,-4.6834,-4.6387,-4.5807,-4.5807,-4.5847,-4.586,-4.5814,-4.5847,-4.5699,-4.4918,-4.4696,-4.4505,-4.3638,-4.4111,-4.4792,-4.4792,-4.5419,-4.6026,-4.6002,-4.6007,-4.6026,-4.6002,-4.6007,-4.6026,-4.6002,-4.6037,-4.6066,-4.6032,-4.6002,-4.6002,-4.6026,-4.6002,-4.6002,-4.6002,-4.6002,-4.6002,-4.6002,-4.6002,-4.5997,-4.5991,-4.5947,-4.5911,-4.5899,-4.5848,-4.5814,-4.5807,-4.5807,-4.5786,-4.5773,-4.5773,-4.5773,-4.5773,-4.5773,-4.575,-5.6047,-5.5904,-5.6076,-5.6734,-5.6554,-5.62,-5.6149,0.0,-5.6199,-5.5443,0.0,0.0,0.0,0.0,0.0,0.0,0.0,0.0,0.0,0.0,0.0,0.0,0.0,0.0,0.0,0.0,-5.6011,-5.5758,-5.5498,-5.5229,-5.4924,-5.4606,-5.4385,-5.424,-5.3235,-5.2378,-5.1739,-5.0919,-5.0179,-4.9531,-4.9702,-4.984,-4.9893,-5.0031,-4.9733,-4.9139,-4.9198,-4.8879,-4.8286,-4.818,-4.8183,-4.8259,-4.8259,-4.7817,-4.7191,-4.7163,-4.6606,-4.5851,-4.5914,-4.5884,-4.5807,-4.5807,-4.5807,-4.5814,-4.5807,-4.5807,-4.5646,-4.4841,-4.464,-4.4502,-4.3632,-4.4111,-4.4792,-4.4792,-4.5454,-4.6071,-4.6007,-4.6056,-4.6066,-4.6007,-4.6061,-4.6066,-4.6007,-4.6002,-4.6032,-4.6071,-4.6037,-4.6026,-4.6071,-4.6037,-4.6002,-4.6002,-4.6002,-4.6002,-4.6002,-4.6002,-4.6011,-4.6003,-4.5997,-4.5968,-4.5906,-4.59,-4.586,-4.5807,-4.5807,-4.5771,-4.5715,-4.5715,-4.5715,-4.5715,-4.5715,-4.5711,-5.7054,-5.6842,-5.6867,-5.7011,-5.6792,-5.6372,-5.5636,-5.5538,-5.5385,0.0,0.0,0.0,0.0,0.0,0.0,0.0,-5.4104,0.0,0.0,0.0,0.0,0.0,0.0,0.0,0.0,0.0,0.0,0.0,0.0,-5.5921,-5.4981,-5.5145,-5.498,-5.4306,-5.2927,-5.2032,-5.1729,-5.037,-4.9629,-4.951,-4.9648,-4.9575,-4.9328,-4.9416,-4.9051,-4.8308,-4.8342,-4.8209,-4.796,-4.7452,-4.73,-4.7355,-4.6855,-4.6759,-4.6845,-4.642,-4.6008,-4.5715,-4.5778,-4.5807,-4.5807,-4.5807,-4.5807,-4.5807,-4.5807,-4.584,-4.5686,-4.4886,-4.4316,-4.3743,-4.2922,-4.3,-4.3413,-4.3938,-4.4715,-4.5473,-4.5949,-4.6071,-4.6095,-4.6066,-4.6071,-4.6095,-4.6066,-4.6061,-4.6042,-4.6037,-4.6026,-4.6007,-4.6037,-4.6026,-4.6002,-4.6002,-4.6002,-4.6002,-4.6002,-4.6002,-4.5997,-4.6005,-4.6008,-4.5943,-4.5854,-4.5847,-4.58,-4.5742,-4.5734,-4.5731,-4.5706,-4.5706,-4.5679,-4.5635,-4.5679,-4.5698,-5.7729,0.0,0.0,0.0,0.0,0.0,0.0,0.0,0.0,0.0,0.0,0.0,0.0,0.0,-5.3156,-5.2753,0.0,-5.4931,0.0,0.0,0.0,0.0,0.0,0.0,0.0,0.0,0.0,0.0,0.0,0.0,-5.5256,-5.5537,-5.5347,-5.4508,-5.2759,-5.183,-5.183,-5.0116,-4.9371,-4.9638,-4.9721,-4.9454,-4.8909,-4.897,-4.8418,-4.7444,-4.7444,-4.7386,-4.7251,-4.6608,-4.6417,-4.649,-4.5845,-4.599,-4.6479,-4.591,-4.57,-4.5715,-4.5783,-4.58,-4.5807,-4.5807,-4.5807,-4.5807,-4.5807,-4.5821,-4.5719,-4.4924,-4.4075,-4.3206,-4.2418,-4.2194,-4.2427,-4.3297,-4.4171,-4.5045,-4.5906,-4.6105,-4.611,-4.611,-4.611,-4.611,-4.611,-4.6105,-4.6076,-4.6022,-4.6012,-4.6002,-4.6032,-4.6007,-4.6002,-4.6002,-4.6002,-4.6002,-4.6002,-4.6002,-4.5991,-4.5975,-4.5966,-4.5918,-4.5807,-4.5793,-4.5776,-4.5708,-4.5708,-4.5695,-4.5665,-4.5665,-4.5648,-4.5594,-4.5648,-4.5665,0.0,0.0,0.0,-5.7634,0.0,0.0,0.0,0.0,-5.4459,0.0,0.0,0.0,0.0,-5.1986,-5.1756,-5.2575,-5.3394,0.0,0.0,0.0,0.0,0.0,0.0,0.0,0.0,0.0,0.0,0.0,0.0,0.0,-5.5681,-5.5269,-5.4943,-5.4707,-5.2884,-5.1909,-5.1912,-5.0225,-4.951,-4.9692,-4.983,-4.9542,-4.8909,-4.897,-4.8094,-4.6538,-4.6538,-4.6143,-4.5477,-4.5438,-4.5524,-4.5633,-4.5614,-4.5614,-4.5652,-4.5684,-4.5706,-4.5715,-4.5773,-4.5791,-4.5807,-4.5807,-4.5807,-4.5807,-4.5807,-4.5807,-4.5646,-4.4918,-4.4077,-4.3216,-4.2413,-4.2194,-4.2427,-4.3297,-4.4171,-4.5045,-4.5906,-4.6099,-4.6093,-4.6093,-4.6093,-4.6093,-4.6093,-4.6095,-4.6105,-4.6089,-4.6032,-4.6032,-4.6095,-4.6037,-4.6002,-4.6002,-4.6002,-4.6002,-4.6002,-4.6002,-4.5975,-4.5917,-4.5899,-4.5867,-4.5807,-4.581,-4.5765,-4.5708,-4.5708,-4.5668,-4.5594,-4.5594,-4.5594,-4.5594,-4.5594,-4.5594,0.0,0.0,-5.8473,-5.8372,0.0,0.0,0.0,0.0,0.0,0.0,0.0,0.0,0.0,-5.316,-5.2679,-5.4185,-5.4159,-5.447,0.0,0.0,0.0,0.0,0.0,0.0,0.0,0.0,0.0,0.0,-5.6755,0.0,0.0,-5.5996,-5.549,-5.4073,-5.2817,-5.1869,-5.1242,-5.0176,-4.9433,-4.8964,-4.9111,-4.8504,-4.7255,-4.7312,-4.6746,-4.5698,-4.5759,-4.5629,-4.541,-4.5438,-4.5513,-4.5594,-4.5594,-4.5594,-4.5614,-4.5684,-4.569,-4.5714,-4.5785,-4.5791,-4.5807,-4.5807,-4.5807,-4.5807,-4.5807,-4.5821,-4.5815,-4.5563,-4.4482,-4.3341,-4.3112,-4.2209,-4.1704,-4.3161,-4.3724,-4.4331,-4.5788,-4.6089,-4.6102,-4.6154,-4.6177,-4.6177,-4.6177,-4.6173,-4.616,-4.6114,-4.6076,-4.6061,-4.6037,-4.6007,-4.6002,-4.6002,-4.6002,-4.6002,-4.6002,-4.6,-4.5966,-4.5899,-4.5906,-4.584,-4.5734,-4.5731,-4.5692,-4.5637,-4.5637,-4.562,-4.5594,-4.5594,-4.5594,-4.5594,-4.5648,-4.5676,-5.91,-5.9119,0.0,-5.8639,-5.8543,0.0,-5.6913,0.0,-5.5593,0.0,0.0,0.0,0.0,-5.3687,-5.3385,-5.4562,-5.4341,-5.4492,0.0,-5.6352,0.0,0.0,0.0,-5.6484,0.0,0.0,0.0,-5.6444,-5.6885,0.0,0.0,0.0,-5.527,-5.3886,-5.257,-5.1565,-5.0929,-5.0232,-4.9468,-4.8636,-4.8795,-4.8005,-4.6393,-4.6468,-4.6061,-4.5307,-4.5359,-4.54,-4.541,-4.5457,-4.555,-4.5594,-4.5594,-4.5594,-4.5614,-4.5648,-4.5684,-4.5709,-4.5777,-4.5803,-4.5805,-4.58,-4.5807,-4.5807,-4.5807,-4.5821,-4.5867,-4.5899,-4.4909,-4.3807,-4.3553,-4.2442,-4.1723,-4.3161,-4.351,-4.3981,-4.571,-4.6117,-4.6154,-4.6185,-4.6193,-4.6201,-4.6201,-4.6201,-4.6185,-4.6099,-4.6105,-4.609,-4.6002,-4.6002,-4.6002,-4.6002,-4.5991,-4.598,-4.5969,-4.5953,-4.5931,-4.5867,-4.586,-4.5819,-4.5688,-4.5708,-4.5676,-4.5646,-4.5648,-4.564,-4.564,-4.564,-4.564,-4.564,-4.599,-4.6169]},{"header":{"parameterUnit":"m.s-1","parameterCategory":1,"la1":30.6,"la2":29.2853,"lo1":-89.7004,"lo2":-87.6739,"dy":0.0162,"dx":0.0183,"nx":112,"ny":82,"refTime":"2024-05-07T12:00:00:Z","depth":0,"parameterNumber":3,"parameterNumberName":"V-component_of_WINDS"},"data":[0.0,0.0,0.0,0.0,0.0,0.0,0.0,0.0,0.0,0.0,0.0,0.0,0.0,0.0,0.0,0.0,0.0,0.0,0.0,0.0,0.0,0.0,0.0,0.0,0.0,0.0,0.0,0.0,0.0,0.0,0.0,0.0,0.0,0.0,0.0,0.0,0.0,0.0,0.0,0.0,0.0,0.0,0.0,0.0,0.0,0.0,0.0,0.0,0.0,0.0,0.0,0.0,0.0,0.0,0.0,0.0,0.0,0.0,0.0,0.0,0.0,0.0,0.0,0.0,0.0,0.0,0.0,0.0,0.0,0.0,0.0,0.0,0.0,0.0,0.0,0.0,0.0,0.0,0.0,0.0,0.0,0.0,0.0,0.0,0.0,0.0,0.0,0.0,0.0,0.0,0.3489,0.3354,0.2821,0.2231,0.1441,0.1287,0.0372,-0.15,0.0,0.0,0.0,0.0,0.0,0.0,0.0,0.0,0.0,0.0,0.0,0.0,0.0,0.0,0.0,0.0,0.0,0.0,0.0,0.0,0.0,0.0,0.0,0.0,0.0,0.0,0.0,0.0,0.0,0.0,0.0,0.0,0.0,0.0,0.0,0.0,0.0,0.0,0.0,0.0,0.0,0.0,0.0,0.0,0.0,0.0,0.0,0.0,0.0,0.0,0.0,0.0,0.0,0.0,0.0,0.0,0.0,0.0,0.0,0.0,0.0,0.0,0.0,0.0,0.0,0.0,0.0,0.0,0.0,0.0,0.0,0.0,0.0,0.0,0.0,0.0,0.0,0.0,0.0,0.0,0.0,0.0,0.0,0.0,0.0,0.0,0.0,0.0,0.0,0.0,0.0,0.0,0.0,0.0,0.0,0.0,0.0,0.0,0.0,0.0,0.0,0.0,0.0,0.0,0.3245,0.2637,0.2548,0.2252,0.1745,0.1136,0.0222,-0.1057,0.0,0.0,0.0,0.0,0.0,0.0,0.0,0.0,0.0,0.0,0.0,0.0,0.0,0.0,0.0,0.0,0.0,0.0,0.0,0.0,0.0,0.0,0.0,0.0,0.0,0.0,0.0,0.0,0.0,0.0,0.0,0.0,0.0,0.0,0.0,0.0,0.0,0.0,0.0,0.0,0.0,0.0,0.0,0.0,0.0,0.0,0.0,0.0,0.0,0.0,0.0,0.0,0.0,0.0,0.0,0.0,0.0,0.0,0.0,0.0,0.0,0.0,0.0,0.0,0.0,0.0,0.0,0.0,0.0,0.0,0.0,0.0,0.0,0.0,0.0,0.0,0.0,0.0,0.0,0.0,0.0,0.0,0.0,0.0,0.0,0.0,0.0,0.0,0.0,0.0,0.0,0.0,0.0,0.0,0.0,0.0,0.0,0.0,0.0,0.0,0.0,0.0,0.0,0.3881,0.3364,0.2799,0.2556,0.234,0.1915,0.1368,0.0522,-0.0646,-0.2118,0.0,0.0,0.0,0.0,0.0,0.0,0.0,0.0,0.0,0.0,0.0,0.0,0.0,0.0,0.0,0.0,0.0,0.0,0.0,0.0,0.0,0.0,0.0,0.0,0.0,0.0,0.0,0.0,0.0,0.0,0.0,0.0,0.0,0.0,0.0,0.0,0.0,0.0,0.0,0.0,0.0,0.0,0.0,0.0,0.0,0.0,0.0,0.0,0.0,0.0,0.0,0.0,0.0,0.0,0.0,0.0,0.0,0.0,0.0,0.0,0.0,0.0,0.0,0.0,0.0,0.0,0.0,0.0,0.0,0.0,0.0,0.0,0.0,0.0,0.0,0.0,0.0,0.0,0.0,0.0,0.0,0.0,0.0,0.0,0.0,0.0,0.0,0.0,0.0,0.0,0.0,0.0,0.0,0.0,0.0,0.0,0.0,0.0,0.0,0.0,0.0,0.0,0.379,0.347,0.2953,0.2704,0.2494,0.2084,0.1602,0.0823,-0.0291,-0.1633,0.0,0.0,0.0,0.0,0.0,0.0,0.0,0.0,0.0,0.0,0.0,0.0,0.0,0.0,0.0,0.0,0.0,0.0,0.0,0.0,0.0,0.0,0.0,0.0,0.0,0.0,0.0,0.0,0.0,0.0,0.0,0.0,0.0,0.0,0.0,0.0,0.0,0.0,0.0,0.0,0.0,0.0,0.0,0.0,0.0,0.0,0.0,0.0,0.0,0.0,0.0,0.0,0.0,0.0,0.0,0.0,0.0,0.0,0.0,0.0,0.0,0.0,0.0,0.0,0.0,0.0,0.0,0.0,0.0,0.0,0.0,0.0,0.0,0.0,0.0,0.0,0.0,0.0,0.0,0.0,0.0,0.0,0.0,0.0,0.0,0.0,0.0,0.0,0.0,0.0,0.0,0.0,0.0,0.0,0.0,0.0,0.0,0.0,0.0,0.0,0.0,0.0,0.3836,0.3662,0.2572,0.2836,0.2858,0.247,0.1754,0.0969,0.0144,-0.1061,0.0,0.0,0.0,0.0,0.0,0.0,0.0,0.0,0.0,0.0,0.0,0.0,0.0,0.0,0.0,0.0,0.0,0.0,0.0,0.0,0.0,0.0,0.0,0.0,0.0,0.0,0.0,0.0,0.0,0.0,0.0,0.0,0.0,0.0,0.0,0.0,0.0,0.0,0.0,0.0,0.0,0.0,0.0,0.0,0.0,0.0,0.0,0.0,0.0,0.0,0.0,0.0,0.0,0.0,0.0,0.0,0.0,0.0,0.0,0.0,0.0,0.0,0.0,0.0,0.0,0.0,0.0,0.0,0.0,0.0,0.0,0.0,0.0,0.0,0.0,0.0,0.0,0.0,0.0,0.0,0.0,0.0,0.0,0.0,0.0,0.0,0.0,0.0,0.0,0.0,0.0,0.0,0.0,0.0,0.0,0.0,0.0,0.0,0.0,0.0,0.0,0.0,0.4128,0.3881,0.325,0.3139,0.3018,0.2884,0.216,0.1432,0.0871,0.0,0.0,0.0,0.0,0.0,0.0,0.0,0.0,0.0,0.0,0.0,0.0,0.0,0.0,0.0,0.0,0.0,0.0,0.0,0.0,0.0,0.0,0.0,0.0,0.0,0.0,0.0,0.0,0.0,0.0,0.0,0.0,0.0,0.0,0.0,0.0,0.0,0.0,0.0,0.0,0.0,0.0,0.0,0.0,0.0,0.0,0.0,0.0,0.0,0.0,0.0,0.0,0.0,0.0,0.0,0.0,0.0,0.0,0.0,0.0,0.0,0.0,0.0,0.0,0.0,0.0,0.0,0.0,0.0,0.0,0.0,0.0,0.0,0.0,0.0,0.0,0.0,0.0,0.0,0.0,0.0,0.0,0.0,0.0,0.0,0.0,0.0,0.0,0.0,0.0,0.0,0.0,0.0,0.0,0.0,0.0,0.0,0.0,0.0,0.0,0.0,0.0,0.443,0.4421,0.4112,0.3647,0.353,0.341,0.3136,0.2399,0.1739,0.1315,0.0,0.0,0.0,0.0,0.0,0.0,0.0,0.0,0.0,0.0,0.0,0.0,0.0,0.0,0.0,0.0,0.0,0.0,0.0,0.0,0.0,0.0,0.0,0.0,0.0,0.0,0.0,0.0,0.0,0.0,0.0,0.0,0.0,0.0,0.0,0.0,0.0,0.0,0.0,0.0,0.0,0.0,0.0,0.0,0.0,0.0,0.0,0.0,0.0,0.0,0.0,0.0,0.0,0.0,0.0,0.0,0.0,0.0,0.0,0.0,0.0,0.0,0.0,0.0,0.0,0.0,0.0,0.0,0.0,0.0,0.0,0.0,0.0,0.0,0.0,0.0,0.0,0.0,0.0,0.0,0.0,0.0,0.0,0.0,0.0,0.0,0.0,0.0,0.0,0.0,0.0,0.0,0.0,0.0,0.0,0.0,0.0,0.0,0.0,0.0,0.0,0.0,0.4066,0.4495,0.4499,0.3766,0.4085,0.395,0.3135,0.238,0.1723,0.0,0.0,0.0,0.0,0.0,0.0,0.0,0.0,0.0,0.0,0.0,0.0,0.0,0.0,0.0,0.0,0.0,0.0,0.0,0.0,0.0,0.0,0.0,0.0,0.0,0.0,0.0,0.0,0.0,0.0,0.0,0.0,0.0,0.0,0.0,0.0,0.0,0.0,0.0,0.0,0.0,0.0,0.0,0.0,0.0,0.0,0.0,0.0,0.0,0.0,0.0,0.0,0.0,0.0,0.0,0.0,0.0,0.0,0.0,0.0,0.0,0.0,0.0,0.0,0.0,0.0,0.0,0.0,0.0,0.0,0.0,0.0,0.0,0.0,0.0,0.0,0.0,0.0,0.0,0.0,0.0,0.0,0.0,0.0,0.0,0.0,0.0,0.0,0.0,0.0,0.0,0.0,0.0,0.0,0.0,0.0,0.0,0.0,0.0,0.0,0.0,0.0,0.0,0.4375,0.458,0.4574,0.4049,0.3861,0.3733,0.344,0.2759,0.2269,0.2119,0.0,0.0,0.0,0.0,0.0,0.0,0.0,0.0,0.0,0.0,0.0,0.0,0.0,0.0,0.0,0.0,0.0,0.0,0.0,0.0,0.0,0.0,0.0,0.0,0.0,0.0,0.0,0.0,0.0,0.0,0.0,0.0,0.0,0.0,0.0,0.0,0.0,0.0,0.0,0.0,0.0,0.0,0.0,0.0,0.0,0.0,0.0,0.0,0.0,0.0,0.0,0.0,0.0,0.0,0.0,0.0,0.0,0.0,0.0,0.0,0.0,0.0,0.0,0.0,0.0,0.0,0.0,0.0,0.0,0.0,0.0,0.0,0.0,0.0,0.0,0.0,0.0,0.0,0.0,0.0,0.0,0.0,0.0,0.0,0.0,0.0,0.0,0.0,0.0,0.0,0.0,0.0,0.0,0.0,0.0,0.0,0.0,0.0,0.0,0.0,0.0,0.0,0.4282,0.4866,0.4943,0.4409,0.4369,0.4161,0.3632,0.3035,0.2629,0.241,0.0,0.0,0.0,0.0,0.0,0.0,0.0,0.0,0.0,0.0,0.0,0.0,0.0,0.0,0.0,0.0,0.0,0.0,0.0,0.0,0.0,0.0,0.0,0.0,0.0,0.0,0.0,0.0,0.0,0.0,0.0,0.0,0.0,0.0,0.0,0.0,0.0,0.0,0.0,0.0,0.0,0.0,0.0,0.0,0.0,0.0,0.0,0.0,0.0,0.0,0.0,0.0,0.0,0.0,0.0,0.0,0.0,0.0,0.0,0.0,0.0,0.0,0.0,0.0,0.0,0.0,0.0,0.0,0.0,0.0,0.0,0.0,0.0,0.0,0.0,0.0,0.0,0.0,0.0,0.0,0.0,0.0,0.0,0.0,0.0,0.0,0.0,0.0,0.0,0.0,0.0,0.0,0.0,0.0,0.0,0.0,0.0,0.0,0.0,0.0,0.0,0.0,0.3921,0.5036,0.5585,0.4823,0.5057,0.4831,0.377,0.3214,0.2809,0.2408,0.0,0.0,0.0,0.0,0.0,0.0,0.0,0.0,0.0,0.0,0.0,0.0,0.0,0.0,0.0,0.0,0.0,0.0,0.0,0.0,0.0,0.0,0.0,0.0,0.0,0.0,0.0,0.0,0.0,0.0,0.0,0.0,0.0,0.0,0.0,0.0,0.0,0.0,0.0,0.0,0.0,0.0,0.0,0.0,0.0,0.0,0.0,0.0,0.0,0.0,0.0,0.0,0.0,0.0,0.0,0.0,0.0,0.0,0.0,0.0,0.495,0.0,0.0,0.0,0.0,0.0,0.0,0.0,0.0,0.0,0.0,0.0,0.0,0.0,0.0,0.0,0.0,0.0,0.0,0.0,0.0,0.0,0.0,0.0,0.0,0.0,0.0,0.0,0.0,0.0,0.0,0.0,0.0,0.0,0.0,0.0,0.0,0.0,0.0,0.0,0.0,0.0,0.3589,0.461,0.5055,0.4332,0.4299,0.4306,0.4043,0.3403,0.2957,0.2773,0.2561,0.0,0.0,0.0,0.0,0.0,0.0,0.0,0.0,0.0,0.0,0.0,0.0,0.0,0.0,0.0,0.0,0.0,0.0,0.0,0.0,0.0,0.0,0.0,0.0,0.0,0.0,0.0,0.0,0.0,0.0,0.0,0.0,0.0,0.0,0.0,0.0,0.0,0.0,0.0,0.0,0.0,0.0,0.0,0.0,0.0,0.0,0.0,0.0,0.0,0.0,0.0,0.0,0.0,0.0,0.0,0.0,0.0,0.0,0.0,0.0,0.5552,0.0,0.0,0.0,0.0,0.0,0.0,0.0,0.0,0.0,0.0,0.0,0.0,0.0,0.0,0.0,0.0,0.0,0.0,0.0,0.0,0.0,0.0,0.0,0.0,0.0,0.0,0.0,0.0,0.0,0.0,0.0,0.0,0.0,0.0,0.0,0.0,0.0,0.0,0.0,0.0,0.3465,0.4463,0.5027,0.4445,0.4546,0.4478,0.4155,0.3594,0.3158,0.2918,0.2863,0.0,0.0,0.0,0.0,0.0,0.0,0.0,0.0,0.0,0.0,0.0,0.0,0.0,0.0,0.0,0.0,0.0,0.0,0.0,0.0,0.0,0.0,0.0,0.0,0.0,0.0,0.0,0.0,0.0,0.0,0.0,0.0,0.0,0.0,0.0,0.0,0.0,0.0,0.0,0.0,0.0,0.0,0.0,0.0,0.0,0.0,0.0,0.0,0.0,0.0,0.0,0.0,0.0,1.165,1.1211,1.1002,1.0156,0.9605,0.928,0.8161,0.7137,0.6312,0.5861,0.0,0.0,0.0,0.0,0.0,0.0,0.0,0.0,0.0,0.0,0.0,0.0,0.0,0.0,0.0,0.0,0.0,0.0,0.0,0.0,0.0,0.0,0.0,0.0,0.3173,0.3046,0.0,0.0,0.0,0.0,0.0,0.0,0.0,0.0,0.0,0.0,0.0,0.0,0.3428,0.4408,0.4952,0.4664,0.4883,0.4883,0.4226,0.3863,0.3427,0.3135,0.3025,0.3143,0.0,0.0,0.0,0.0,0.0,0.0,0.0,0.0,0.0,0.0,0.0,0.0,0.0,0.0,0.0,0.0,0.0,0.0,0.0,0.0,0.0,0.0,0.0,0.0,0.0,0.0,0.0,0.0,0.0,0.0,0.0,0.0,2.0404,1.9523,0.0,0.0,0.0,0.0,0.0,0.0,0.0,0.0,0.0,0.0,0.0,0.0,0.0,1.4556,1.4322,1.4002,1.3497,1.29,1.2536,1.2015,1.1497,1.0931,1.059,1.0275,0.9635,0.0,0.7628,0.6409,0.0,0.0,0.0,0.0,0.0,0.0,0.0,0.0,0.0,0.0,0.0,0.0,0.0,0.0,0.0,0.0,0.0,0.0,0.0,0.0,0.0,0.0,0.3172,0.3537,0.3613,0.3493,0.0,0.3024,0.2921,0.2624,0.2598,0.0,0.0,0.0,0.0,0.0,0.0,0.0,0.3073,0.4048,0.4591,0.4226,0.4518,0.4738,0.4664,0.4226,0.4007,0.3935,0.3601,0.3415,0.3375,0.3323,0.0,0.0,0.0,0.0,0.0,0.0,0.0,0.0,0.0,0.0,0.0,0.0,0.0,0.0,0.0,0.0,0.0,0.0,0.0,0.0,0.0,0.0,0.0,0.0,0.0,0.0,0.0,0.0,0.0,2.0865,2.0772,1.9628,1.9951,1.9795,0.0,0.0,0.0,0.0,0.0,0.0,0.0,0.0,0.0,1.591,1.5242,1.4723,1.4432,1.416,1.3823,1.3505,1.3234,1.2698,1.2094,1.167,1.1198,1.0746,1.0326,0.9727,0.8995,0.7934,0.7128,0.6584,0.0,0.0,0.0,0.0,0.4121,0.43,0.4147,0.4047,0.0,0.3899,0.0,0.0,0.0,0.0,0.0,0.0,0.0,0.0,0.0,0.0,0.0,0.3994,0.4067,0.4007,0.383,0.3799,0.3575,0.0,0.319,0.3306,0.3093,0.0,0.0,0.0,0.0,0.3296,0.2961,0.356,0.4009,0.4079,0.4445,0.4665,0.4665,0.4299,0.4007,0.379,0.3746,0.3638,0.3404,0.3889,0.4149,0.0,0.0,0.0,0.0,0.0,0.0,0.0,0.0,0.0,0.0,0.0,0.0,0.0,0.0,0.0,0.0,0.0,0.0,0.0,0.0,0.0,0.0,0.0,0.0,0.0,0.0,0.0,0.0,2.1384,2.1207,2.0038,2.0639,2.0541,0.0,0.0,0.0,0.0,0.0,0.0,1.7099,1.6757,1.6407,1.5917,1.5502,1.5125,1.472,1.4553,1.4382,1.4133,1.3808,1.3319,1.2641,1.2199,1.1755,1.1116,1.0746,1.0383,1.0014,0.9103,0.8155,0.7226,0.658,0.5977,0.5484,0.5132,0.506,0.5117,0.4953,0.492,0.4897,0.4566,0.0,0.4242,0.3897,0.0,0.0,0.0,0.0,0.4084,0.4151,0.4195,0.4172,0.4308,0.4319,0.4331,0.4331,0.4354,0.4162,0.0,0.3645,0.3762,0.3541,0.0,0.0,0.0,0.0,0.3173,0.3058,0.3427,0.3791,0.4226,0.4591,0.481,0.481,0.4662,0.4365,0.4064,0.4314,0.4278,0.3965,0.4651,0.5047,0.4977,0.0,0.0,0.0,0.0,0.0,0.0,0.0,0.0,0.0,0.0,0.0,0.0,0.0,0.0,0.0,0.0,0.0,0.0,0.0,0.0,0.0,0.0,0.0,0.0,0.0,0.0,0.0,0.0,0.0,2.1728,2.1751,0.0,0.0,0.0,0.0,1.9106,1.8685,1.8282,1.7688,1.6758,1.6382,1.6761,1.6139,1.5753,1.5557,1.5569,1.5252,1.4696,1.4247,1.3697,1.293,1.2638,1.2119,1.1548,1.1116,1.075,1.0371,0.9527,0.8907,0.8396,0.7585,0.7196,0.7102,0.6232,0.5953,0.5935,0.5449,0.5316,0.5369,0.5292,0.496,0.4648,0.4642,0.438,0.0,0.0,0.3909,0.3819,0.4085,0.3994,0.3902,0.4239,0.4352,0.4394,0.4394,0.4481,0.4455,0.0,0.3848,0.3813,0.3981,0.0,0.3876,0.3491,0.3787,0.3932,0.35,0.379,0.4226,0.4591,0.4957,0.5176,0.5176,0.5538,0.565,0.558,0.5572,0.5581,0.5373,0.543,0.5457,0.5383,0.5235,0.0,0.0,0.0,0.0,0.0,0.0,0.0,0.0,0.0,0.0,0.0,0.0,0.0,0.0,0.0,0.0,0.0,0.0,0.0,0.0,0.0,0.0,0.0,0.0,0.0,0.0,0.0,0.0,2.1879,2.2233,0.0,2.0692,2.0927,2.0793,1.9738,1.9378,1.8876,1.8205,1.7615,1.7185,1.6802,1.6581,1.6201,1.5586,1.5586,1.5323,1.4875,1.4722,1.4307,1.3602,1.3163,1.2656,1.1979,1.1548,1.1038,1.0452,1.0188,0.9526,0.8586,0.7979,0.7585,0.7281,0.6607,0.6423,0.6365,0.5841,0.5689,0.5709,0.5415,0.4893,0.4454,0.5023,0.4874,0.4521,0.4559,0.4454,0.4404,0.4275,0.4223,0.4239,0.4574,0.4659,0.4744,0.5016,0.5054,0.5101,0.5003,0.4657,0.4356,0.4361,0.4392,0.4351,0.3932,0.4007,0.3935,0.3573,0.3863,0.4226,0.4664,0.503,0.5321,0.5538,0.571,0.5742,0.5643,0.5624,0.5546,0.5421,0.5647,0.5785,0.5903,0.6076,0.6246,0.0,0.0,0.0,0.0,0.0,0.0,0.0,0.0,0.0,0.0,0.0,0.0,0.0,0.0,0.0,0.0,0.0,0.0,0.0,0.0,0.0,0.0,0.0,0.0,0.0,2.2459,2.2383,2.2084,2.2428,2.2286,2.1102,2.1204,2.1032,2.0353,1.9827,1.9352,1.8822,1.837,1.7874,1.7188,1.7188,1.673,1.5816,1.5969,1.5659,1.4964,1.4964,1.4625,1.3909,1.3475,1.293,1.2194,1.1763,1.1181,1.0527,1.0527,0.9879,0.8866,0.843,0.7976,0.7596,0.7048,0.6773,0.655,0.6086,0.5912,0.5845,0.5513,0.4947,0.4517,0.5029,0.4947,0.4656,0.4629,0.464,0.4574,0.4374,0.4308,0.4374,0.4574,0.4723,0.4875,0.5146,0.5371,0.5488,0.5589,0.5171,0.4793,0.4816,0.4692,0.4568,0.4369,0.4371,0.43,0.3937,0.4373,0.4735,0.4883,0.5321,0.5685,0.5974,0.6259,0.6413,0.6312,0.6393,0.6435,0.6467,0.6514,0.6638,0.697,0.6965,0.7081,0.7247,0.0,0.0,0.0,0.0,0.0,0.0,0.0,0.0,0.0,0.0,0.0,0.0,0.0,0.0,0.0,0.0,0.0,0.0,0.0,0.0,0.0,0.0,0.0,2.2774,2.251,2.243,2.2585,2.2422,2.2079,2.159,2.1318,2.1051,2.0835,2.0072,1.9599,1.9594,1.8827,1.8337,1.803,1.8025,1.7416,1.6284,1.6582,1.6195,1.5045,1.5041,1.4625,1.3913,1.3475,1.293,1.2194,1.1763,1.1181,1.0527,1.0527,1.0023,0.9232,0.8871,0.8437,0.8049,0.7492,0.7069,0.6623,0.6105,0.5912,0.5845,0.5513,0.5178,0.4839,0.4841,0.4641,0.4374,0.4308,0.4308,0.4308,0.4308,0.4308,0.4308,0.4308,0.4622,0.4939,0.4939,0.5338,0.56,0.5604,0.5266,0.5006,0.521,0.4902,0.4669,0.4728,0.4957,0.0,0.4738,0.5318,0.561,0.5248,0.5977,0.6412,0.641,0.7334,0.7872,0.7833,0.8077,0.8306,0.8592,0.8081,0.8018,0.8399,0.7851,0.7626,0.7752,0.0,0.0,0.0,0.0,0.0,0.0,0.0,0.0,0.0,0.0,0.0,0.0,0.0,0.0,0.0,0.0,0.0,0.0,0.0,0.0,0.0,2.391,2.3852,2.2989,2.2791,2.2725,2.2685,2.2585,2.2571,2.2487,2.2084,2.1828,2.1601,2.0971,2.0326,1.9933,1.9218,1.8722,1.842,1.7883,1.7426,1.7044,1.6586,1.6046,1.5433,1.5122,1.4777,1.421,1.3624,1.3077,1.2613,1.1903,1.1181,1.0527,1.0527,1.0023,0.9232,0.8871,0.8606,0.8302,0.7535,0.6984,0.6521,0.6065,0.5912,0.5912,0.578,0.5512,0.5312,0.551,0.551,0.5377,0.4841,0.4842,0.4978,0.4442,0.4507,0.4708,0.5045,0.5394,0.5678,0.6017,0.6173,0.6275,0.634,0.5987,0.5682,0.5574,0.5271,0.5008,0.5027,0.4956,0.0,0.503,0.5248,0.5539,0.6048,0.6557,0.6892,0.7115,0.7588,0.7903,0.8072,0.783,0.7823,0.8192,0.7828,0.7934,0.8604,0.8729,0.8928,0.0,0.0,0.0,0.0,0.0,0.0,0.0,0.0,0.0,0.0,0.0,0.0,0.0,0.0,0.0,0.0,0.0,0.0,0.0,0.0,0.0,0.0,2.4419,2.4302,2.3497,2.3275,2.3073,2.2925,2.287,2.2939,2.3006,2.2409,2.2054,2.1991,2.1304,2.0723,2.0268,1.9574,1.9084,1.9014,1.8155,1.7616,1.7553,1.6856,1.6123,1.5586,1.5198,1.4777,1.4358,1.3843,1.329,0.0,1.2119,1.1325,1.0527,1.0527,1.0023,0.0,0.0,0.0,0.0,0.0,0.6917,0.6453,0.6048,0.578,0.5646,0.551,0.5245,0.4978,0.531,0.5443,0.5376,0.5109,0.5111,0.5111,0.4844,0.4775,0.4908,0.5312,0.5647,0.5979,0.6183,0.6386,0.6537,0.6523,0.0,0.0,0.6096,0.5711,0.5504,0.568,0.5539,0.5467,0.5685,0.5948,0.6215,0.6503,0.7042,0.7425,0.7581,0.7968,0.0,0.0,0.0,0.8302,0.8651,0.853,0.0,0.0,0.0,0.9396,0.9579,0.0,0.0,0.0,0.8199,0.8034,0.0,0.0,0.0,0.0,0.0,0.0,0.0,0.0,0.0,0.0,0.0,0.0,0.0,0.0,0.0,0.0,2.507,2.5026,2.409,2.3719,2.3448,2.3172,2.3197,2.327,2.3406,2.2478,2.1985,2.2219,2.143,2.0834,2.0576,0.0,0.0,0.0,0.0,1.7965,1.7845,1.7128,1.6348,1.5663,1.5198,1.4789,1.439,1.4069,1.3513,1.2783,1.2413,1.1544,1.0524,1.0509,0.9994,0.9264,0.9264,0.8905,0.8354,0.7459,0.6927,0.0,0.5981,0.0,0.0,0.4975,0.4641,0.4508,0.4841,0.4906,0.4975,0.5314,0.5176,0.4975,0.5314,0.5176,0.5042,0.5379,0.5713,0.5979,0.5979,0.625,0.652,0.652,0.6519,0.6578,0.6588,0.6098,0.5871,0.6313,0.6326,0.633,0.6484,0.6915,0.7142,0.6925,0.0,0.0,0.7817,0.8349,0.8696,0.8682,0.8979,0.9128,0.9264,0.9511,0.9753,0.9866,0.9471,0.9339,0.9335,0.8844,0.8778,0.9172,0.8816,0.8587,0.0,0.0,0.0,0.0,0.0,0.0,0.0,0.0,0.0,0.0,0.0,0.0,0.0,0.0,0.0,2.5194,2.5561,2.5491,2.4121,2.4164,2.3971,2.3238,2.3169,2.3169,2.3345,2.2805,2.2442,2.2493,2.1689,2.1017,2.0587,2.0095,1.9668,1.9323,1.843,1.7969,1.7936,1.691,1.6203,1.605,0.0,0.0,1.4651,1.4129,1.3583,1.295,1.2392,1.1544,1.0518,1.0414,0.9812,0.8949,0.8949,0.8668,0.8207,0.7603,0.7206,0.6784,0.5848,0.5646,0.5713,0.5379,0.5247,0.5247,0.5579,0.5711,0.0,0.5446,0.5513,0.5644,0.5448,0.5513,0.5711,0.578,0.6116,0.6386,0.6386,0.6453,0.652,0.652,0.6535,0.657,0.6578,0.626,0.6074,0.6299,0.6023,0.6118,0.6763,0.6697,0.6715,0.7213,0.7617,0.78,0.7712,0.8373,0.8728,0.863,0.8931,0.893,0.8617,0.9068,0.9317,0.9184,0.9287,0.9457,0.97,0.958,0.9626,0.9769,0.866,0.8386,0.0,0.0,0.0,0.0,0.0,0.0,0.0,0.0,0.0,0.0,0.0,2.3776,2.478,0.0,2.6223,2.5788,2.5916,2.5766,2.4639,2.4324,2.3864,2.3025,2.3034,2.3068,2.3115,2.2579,2.232,2.2567,2.164,2.1016,2.0889,2.0213,1.9657,1.9422,1.8465,1.8079,1.8197,1.7091,1.6433,1.6208,1.5586,1.5108,1.47,1.4145,1.3598,1.2995,1.2406,1.1544,1.0443,0.9891,0.9375,0.8861,0.8861,0.8549,0.8146,0.7699,0.7257,0.6918,0.6185,0.5915,0.5847,0.5713,0.5377,0.5178,0.5711,0.578,0.5714,0.5917,0.5915,0.5914,0.5915,0.5915,0.5979,0.6182,0.6384,0.652,0.652,0.652,0.652,0.652,0.652,0.6535,0.6515,0.6421,0.6358,0.6489,0.6402,0.6442,0.6915,0.6985,0.7211,0.7563,0.7979,0.8199,0.8143,0.8474,0.8856,0.9128,0.912,0.9128,0.9202,0.9386,0.9504,0.9496,0.9532,0.97,1.0061,0.9992,0.9993,1.0127,0.9485,0.9235,0.0,0.0,0.0,0.0,0.0,0.0,0.0,1.9328,2.04,2.1219,2.2851,2.4512,2.5678,2.6473,2.6815,2.6432,2.6395,2.6115,2.5321,2.4477,2.3681,2.2818,2.2802,2.2835,2.288,2.2259,2.2006,2.2487,2.1497,2.0938,2.0973,2.0147,1.9563,1.9439,1.8495,1.8037,1.8222,1.72,1.6505,1.6208,1.5739,1.5184,1.47,1.4215,1.3598,1.2991,1.2226,1.1409,1.0438,0.9533,0.9001,0.8869,0.8801,0.8533,0.8183,0.7692,0.7323,0.7054,0.6518,0.6183,0.5912,0.5912,0.5376,0.4973,0.578,0.5714,0.5582,0.6319,0.625,0.6115,0.6386,0.625,0.6115,0.6453,0.652,0.6587,0.6587,0.6654,0.6721,0.6721,0.6721,0.6654,0.6587,0.6587,0.6644,0.6676,0.6758,0.6879,0.6967,0.731,0.7597,0.7733,0.8243,0.8587,0.8653,0.872,0.892,0.9458,0.9322,0.9393,0.9785,0.9835,0.982,0.9928,0.99,1.0001,1.0304,1.0247,1.0262,1.0358,1.0392,1.02,1.9158,1.9604,1.9736,1.9681,1.9592,1.9443,0.0,1.937,2.0204,2.1006,2.2172,2.3534,2.5249,2.6042,2.6586,2.7104,2.7128,2.6676,2.5574,2.477,2.3896,2.2961,2.2461,2.2419,2.2984,2.2228,2.1817,2.2213,2.1392,2.071,2.0351,1.983,1.9336,1.8765,1.8268,1.7812,1.754,1.6676,1.6208,1.6208,1.5433,1.4951,1.47,1.4443,1.3819,1.2915,1.1538,1.0847,1.0505,0.9611,0.9202,0.9004,0.8739,0.8609,0.8472,0.7729,0.7459,0.7323,0.6315,0.5912,0.5912,0.5912,0.5376,0.4975,0.6116,0.5917,0.5582,0.6319,0.6453,0.6453,0.652,0.6453,0.6453,0.652,0.6719,0.6918,0.6918,0.719,0.7393,0.7393,0.7393,0.7323,0.6985,0.6918,0.689,0.6659,0.6613,0.6785,0.7215,0.6936,0.7013,0.7625,0.7995,0.839,0.8984,0.905,0.8984,0.8723,0.9325,0.9468,0.9071,0.9781,1.0019,0.9682,1.0022,1.0243,1.0304,1.0589,1.0722,1.0647,1.0864,1.06,2.0087,2.0339,2.0235,2.0275,1.9972,1.9553,1.9092,1.9603,2.0391,2.0977,2.216,2.3527,2.482,2.5669,2.6321,2.6876,2.6937,2.6558,2.5601,2.4815,2.3922,2.2999,2.2419,2.2083,2.2112,2.1783,2.1637,2.1654,2.0889,2.0497,2.061,1.9846,1.9115,1.8648,1.8182,1.7797,1.7426,1.6811,1.6582,1.6505,1.562,1.5148,1.4993,1.4264,1.3455,1.2493,1.1555,1.0954,1.053,0.9635,0.9235,0.905,0.872,0.8587,0.8523,0.7791,0.766,0.7724,0.6652,0.6382,0.6516,0.6317,0.5914,0.5579,0.6252,0.6116,0.5781,0.6319,0.652,0.652,0.652,0.652,0.652,0.652,0.6587,0.6719,0.6719,0.6987,0.7121,0.6922,0.7259,0.739,0.7051,0.7187,0.727,0.7114,0.6828,0.6739,0.7121,0.7228,0.7451,0.7863,0.8017,0.839,0.905,0.8917,0.8987,0.9522,0.9519,0.9517,0.9521,0.9888,1.0117,1.0115,1.0264,1.0486,1.091,1.1031,1.1038,1.0997,1.1347,1.1062,2.0852,2.1084,2.0892,2.0819,2.0348,1.974,1.9249,1.9659,2.0206,2.0691,2.1919,2.3267,2.4336,2.5215,2.6027,2.6743,2.6747,2.6489,2.574,2.5041,2.4233,2.3304,2.2933,2.2394,2.1568,2.1468,2.1424,2.1101,2.0538,2.0336,2.0577,1.9642,1.8871,1.8648,1.8106,1.7726,1.7426,1.6963,1.673,1.6653,1.5766,1.5194,1.4985,1.3965,1.3138,1.2405,1.1748,1.1243,1.0747,0.9924,0.9405,0.9253,0.8853,0.8653,0.8523,0.7791,0.766,0.7791,0.6922,0.6719,0.6853,0.6719,0.6315,0.5981,0.6587,0.6384,0.5981,0.6518,0.6587,0.652,0.652,0.652,0.652,0.6587,0.6721,0.6788,0.6922,0.7121,0.7252,0.7121,0.739,0.7591,0.7319,0.7522,0.766,0.7526,0.7118,0.6959,0.7161,0.7566,0.7943,0.82,0.8323,0.859,0.9186,0.892,0.9105,0.9937,0.9639,0.9583,0.9974,1.0019,1.0194,1.0548,1.0411,1.0607,1.1273,1.1273,1.13,1.1305,1.1573,1.1366,2.1462,2.1649,2.1762,2.1216,2.0731,2.0142,1.9325,1.9144,1.9293,2.0017,2.1024,2.2276,2.3678,2.4827,2.5848,2.6714,2.6822,2.6572,2.6129,2.5681,2.4996,2.4068,2.4155,2.3515,2.1794,2.1369,2.1096,2.0934,2.0451,2.0113,1.9946,1.9098,1.8648,1.8572,1.7807,1.7426,1.7426,1.6963,1.6582,1.6203,1.5619,1.4981,1.4428,1.3633,1.3243,1.3009,1.2069,1.1635,1.1418,1.0525,0.9997,0.9661,0.9253,0.8917,0.8523,0.7791,0.7526,0.7459,0.7121,0.6786,0.6587,0.6851,0.6516,0.6115,0.7123,0.6719,0.6046,0.6784,0.6719,0.652,0.652,0.652,0.6587,0.6918,0.7254,0.7593,0.7992,0.8056,0.8189,0.8454,0.8323,0.8058,0.8058,0.8058,0.7925,0.7526,0.7462,0.7464,0.7464,0.7863,0.8195,0.852,0.8851,0.9253,0.9661,0.9319,0.9197,0.9403,0.9391,0.9583,0.9974,1.0019,1.0246,1.0777,1.0468,1.0607,1.1273,1.1273,1.1367,1.1492,1.15,1.1309,2.1236,2.1553,2.1635,2.1199,2.0528,1.9789,1.8953,1.8925,1.9203,1.9583,2.0437,2.1508,2.2822,2.3547,2.4422,2.5714,2.5881,2.5666,2.5099,2.5089,2.4488,2.308,2.3021,2.2639,2.1395,2.1965,2.1934,2.0754,2.0653,2.0566,2.0307,1.9249,1.8572,1.8572,1.7807,1.7426,1.7426,1.6963,1.6666,1.6388,1.5454,1.4615,1.4075,1.381,1.3511,1.3157,1.2453,1.1891,1.1549,1.0622,1.0123,0.9994,0.9319,0.8917,0.852,0.8058,0.7588,0.7121,0.6786,0.6719,0.6786,0.6719,0.6612,0.6572,0.7034,0.7007,0.6837,0.6967,0.692,0.6786,0.6587,0.652,0.6587,0.692,0.692,0.6922,0.7321,0.7524,0.7658,0.7586,0.8053,0.839,0.8125,0.8256,0.839,0.8256,0.8058,0.7925,0.7925,0.7992,0.8125,0.8256,0.8123,0.8189,0.8592,0.8523,0.8604,0.9074,0.9174,0.9447,0.9765,0.9869,1.0095,1.0558,1.0414,1.0607,1.1273,1.1273,1.1367,1.15,1.15,1.1309,2.1087,2.1456,2.1516,2.0834,2.0075,1.9344,1.8591,1.856,1.8789,1.9112,1.9863,2.0742,2.1845,2.2418,2.3064,2.4289,2.4754,2.4786,2.4479,2.4705,2.4411,2.2979,2.2996,2.2618,2.1389,2.2265,2.2177,2.0399,2.0602,2.0619,2.0302,1.9244,1.8572,1.8572,1.7807,1.7426,1.7426,1.7042,1.664,1.6073,1.5224,1.4431,1.39,1.39,1.3725,1.3365,1.2592,1.2094,1.1743,1.0752,1.0323,1.0123,0.9655,0.9186,0.872,0.839,0.7789,0.7121,0.6786,0.6719,0.678,0.6679,0.663,0.6653,0.7006,0.71,0.7064,0.6931,0.6907,0.6869,0.6672,0.6564,0.6587,0.7054,0.692,0.6786,0.7121,0.7323,0.7457,0.7388,0.792,0.839,0.8323,0.839,0.8456,0.8587,0.8323,0.8125,0.8256,0.8256,0.8256,0.8125,0.7858,0.7858,0.8256,0.8153,0.8341,0.9133,0.9127,0.9305,0.9621,0.9646,0.9771,1.017,1.0022,1.0243,1.097,1.0914,1.104,1.1407,1.1223,1.1047,2.0889,2.1349,2.136,2.0145,1.9466,1.8979,1.8171,1.7923,1.8071,1.8633,1.9376,2.0021,2.0604,2.1291,2.1994,2.2633,2.3355,2.3928,2.4201,2.4553,2.4539,2.3795,2.3763,2.321,2.1753,2.2098,2.1761,2.0011,0.0,2.0307,1.9925,1.9093,1.8567,1.8572,1.7797,1.7407,1.7407,1.7185,1.6508,1.5406,1.4954,1.4423,1.39,1.39,1.3811,1.3578,1.2689,1.2175,1.1944,1.1048,1.0522,1.0193,1.0193,0.9721,0.905,0.872,0.8123,0.7459,0.7121,0.6786,0.6573,0.6804,0.664,0.6425,0.711,0.7013,0.6757,0.6697,0.6766,0.6841,0.6847,0.6649,0.665,0.7323,0.7187,0.7051,0.739,0.7459,0.7593,0.7992,0.8125,0.8256,0.852,0.8323,0.8256,0.852,0.8323,0.8256,0.852,0.8587,0.8456,0.8125,0.8125,0.8256,0.852,0.8154,0.8426,0.9573,0.9198,0.9187,0.9545,0.941,0.9342,0.9542,0.9406,0.964,1.0243,1.0155,1.0517,1.1261,1.0755,1.0607,1.9904,2.0398,2.0673,1.9989,1.9244,1.8567,1.7917,1.7778,1.7793,1.8081,1.8762,1.9436,1.9849,2.0714,2.1567,2.2,2.2855,2.3436,2.3305,2.3537,2.3416,2.2761,2.2118,2.1563,2.1291,2.1111,2.0734,1.9925,2.0472,2.0494,1.9854,1.9017,1.8491,1.8177,1.7492,1.7185,1.7185,1.6536,1.609,1.5768,1.5189,1.4735,1.4336,1.4336,1.4164,1.3748,1.2739,1.2242,1.2111,1.1094,1.0654,1.0522,1.0323,0.9721,0.905,0.872,0.8123,0.7459,0.739,0.6989,0.6506,0.6477,0.6532,0.6666,0.7089,0.7282,0.7302,0.7122,0.71,0.7009,0.6562,0.6401,0.65,0.7036,0.6853,0.6719,0.7054,0.7121,0.7254,0.7591,0.8123,0.852,0.8587,0.852,0.852,0.8587,0.852,0.839,0.8256,0.8456,0.8456,0.8125,0.8125,0.8123,0.8192,0.8097,0.8194,0.8564,0.8713,0.8863,0.91,0.9056,0.9053,0.909,0.9236,0.9518,0.994,1.0035,1.0517,1.1261,1.0517,1.0538,1.9098,1.9557,1.9682,1.9233,1.8562,1.7815,1.7059,1.6985,1.7087,1.7341,1.7983,1.8596,1.8832,1.9239,1.97,2.0212,2.09,2.1534,2.1804,2.2229,2.2389,2.1987,2.1418,2.0973,2.0834,2.0597,2.0296,1.9925,2.0428,2.0369,1.9547,1.8946,1.837,1.7888,1.7391,1.7015,1.6831,1.6386,1.6011,1.5776,1.5453,1.4972,1.4479,1.4479,1.4148,1.3491,0.0,1.2159,1.1869,1.1016,1.0721,1.0654,1.0522,0.999,0.9322,0.9123,0.8427,0.7457,0.7457,0.6962,0.639,0.6599,0.6804,0.6937,0.7037,0.7281,0.7433,0.7183,0.7105,0.7035,0.675,0.6482,0.6405,0.6896,0.6719,0.652,0.6719,0.6918,0.7118,0.7658,0.8189,0.8587,0.8587,0.8454,0.8454,0.8587,0.8456,0.8323,0.8125,0.8256,0.8323,0.8125,0.7925,0.7925,0.8058,0.7969,0.8052,0.837,0.8514,0.8576,0.8677,0.8671,0.861,0.8485,0.8912,0.9246,0.948,0.9765,1.0305,1.1152,1.0425,1.0486,1.8298,1.8789,1.8741,1.8299,1.7707,1.6936,1.6113,1.6031,1.6245,1.6624,1.7159,1.7585,1.7763,1.7497,1.7447,1.8121,1.8638,1.9303,2.0338,2.0973,2.136,2.1439,2.1121,2.0834,2.0522,2.0447,2.0296,1.9925,2.0145,1.9995,1.9169,1.8795,1.8305,1.7604,1.7187,1.6835,1.6448,1.6443,1.621,1.5678,1.5607,1.5252,1.455,1.455,1.4036,1.3177,0.0,0.0,1.1575,1.0925,1.0721,1.0721,1.0721,1.0256,0.9728,0.9709,0.8766,0.7495,0.7416,0.696,0.6434,0.6935,0.7122,0.7087,0.7022,0.7143,0.7324,0.7023,0.6962,0.699,0.7033,0.6683,0.6386,0.681,0.6711,0.652,0.652,0.6786,0.7252,0.7922,0.8323,0.8587,0.8587,0.839,0.8256,0.8587,0.8323,0.8125,0.8192,0.8192,0.8125,0.8125,0.7858,0.7786,0.8105,0.7925,0.8055,0.8591,0.8513,0.8386,0.8369,0.8369,0.8305,0.8055,0.8607,0.8969,0.9182,0.9486,1.0069,1.0863,1.0265,1.0421,1.7307,1.801,1.8225,1.7558,1.7259,1.6969,1.5983,1.5864,1.6006,1.6006,1.6539,1.6846,1.6582,1.7003,1.7507,1.7967,1.8416,1.9106,2.028,2.0215,2.0388,2.1128,2.0556,2.0226,2.0441,2.0221,1.9995,1.9925,1.9617,1.9244,1.8719,1.8648,1.808,1.7016,1.6757,1.6476,1.6235,1.6235,1.6216,1.6108,1.5749,1.5328,1.4906,1.4621,1.4244,1.3697,1.2743,0.0,1.2064,1.1101,1.0721,1.0721,1.0721,1.0256,0.9715,0.9598,0.8822,0.7807,0.7714,0.7414,0.7065,0.6728,0.6638,0.6679,0.718,0.7324,0.7324,0.7023,0.6912,0.6827,0.6302,0.6203,0.6227,0.6382,0.6465,0.652,0.652,0.6989,0.7459,0.7591,0.8123,0.8587,0.8587,0.852,0.852,0.8587,0.8323,0.8189,0.8454,0.8523,0.839,0.8123,0.8256,0.8419,0.8325,0.828,0.8237,0.8223,0.8355,0.8473,0.8375,0.8369,0.8491,0.8732,0.8854,0.9093,0.9489,0.9846,1.013,1.04,1.0201,1.0299,1.6387,1.6795,1.692,1.6885,1.6494,1.593,1.5285,1.5167,1.5185,1.5507,1.5751,1.5888,1.5897,1.5959,1.6117,1.6504,1.6954,1.751,1.8374,1.861,1.8912,1.9591,1.9511,1.9436,1.9666,1.9779,1.9871,1.9677,1.9403,1.9017,1.8643,1.8196,1.76,1.6812,1.6702,1.6486,1.6183,1.6183,1.6183,1.6183,1.5966,1.5683,1.5323,1.4868,1.4205,1.3332,1.2517,0.0,1.1461,1.0912,1.0721,1.0654,1.0522,1.0127,0.9646,0.9312,0.8502,0.759,0.7414,0.7028,0.6538,0.6489,0.6634,0.6906,0.7477,0.7569,0.7385,0.7204,0.7021,0.6801,0.6402,0.6208,0.6149,0.6284,0.6388,0.652,0.6719,0.7123,0.7593,0.7791,0.8256,0.8587,0.8587,0.8587,0.8587,0.8587,0.8456,0.839,0.8587,0.8587,0.852,0.839,0.8268,0.8275,0.8421,0.843,0.8367,0.8125,0.849,0.855,0.8183,0.8308,0.8491,0.8613,0.8724,0.9077,0.9787,0.9766,1.0033,1.0528,1.0194,1.0228,1.5384,1.5705,1.5674,1.6017,1.5589,1.4931,1.4561,1.4449,1.4555,1.496,1.4886,1.4923,1.5271,1.4826,1.4645,1.5139,1.5488,1.5856,1.6522,1.7085,1.7613,1.7936,1.8384,1.8708,1.8848,1.934,1.9623,1.9367,1.9147,1.8794,1.8421,1.7669,1.7145,1.6736,1.6654,1.6457,1.6183,1.6183,1.6183,1.6183,1.6108,1.5895,1.5598,1.4982,1.4115,1.3137,1.2444,0.0,0.0,1.0864,1.0787,1.0654,1.0389,1.006,0.9643,0.9148,0.8312,0.738,0.7185,0.6655,0.6039,0.6405,0.6703,0.7063,0.7534,0.7569,0.7385,0.7202,0.7021,0.6796,0.6438,0.6162,0.6098,0.6341,0.6438,0.6562,0.6982,0.7305,0.7564,0.7987,0.8371,0.856,0.8584,0.8587,0.8587,0.8587,0.852,0.8523,0.8587,0.8565,0.8615,0.8681,0.827,0.8131,0.8407,0.8477,0.8415,0.8205,0.8667,0.8729,0.8236,0.8427,0.861,0.8674,0.8717,0.9182,1.0139,0.9779,0.9975,1.0532,1.0216,1.0073,1.4131,1.4916,1.5356,1.5039,1.4903,1.4625,1.3885,1.4086,1.4332,1.4212,1.4187,1.4246,1.4487,1.3988,1.3919,1.4839,1.4886,1.5081,1.5962,1.6417,1.6726,1.6983,1.7677,1.822,1.8555,1.888,1.9011,1.899,1.8623,1.8185,1.7817,1.7226,1.6786,1.6514,1.6368,1.6254,1.6183,1.6183,1.6183,1.6183,1.582,1.5603,1.5598,1.4697,1.4178,1.4005,1.297,0.0,0.0,1.1371,1.0986,1.0721,1.0654,1.0259,0.9697,0.9368,0.8556,0.7623,0.7413,0.6903,0.6405,0.6775,0.6657,0.6537,0.69,0.7204,0.7263,0.6648,0.6714,0.678,0.6111,0.599,0.6161,0.6736,0.6589,0.6551,0.7305,0.7384,0.7476,0.7971,0.8241,0.8467,0.8568,0.8587,0.8587,0.8587,0.8323,0.8256,0.8587,0.8489,0.8555,0.8822,0.8555,0.8391,0.8477,0.85,0.844,0.8395,0.8918,0.9214,0.9153,0.9217,0.9335,0.964,0.9254,0.9539,1.0436,1.048,1.02,0.9738,1.01,0.9834,1.3172,1.3877,1.4289,1.425,1.4159,1.3978,1.3501,1.35,1.3697,1.3816,1.3638,1.3509,1.3809,1.346,1.3173,1.3212,1.3465,1.3872,1.4477,1.4445,1.482,1.6011,1.6529,1.6882,1.71,1.79,1.8338,1.8338,1.796,1.7605,1.7336,1.7311,1.715,1.6851,1.6638,1.6386,1.6183,1.6183,1.6183,1.6183,1.6037,1.5966,1.5957,1.4853,1.4294,1.3997,1.2689,0.0,0.0,1.1073,1.0798,1.0526,1.0224,0.9874,0.9449,0.8875,0.8167,0.7431,0.7155,0.6653,0.6101,0.6285,0.6223,0.6221,0.6716,0.7023,0.7021,0.6526,0.665,0.6716,0.6101,0.5924,0.6072,0.6271,0.6327,0.6454,0.7276,0.7476,0.7754,0.8459,0.8839,0.8949,0.8804,0.8813,0.8681,0.8486,0.8486,0.8505,0.8632,0.8781,0.8977,0.9224,0.8961,0.8793,0.8812,0.8915,0.8906,0.8738,0.9278,0.946,0.9098,0.9217,0.9294,0.9387,0.9245,0.9583,1.0401,1.0127,0.9953,0.9885,0.9996,0.95,1.2243,1.2965,1.3486,1.3582,1.3535,1.342,1.314,1.3177,1.333,1.3454,1.3071,1.2895,1.3326,1.2877,1.234,1.2046,1.2315,1.2611,1.2871,1.2768,1.3263,1.4692,1.5153,1.5547,1.598,1.7149,1.7952,1.8025,1.7802,1.7659,1.7575,1.7643,1.7465,1.6969,1.6813,1.6593,1.632,1.6249,1.6183,1.6183,1.6183,1.615,1.6075,1.5091,1.4424,1.4014,0.0,0.0,0.0,1.1118,1.0854,1.0503,1.0151,0.9707,0.9243,0.8726,0.7954,0.7199,0.7084,0.6591,0.6039,0.6039,0.6039,0.6162,0.6591,0.6839,0.6839,0.6467,0.6528,0.6471,0.6039,0.5965,0.6021,0.6171,0.6225,0.6485,0.7295,0.7619,0.802,0.8725,0.9107,0.9221,0.9001,0.8877,0.8812,0.8686,0.8674,0.8742,0.8805,0.9088,0.9346,0.9502,0.933,0.9181,0.9119,0.9213,0.9217,0.9037,0.9518,0.9579,0.9156,0.9339,0.9389,0.9245,0.9323,0.9679,1.0259,0.9867,0.9753,0.9856,0.9752,0.9296,1.139,1.2294,1.3003,1.3003,1.3129,1.3148,1.2935,1.3191,1.3384,1.3164,1.2685,1.2471,1.3014,1.2185,1.1508,1.164,1.168,1.1591,1.1374,1.1715,1.2214,1.2734,1.3543,1.4474,1.5536,1.6787,1.7781,1.815,1.8221,0.0,1.8783,1.8204,1.7515,1.6734,1.6729,1.6729,1.6659,1.6386,1.6183,1.6183,1.6183,1.607,1.5857,1.5302,1.4693,0.0,0.0,0.0,0.0,1.178,1.138,1.0717,1.0721,0.9971,0.9054,0.9239,0.8342,0.7161,0.7301,0.6954,0.6403,0.6403,0.6403,0.6403,0.6403,0.665,0.6839,0.6467,0.616,0.5916,0.5916,0.5919,0.6003,0.6467,0.6553,0.6704,0.7503,0.7883,0.8152,0.8591,0.8836,0.9039,0.9167,0.8933,0.8805,0.9124,0.8933,0.8805,0.9121,0.9387,0.9492,0.9492,0.9668,0.964,0.9339,0.9278,0.9275,0.9275,0.964,0.9822,0.9822,0.9822,0.9754,0.9612,0.9608,0.9783,1.008,0.9978,0.9686,0.9232,0.9332,0.9127,1.0164,1.1062,1.183,1.2126,1.2314,1.24,1.2481,1.2592,1.2633,1.2316,1.2079,1.1812,1.1605,1.1521,1.1188,1.0596,1.0764,1.1125,1.1327,1.1231,1.1716,1.3056,1.3882,1.4627,1.5323,1.6018,1.6751,1.7546,1.7339,0.0,1.8183,1.7973,1.7791,1.751,1.7228,1.7092,1.7092,1.7026,1.6815,1.6523,1.6523,1.6341,1.5852,1.5023,0.0,0.0,0.0,0.0,0.0,1.1392,1.0962,1.0354,0.9896,0.9294,0.8666,0.85,0.777,0.6786,0.6995,0.6591,0.6099,0.6342,0.6403,0.6464,0.6957,0.7021,0.6839,0.6467,0.6344,0.616,0.5978,0.5916,0.5925,0.6077,0.6266,0.66,0.7137,0.7637,0.815,0.8779,0.9149,0.9321,0.9111,0.8995,0.8929,0.8734,0.8786,0.8918,0.9224,0.9555,0.971,0.971,0.9788,0.9761,0.964,0.964,0.964,0.964,0.9761,0.9822,0.9822,0.9822,0.9583,0.9108,0.9613,0.9686,0.9253,0.9583,0.9498,0.9116,0.8765,0.8521,0.9283,1.0377,1.1126,1.1453,1.1551,1.1733,1.2106,1.2063,1.1843,1.1487,1.1045,1.072,1.0511,1.0182,1.0007,0.9971,1.0185,1.0475,1.0973,1.1037,1.1507,1.2851,1.3682,1.4349,1.4813,1.5566,1.6284,1.6897,1.7112,0.0,1.7861,1.8007,1.8077,1.8077,1.7726,1.7515,1.7515,1.7379,1.7092,1.6729,1.6651,1.6296,1.5739,1.4919,0.0,0.0,0.0,0.0,0.0,1.1468,1.0944,1.0361,0.9906,0.9339,0.8735,0.8554,0.784,0.6922,0.7045,0.6716,0.6278,0.6485,0.6532,0.6593,0.7018,0.705,0.683,0.6605,0.635,0.6115,0.597,0.5892,0.5874,0.5908,0.6223,0.6669,0.6979,0.7557,0.8206,0.8656,0.9106,0.9289,0.9165,0.9042,0.9042,0.8971,0.9026,0.9156,0.9457,0.97,0.9822,0.9822,0.9822,0.9822,0.9822,0.9822,0.9822,0.9822,0.9822,0.9822,0.9822,0.9771,0.9509,0.9097,0.9531,0.9466,0.8844,0.9061,0.9078,0.8958,0.8441,0.8279,0.0,0.9925,1.0647,1.0902,1.0972,1.1167,1.1683,1.155,0.0,1.0624,0.9908,0.9411,0.9669,0.8649,0.8251,0.9747,0.974,0.9713,1.0305,1.1057,1.1687,1.2262,1.3086,1.375,1.4146,1.5358,1.6187,1.6367,0.0,0.0,1.7931,1.8223,1.8433,1.8433,1.8077,1.7931,1.7931,1.759,1.7163,1.68,1.6519,1.6171,1.5618,1.4944,0.0,0.0,0.0,0.0,0.0,1.1754,1.1261,1.0473,1.0453,0.9891,0.9097,0.9053,0.8352,0.7388,0.7396,0.715,0.6823,0.6723,0.669,0.6748,0.6734,0.6805,0.6869,0.6707,0.6257,0.585,0.5876,0.5839,0.5802,0.5888,0.6403,0.6898,0.6891,0.7627,0.8366,0.8358,0.8665,0.8976,0.9217,0.9095,0.9095,0.97,0.9518,0.9396,0.9761,0.9822,0.9822,0.9822,0.9822,0.9822,0.9822,0.9822,0.9822,0.9822,0.9812,0.9805,0.9805,0.9669,0.952,0.9367,0.9354,0.9117,0.8717,0.8545,0.8475,0.8631,0.8348,0.8267,0.7387,0.0,0.9869,1.0224,1.0389,1.0649,0.0,1.1109,1.0902,1.0588,1.03,0.9972,0.9623,0.8962,0.8657,0.898,0.8626,0.8516,0.9035,1.0525,1.1754,1.2262,1.3189,1.3964,1.42,1.4967,1.5705,0.0,0.0,1.7678,1.7926,1.8223,1.8433,1.8433,1.8293,1.8293,1.8293,1.8223,1.7937,1.7575,1.7071,1.6574,1.5948,1.48,0.0,0.0,0.0,0.0,1.1762,1.1253,1.0746,1.0307,0.9761,0.926,0.8848,0.8703,0.8099,0.7398,0.7487,0.7088,0.6523,0.6499,0.6797,0.7132,0.6726,0.6693,0.6714,0.6148,0.603,0.5979,0.5763,0.5743,0.5786,0.5808,0.6168,0.6569,0.6735,0.7205,0.7726,0.8179,0.8603,0.8915,0.8976,0.9095,0.9275,0.9396,0.9335,0.9396,0.9761,0.9822,0.9822,0.9822,0.9822,0.9822,0.9822,0.9822,0.9822,0.9822,0.972,0.9659,0.9659,0.9513,0.9248,0.8869,0.8755,0.8734,0.8868,0.873,0.8448,0.8149,0.8313,0.8182,0.6689,0.8231,0.9503,0.9837,0.9951,1.0079,1.0717,1.0585,1.0286,0.9893,0.9588,0.9247,0.8909,0.8068,0.7625,0.8507,0.8144,0.8318,0.9828,1.1126,1.2077,1.2452,1.3415,1.4157,0.0,1.4858,1.5364,0.0,0.0,1.7189,1.748,1.7993,1.8277,1.8277,1.8277,1.8277,1.8277,1.8277,1.8015,1.7553,1.7182,1.6601,1.5937,1.4792,1.4178,0.0,0.0,0.0,1.1762,1.1314,1.0849,1.0256,0.9771,0.9435,0.9069,0.877,0.8332,0.7894,0.7782,0.7403,0.6936,0.6765,0.6904,0.6967,0.6457,0.6291,0.6184,0.5964,0.5856,0.5768,0.5633,0.5649,0.5678,0.5761,0.6026,0.633,0.6621,0.7025,0.7472,0.7891,0.8343,0.8674,0.8674,0.9034,0.9275,0.9275,0.9275,0.9335,0.9518,0.9579,0.9579,0.9579,0.9579,0.964,0.9761,0.9516,0.9359,0.9536,0.9467,0.9397,0.9271,0.9126,0.898,0.8779,0.8471,0.8398,0.872,0.8463,0.8247,0.8117,0.8052,0.7908,0.6133,0.7783,0.9058,0.9464,0.9435,0.9489,1.0083,0.9894,0.9446,0.9177,0.8795,0.8392,0.8138,0.6878,0.6365,0.7843,0.7847,0.8494,1.0914,1.1823,1.237,1.2726,1.3522,0.0,1.4556,0.0,0.0,0.0,0.0,1.6817,1.7042,1.7755,1.8109,1.8035,1.8109,1.8087,1.7986,1.8019,1.7733,1.7193,1.702,1.6507,1.5771,1.4894,1.4272,0.0,0.0,0.0,1.1831,1.1636,1.1095,1.0453,1.0173,0.9849,0.9513,0.9128,0.8773,0.8443,0.7969,0.7796,0.7627,0.7123,0.6855,0.6584,0.6105,0.5758,0.5622,0.5866,0.572,0.5506,0.5584,0.5555,0.5547,0.5702,0.5869,0.614,0.6579,0.6953,0.7316,0.7638,0.8084,0.8346,0.8366,0.8854,0.9217,0.9217,0.9255,0.9243,0.9185,0.9284,0.9281,0.9243,0.9227,0.9341,0.9664,0.9114,0.8847,0.9117,0.9117,0.9056,0.8858,0.8676,0.867,0.8826,0.8325,0.8202,0.8455,0.817,0.8094,0.816,0.783,0.7751,0.5098,0.6406,0.7555,0.8509,0.8765,0.8788,0.8995,0.8933,0.8907,0.9323,0.927,0.8933,0.825,0.7226,0.6436,0.6078,0.6709,0.785,0.959,1.0977,1.2043,1.252,0.0,1.3751,1.4143,0.0,0.0,0.0,0.0,1.7267,1.7162,1.7787,1.8052,1.7776,1.8052,1.7959,1.7491,1.768,1.7557,1.7193,1.6948,1.644,1.5771,1.5091,1.4469,0.0,0.0,1.2572,1.2153,1.1585,1.1251,1.1087,1.0607,1.0156,0.9703,0.9365,0.8875,0.8331,0.7699,0.7556,0.7595,0.6761,0.6614,0.6598,0.589,0.5633,0.561,0.5503,0.5456,0.5404,0.5418,0.5465,0.5514,0.5543,0.5598,0.5825,0.6485,0.6664,0.6928,0.7562,0.8014,0.8239,0.8352,0.8735,0.8976,0.8976,0.9055,0.9036,0.88,0.9114,0.9261,0.8847,0.8875,0.9029,0.9202,0.9029,0.8839,0.8775,0.8765,0.8704,0.8555,0.8255,0.8233,0.8543,0.8484,0.8375,0.8314,0.8504,0.8262,0.761,0.8004,0.8018,0.4742,0.5896,0.6894,0.7734,0.7851,0.7789,0.805,0.7839,0.7736,0.8102,0.805,0.7747,0.7209,0.6432,0.5864,0.5834,0.6656,0.792,0.9688,1.1264,1.2344,0.0,0.0,1.4243,0.0,0.0,0.0,0.0,0.0,0.0,1.7262,1.7801,1.7995,1.7795,1.7928,1.7747,1.7179,1.7281,1.7269,1.7076,1.696,1.6579,1.5863,1.524,1.4534,1.3875,0.0,1.2582,1.208,1.1708,1.1303,1.0826,1.054,0.9995,0.9286,0.8848,0.846,0.805,0.7683,0.7667,0.7659,0.6806,0.6651,0.6666,0.5804,0.549,0.5377,0.5374,0.5382,0.5382,0.5382,0.541,0.5451,0.5496,0.5504,0.5629,0.614,0.638,0.6643,0.7282,0.783,0.8156,0.816,0.8546,0.8854,0.8674,0.8618,0.859,0.8471,0.8534,0.8589,0.8357,0.8368,0.8531,0.8765,0.8299,0.8199,0.865,0.8461,0.8276,0.8211,0.81,0.8156,0.8484,0.8647,0.8636,0.8497,0.8575,0.8371,0.7907,0.7934,0.7908,0.438,0.5375,0.6145,0.6731,0.6927,0.7067,0.7278,0.7064,0.6813,0.6977,0.6869,0.6665,0.6065,0.5269,0.4905,0.5671,0.6663,0.7983,0.9819,1.1541,1.2655,1.2781,1.3793,0.0,0.0,0.0,0.0,0.0,0.0,0.0,1.7347,1.7812,1.8003,1.7937,1.7937,1.7647,1.7136,1.7071,1.6942,1.6877,1.6942,1.6618,1.5844,1.5388,1.473,1.3875,1.3246,1.2694,1.2157,1.1949,1.1431,1.0772,1.0548,0.9886,0.8928,0.8398,0.8077,0.7858,0.7771,0.778,0.7746,0.6938,0.6734,0.6659,0.5776,0.5402,0.5294,0.537,0.5382,0.5382,0.5382,0.5326,0.5342,0.5461,0.5429,0.5518,0.5893,0.6139,0.646,0.6942,0.7455,0.7853,0.7792,0.818,0.8488,0.8305,0.8231,0.8129,0.8073,0.7991,0.7962,0.7875,0.791,0.812,0.8465,0.7914,0.7915,0.8592,0.827,0.7989,0.7989,0.7937,0.81,0.8595,0.8728,0.8747,0.8762,0.8559,0.8357,0.8214,0.7845,0.7793,0.3351,0.4187,0.4793,0.5147,0.6357,0.7285,0.6996,0.6852,0.6813,0.6906,0.6918,0.651,0.5317,0.411,0.3721,0.4799,0.6223,0.7739,0.9153,0.0,1.2557,1.2681,1.337,0.0,0.0,0.0,0.0,0.0,0.0,0.0,1.7481,1.8144,1.8401,1.7997,1.7997,1.7798,1.747,1.7136,1.6812,1.6564,1.6877,1.6494,1.5528,1.5779,1.5187,1.3866,1.363,1.3161,1.2536,1.2128,1.1892,1.1637,1.1149,1.0163,0.9044,0.855,0.8189,0.7869,0.7861,0.7796,0.7608,0.7033,0.6753,0.6483,0.5814,0.5522,0.5441,0.5408,0.5382,0.5382,0.5382,0.5156,0.5043,0.5332,0.5386,0.5518,0.5893,0.6027,0.6198,0.6691,0.6796,0.6952,0.7365,0.7447,0.763,0.7872,0.7974,0.788,0.7591,0.784,0.7841,0.7393,0.7756,0.8128,0.8458,0.8452,0.8445,0.8501,0.8217,0.7989,0.7989,0.7771,0.8045,0.8868,0.8522,0.8545,0.886,0.8508,0.8208,0.8005,0.7995,0.7988,0.3205,0.4065,0.4774,0.5425,0.5965,0.6129,0.5232,0.5169,0.5266,0.5014,0.4985,0.4653,0.3492,0.2833,0.2957,0.4334,0.579,0.7415,0.9134,1.1169,1.2587,1.2822,0.0,0.0,0.0,0.0,0.0,0.0,0.0,0.0,1.777,1.8308,1.8507,1.8372,1.8372,1.8115,1.7535,1.74,1.7136,1.6818,1.6942,1.6688,1.6114,1.5844,1.5117,1.4198,1.3552,1.2952,1.2393,1.2004,1.1674,1.119,1.0191,0.9493,0.8925,0.8322,0.7994,0.7861,0.779,0.7782,0.768,0.6991,0.6791,0.6647,0.5926,0.555,0.5346,0.5429,0.5139,0.4873,0.5043,0.4987,0.4931,0.5043,0.5098,0.5164,0.5537,0.5816,0.6069,0.6323,0.6519,0.6774,0.7065,0.7266,0.7447,0.7569,0.7671,0.7633,0.7519,0.7477,0.7452,0.7273,0.7404,0.7543,0.7654,0.7823,0.7937,0.7937,0.7826,0.7826,0.7989,0.7878,0.8063,0.8522,0.874,0.875,0.8505,0.8549,0.8339,0.7988,0.7988,0.7988,0.3057,0.3983,0.4756,0.5136,0.5163,0.4888,0.3793,0.4093,0.4397,0.3778,0.3521,0.3195,0.2494,0.2005,0.2219,0.3625,0.5178,0.6865,0.8621,1.0825,1.2409,0.0,0.0,0.0,0.0,0.0,0.0,0.0,0.0,0.0,0.0,1.8501,1.8764,1.8764,1.8635,1.8314,1.7658,1.7529,1.7335,1.7001,1.6877,1.6688,1.6499,1.5904,1.5253,1.4525,1.3611,1.2919,1.2422,1.1929,1.133,1.0729,0.9673,0.9094,0.8854,0.8241,0.7994,0.7858,0.7782,0.7746,0.7609,0.6955,0.6707,0.654,0.5901,0.5518,0.5269,0.5347,0.4993,0.4655,0.4625,0.4725,0.4761,0.4761,0.4817,0.4987,0.5212,0.5562,0.5875,0.5882,0.6173,0.6513,0.6733,0.7008,0.7261,0.7407,0.7413,0.7462,0.7462,0.7282,0.721,0.7324,0.7376,0.7432,0.7432,0.7549,0.7662,0.7715,0.7662,0.7771,0.8156,0.8156,0.8313,0.8554,0.8933,0.8937,0.8575,0.8573,0.8442,0.8137,0.8038,0.7988,0.2906,0.3718,0.4427,0.4063,0.3965,0.3715,0.2943,0.3952,0.4668,0.3501,0.2956,0.269,0.2587,0.1721,0.1438,0.2665,0.4269,0.594,0.7456,1.0074,0.0,0.0,0.0,0.0,0.0,0.0,0.0,0.0,0.0,0.0,0.0,1.8688,1.9078,1.9078,1.8764,1.8437,1.8033,1.7658,1.7335,1.7001,1.6688,1.6499,1.6499,1.6169,1.5583,1.4842,1.3852,1.3174,1.2712,1.1849,1.1101,1.0418,0.9804,0.9282,0.8854,0.8552,0.8183,0.7869,0.7872,0.7689,0.7307,0.6955,0.6494,0.6042,0.5596,0.5449,0.5344,0.5089,0.4938,0.4781,0.4235,0.4312,0.448,0.448,0.4704,0.4873,0.4873,0.5219,0.5508,0.5508,0.5655,0.599,0.6483,0.6669,0.6881,0.7418,0.7358,0.728,0.7277,0.7228,0.7324,0.7551,0.7826,0.7989,0.7986,0.7771,0.7715,0.7986,0.7768,0.7878,0.8484,0.8484,0.8691,0.9194,0.8991,0.8934,0.9075,0.861,0.8382,0.8382,0.8137,0.7988,0.3374,0.386,0.426,0.4588,0.4328,0.3732,0.2971,0.3512,0.4031,0.3351,0.2895,0.2392,0.1593,0.0823,0.0685,0.1909,0.3413,0.5105,0.6998,0.0,0.0,0.0,0.0,0.0,0.0,0.0,0.0,0.0,0.0,0.0,0.0,1.8401,1.8892,1.9072,1.9014,1.8758,1.8437,1.8045,1.7653,1.7335,1.7012,1.6753,1.6504,1.5919,1.5175,1.43,1.3662,1.2975,1.2163,1.1429,1.0729,1.0111,0.9741,0.9284,0.8723,0.8517,0.8129,0.7763,0.7842,0.7689,0.7307,0.6955,0.654,0.6138,0.5689,0.5541,0.5419,0.5161,0.4994,0.4767,0.4175,0.4275,0.4424,0.4203,0.437,0.4648,0.4873,0.5219,0.5508,0.5508,0.5602,0.5734,0.5883,0.6314,0.6676,0.682,0.7125,0.7304,0.722,0.7232,0.721,0.7324,0.7376,0.7453,0.7586,0.7523,0.7594,0.7981,0.7924,0.8062,0.8475,0.8394,0.8491,0.8709,0.8567,0.8415,0.8306,0.8211,0.8237,0.8382,0.8137,0.8088,0.3852,0.4115,0.4286,0.4806,0.4214,0.3287,0.2641,0.2838,0.3224,0.3348,0.2713,0.1973,0.1129,0.0313,0.0062,0.0896,0.2535,0.4354,0.6329,0.0,0.0,0.0,0.0,0.0,0.0,0.0,0.0,0.0,0.0,0.0,0.0,1.8413,1.8886,1.9072,1.9078,1.895,1.8571,1.8173,1.7846,1.747,1.7012,1.6623,1.6299,1.5849,1.5206,1.4271,1.3429,1.2503,1.1592,1.1091,1.0547,0.9977,0.9549,0.9096,0.8659,0.8383,0.8064,0.772,0.7831,0.7659,0.7238,0.6832,0.6471,0.6124,0.5681,0.5502,0.5409,0.5159,0.4994,0.4826,0.435,0.4392,0.4369,0.3923,0.4203,0.4536,0.4704,0.5023,0.5295,0.5443,0.5582,0.5645,0.5762,0.6116,0.645,0.6524,0.6829,0.707,0.7163,0.7268,0.7324,0.721,0.7332,0.7437,0.7419,0.7475,0.7624,0.7963,0.8013,0.814,0.8473,0.8401,0.8395,0.8401,0.8467,0.8292,0.7988,0.8088,0.8187,0.8233,0.8088,0.8088,0.4265,0.4414,0.4465,0.4799,0.3765,0.2651,0.2187,0.2105,0.2354,0.329,0.248,0.1441,0.1051,0.0123,-0.0491,-0.0181,0.1603,0.3554,0.5435,0.8159,0.0,0.0,0.0,0.0,0.0,0.0,0.0,0.0,0.0,0.0,0.0,1.8658,1.9078,1.9078,1.9078,1.895,1.8571,1.8238,1.7846,0.0,1.6888,1.6434,1.6099,1.5974,1.545,1.4499,1.3159,1.1946,1.0943,1.0852,1.0451,0.9936,0.9349,0.8935,0.8631,0.8286,0.7931,0.7701,0.7815,0.7601,0.7135,0.672,0.633,0.5952,0.552,0.5382,0.5342,0.5079,0.4932,0.4834,0.4622,0.4588,0.4369,0.3811,0.4145,0.4536,0.4536,0.4761,0.5064,0.5423,0.5563,0.5679,0.5975,0.6033,0.6116,0.6365,0.661,0.6824,0.7099,0.7371,0.7476,0.7196,0.7532,0.7615,0.7379,0.7496,0.7688,0.7925,0.7919,0.8076,0.8442,0.8455,0.8404,0.8323,0.851,0.843,0.7988,0.8237,0.8237,0.8038,0.7988,0.7988,0.4218,0.4382,0.4387,0.4406,0.3352,0.2324,0.2178,0.1878,0.1845,0.2664,0.2129,0.1362,0.0741,-0.0432,-0.1105,-0.0484,0.0713,0.2448,0.475,0.0,0.0,0.0,0.0,0.0,0.0,0.0,0.0,0.0,0.0,0.0,1.7457,1.8221,1.8828,1.9072,1.9078,1.895,1.8571,1.8507,1.8308,0.0,1.7464,1.7141,1.6748,1.5979,1.4862,1.3528,1.2646,1.1752,1.0841,1.0804,1.0447,0.9792,0.9556,0.9117,0.8559,0.8488,0.8109,0.7576,0.7695,0.7477,0.7122,0.6633,0.6214,0.5952,0.552,0.5382,0.533,0.5009,0.4888,0.4821,0.4613,0.466,0.4706,0.4369,0.4592,0.4817,0.4817,0.5043,0.533,0.5404,0.5424,0.5439,0.5552,0.5719,0.5992,0.6254,0.6786,0.7046,0.6824,0.6968,0.7133,0.7021,0.7108,0.7175,0.7084,0.7232,0.7397,0.7648,0.7478,0.7579,0.8083,0.8252,0.8354,0.8323,0.82,0.8122,0.7988,0.8038,0.8187,0.8333,0.8088,0.8137,0.4203,0.4351,0.4212,0.3439,0.2717,0.2088,0.1501,0.1212,0.1186,0.1749,0.1427,0.074,-0.0062,-0.1048,-0.1722,-0.1709,-0.0298,0.1459,0.3435,0.0,0.0,0.0,0.0,0.0,0.0,0.0,0.0,0.0,0.0,1.6976,1.7219,1.829,1.895,1.9072,1.9078,1.9014,1.8822,1.8699,1.8507,1.8302,1.7723,1.7141,1.6483,1.5307,1.4198,1.3277,1.2407,1.1579,1.0789,1.0789,1.0425,0.9738,0.9407,0.8922,0.8509,0.8348,0.7941,0.7456,0.7638,0.7504,0.7153,0.6572,0.6277,0.6064,0.5564,0.5382,0.5382,0.5212,0.5156,0.5098,0.4987,0.5012,0.4981,0.4871,0.4845,0.4873,0.4873,0.5043,0.5224,0.5433,0.5441,0.5455,0.55,0.5583,0.5762,0.5998,0.6393,0.6631,0.6633,0.6753,0.6921,0.698,0.7039,0.711,0.7084,0.7232,0.7407,0.7609,0.7341,0.7388,0.7793,0.7918,0.8009,0.816,0.8029,0.7988,0.7988,0.7988,0.8088,0.8187,0.8088,0.8088,0.4119,0.4183,0.3834,0.2618,0.2171,0.174,0.0708,0.0504,0.0556,0.0679,0.0556,0.0123,-0.0802,-0.1541,-0.222,-0.29,-0.1261,0.0643,0.2013,0.0,0.0,0.0,0.0,0.0,0.0,0.0,0.0,0.0,0.0,1.6971,1.7205,1.8348,1.896,1.9078,1.9078,1.9078,1.9014,1.8828,1.8635,1.8571,1.7922,1.699,1.5903,1.4672,1.3806,1.334,1.235,1.1522,1.091,1.0849,1.0365,0.967,0.9085,0.8684,0.8384,0.8072,0.7709,0.7309,0.7568,0.7505,0.7217,0.6574,0.6341,0.6163,0.5605,0.5369,0.5359,0.5359,0.5347,0.5335,0.5335,0.5277,0.5166,0.5166,0.5068,0.4964,0.4964,0.4975,0.5064,0.5415,0.5486,0.551,0.5586,0.5522,0.5606,0.5753,0.5987,0.6253,0.6487,0.6661,0.685,0.6972,0.7085,0.7106,0.7083,0.7194,0.7337,0.7453,0.7191,0.7188,0.7494,0.7543,0.7643,0.7942,0.7992,0.7988,0.7988,0.7988,0.7988,0.7988,0.7988,0.7992,0.3857,0.3609,0.322,0.2785,0.1959,0.1093,0.0635,0.05,0.037,-0.0185,-0.0123,-0.0123,-0.0863,-0.1541,-0.222,-0.29,-0.1561,-0.0059,0.0,0.0,0.0,0.0,0.0,0.0,0.0,0.0,0.0,0.0,1.5692,1.6786,1.7275,1.7958,1.8578,1.9066,1.9078,1.895,1.8699,1.8886,1.8892,1.8571,1.8173,1.7156,1.575,1.5041,1.4365,1.3716,1.2891,1.2057,1.1212,1.091,1.0243,0.931,0.9029,0.8567,0.8026,0.7913,0.7575,0.7282,0.7317,0.7304,0.7207,0.6547,0.6286,0.6163,0.5605,0.5326,0.5209,0.5209,0.5206,0.5145,0.5145,0.5135,0.5126,0.5126,0.5142,0.5152,0.5152,0.5269,0.5328,0.5396,0.5398,0.5402,0.5414,0.5558,0.5654,0.5641,0.6039,0.6379,0.6475,0.6661,0.685,0.6972,0.6928,0.681,0.6703,0.6678,0.6771,0.6901,0.6639,0.6736,0.7238,0.7238,0.7391,0.7646,0.7892,0.7988,0.7988,0.7988,0.7988,0.7988,0.7988,0.7892,0.4015,0.3786,0.3353,0.258,0.189,0.1157,0.038,0.0062,-0.0062,-0.0185,-0.0556,-0.0987,-0.148,-0.1898,-0.2435,-0.3106,-0.2134,-0.0925,0.0,0.0,0.0,0.0,0.0,0.0,0.0,0.0,0.0,0.0,1.5458,1.6425,1.6841,1.7706,1.8407,1.8855,1.9,1.9014,1.8886,1.9014,1.8744,1.8094,1.7559,1.668,1.5448,1.4911,1.4128,1.3215,1.2673,1.1819,1.0838,1.0718,1.0239,0.9433,0.8968,0.851,0.816,0.7866,0.7573,0.7244,0.7312,0.729,0.7169,0.6677,0.6439,0.6207,0.5704,0.5385,0.518,0.5128,0.5139,0.5108,0.5108,0.5071,0.5032,0.5032,0.5061,0.5106,0.5157,0.5279,0.5382,0.5382,0.5382,0.5365,0.5314,0.5422,0.5522,0.5412,0.5856,0.6219,0.6268,0.6607,0.6823,0.6877,0.6834,0.6752,0.663,0.6619,0.6672,0.6803,0.6539,0.6637,0.7188,0.7188,0.7341,0.7596,0.7842,0.7988,0.7988,0.7988,0.7988,0.7988,0.7842,0.7693,0.4253,0.3969,0.3417,0.2436,0.182,0.122,0.0252,-0.025,-0.0434,-0.0185,-0.0805,-0.1488,-0.1913,-0.2192,-0.2591,-0.3315,-0.264,0.0,0.0,0.0,0.0,0.0,0.0,0.0,0.0,0.0,0.0,0.0,1.509,1.5947,1.6376,1.7399,1.8164,1.8554,1.8939,1.9078,1.9078,1.9012,1.8526,1.7577,1.714,1.6331,1.5211,1.4744,1.3829,1.2643,1.2436,1.163,1.055,1.0598,1.0118,0.935,0.88,0.842,0.8133,0.7751,0.7455,0.7224,0.7258,0.723,0.7154,0.6715,0.642,0.6162,0.57,0.5372,0.5161,0.5092,0.5057,0.5039,0.5091,0.5093,0.5041,0.5041,0.506,0.5108,0.5118,0.5269,0.5382,0.5382,0.5363,0.5324,0.52,0.5282,0.529,0.5274,0.575,0.6084,0.6164,0.658,0.685,0.685,0.682,0.6752,0.663,0.6592,0.6585,0.6698,0.6489,0.6587,0.6986,0.7138,0.7288,0.7494,0.7743,0.7942,0.7988,0.7988,0.7988,0.7988,0.7746,0.7547,0.4308,0.3768,0.3074,0.234,0.1678,0.096,0.0187,-0.025,-0.0503,-0.0495,-0.075,-0.1256,-0.1855,-0.2192,-0.2591,-0.3315,-0.2761,0.0,0.0,0.0,0.0,0.0,0.0,0.0,0.0,0.0,0.0,0.0,1.4529,1.5405,1.5996,1.687,1.7615,1.8223,1.8806,1.9078,1.9078,1.8831,1.8259,1.7325,1.7308,1.6496,1.4988,1.4816,1.377,1.2254,1.2561,1.1972,1.079,1.0667,0.9936,0.8916,0.8479,0.8136,0.7774,0.7374,0.7215,0.7213,0.7218,0.7215,0.7099,0.6495,0.6205,0.6013,0.5408,0.5122,0.4986,0.5031,0.4916,0.4851,0.5105,0.5201,0.5199,0.5199,0.5269,0.5337,0.52,0.5312,0.5382,0.5382,0.531,0.5194,0.519,0.5175,0.5175,0.5437,0.5806,0.6105,0.6421,0.6758,0.6975,0.6975,0.6872,0.6752,0.663,0.6462,0.6392,0.6437,0.6387,0.6437,0.6437,0.6936,0.7188,0.7238,0.7494,0.7743,0.7988,0.7988,0.7988,0.7988,0.7746,0.7444,0.4374,0.3943,0.3303,0.2398,0.1601,0.0823,0.0186,-0.025,-0.0503,-0.0495,-0.0937,-0.1382,-0.1609,-0.2054,-0.2561,-0.3311,0.0,0.0,0.0,0.0,0.0,0.0,0.0,0.0,0.0,0.0,0.0,0.0,0.0,1.5266,1.5704,1.6703,1.7713,1.8544,1.8749,1.874,1.8571,1.83,1.7808,1.7045,1.6886,1.6046,1.4761,1.4533,1.3621,1.221,1.2115,1.1392,1.0269,1.0039,0.9627,0.905,0.8795,0.8401,0.7885,0.7782,0.7487,0.721,0.721,0.721,0.7141,0.6628,0.6307,0.598,0.5479,0.5287,0.5218,0.4951,0.5061,0.5286,0.524,0.5338,0.5388,0.524,0.5163,0.5147,0.5055,0.5143,0.5206,0.5206,0.5179,0.5157,0.5157,0.5177,0.5196,0.5304,0.5571,0.5852,0.5995,0.6373,0.6571,0.65,0.661,0.6635,0.6462,0.6411,0.6387,0.6387,0.6387,0.6487,0.6642,0.6842,0.7039,0.7188,0.7288,0.754,0.7988,0.7637,0.759,0.7746,0.7294,0.7042,0.4549,0.4114,0.3475,0.2574,0.1716,0.1006,0.031,-0.0062,-0.0377,-0.0495,-0.1062,-0.1507,-0.1671,-0.2113,-0.2674,-0.3107,0.0,0.0,0.0,0.0,0.0,0.0,0.0,0.0,0.0,0.0,0.0,0.0,0.0,0.0,1.5568,1.6697,1.7775,1.8723,1.8747,1.8544,1.8155,1.7968,1.7529,1.6777,1.6617,1.579,1.4469,1.4189,1.3332,1.2052,1.1585,1.0811,0.9932,0.9694,0.9345,0.8957,0.8693,0.8325,0.7878,0.7768,0.7487,0.721,0.721,0.721,0.7135,0.6689,0.6411,0.608,0.5541,0.5415,0.5373,0.5054,0.5236,0.5536,0.5388,0.5388,0.5438,0.5338,0.5137,0.4924,0.4924,0.5022,0.5055,0.5,0.5055,0.5045,0.4964,0.5085,0.5134,0.5157,0.5444,0.5679,0.5679,0.61,0.6333,0.6225,0.6416,0.657,0.6395,0.6387,0.6387,0.6387,0.6387,0.6487,0.6642,0.6742,0.6892,0.7039,0.7089,0.7288,0.7739,0.7388,0.7288,0.7444,0.6995,0.6742,0.0,0.0,0.0,0.2796,0.2081,0.1319,0.0681,0.025,-0.0063,-0.0434,-0.0999,-0.1632,-0.1916,-0.2496,-0.2877,-0.2832,0.0,0.0,0.0,0.0,0.0,0.0,0.0,0.0,0.0,0.0,0.0,0.0,1.3307,1.4611,1.5469,1.6653,1.7777,1.8656,1.8711,1.8435,1.7865,1.7865,1.7434,1.6537,1.6473,1.5691,1.4301,1.3792,1.2951,1.1858,1.1049,1.0363,0.9772,0.9644,0.9167,0.8484,0.8156,0.7826,0.7551,0.7324,0.721,0.721,0.721,0.7207,0.713,0.6629,0.646,0.6243,0.562,0.5516,0.5536,0.529,0.5388,0.5586,0.5586,0.5388,0.529,0.5536,0.5186,0.4784,0.4784,0.4975,0.4992,0.4778,0.4939,0.4968,0.4681,0.489,0.5075,0.4988,0.5309,0.5576,0.5576,0.6049,0.6322,0.6169,0.6411,0.6514,0.6395,0.6387,0.6387,0.6387,0.6387,0.6387,0.6387,0.6642,0.6795,0.6795,0.6795,0.6892,0.7188,0.7188,0.7188,0.7188,0.6892,0.6639,0.5664,0.0,0.0,0.0,0.0,0.0,0.0989,0.0625,0.0252,-0.0062,-0.0874,-0.1565,-0.1891,-0.2661,-0.3238,-0.3187,0.0,0.0,0.0,0.0,0.0,0.0,0.0,0.0,0.0,0.0,0.0,0.0,1.2583,1.4298,1.4943,1.6962,1.8088,1.8094,1.8336,1.8224,1.7593,1.7363,1.715,1.6838,1.6004,1.53,1.465,1.351,1.2585,1.1858,1.1049,1.0363,0.9765,0.9532,0.9078,0.8484,0.8374,0.8045,0.7607,0.7493,0.7379,0.721,0.721,0.7155,0.6959,0.6353,0.619,0.6135,0.5463,0.5562,0.5839,0.5586,0.5689,0.5839,0.5636,0.5388,0.524,0.529,0.5037,0.4784,0.4784,0.4825,0.4859,0.4808,0.4808,0.4873,0.4864,0.4942,0.5022,0.5063,0.5139,0.5164,0.5164,0.5364,0.5514,0.5487,0.5732,0.5919,0.6092,0.5937,0.5984,0.6387,0.6239,0.6189,0.6387,0.6487,0.6489,0.6489,0.6489,0.6537,0.6637,0.6637,0.6739,0.6892,0.6639,0.6443,0.6266,0.5642,0.5034,0.3879,0.0,0.0,0.1728,0.1181,0.0562,0.0124,-0.0556,-0.1232,-0.1816,-0.2519,-0.3041,-0.3093,0.0,0.0,0.0,0.0,0.0,0.0,0.0,0.0,0.0,0.563,0.7655,0.914,1.161,1.3791,1.5596,1.7336,1.8234,1.8046,1.82,1.8009,1.7485,1.7315,1.7026,1.6687,1.5887,1.5076,1.4313,1.325,1.2423,1.174,1.1122,1.0472,0.9816,0.9651,0.9151,0.8484,0.8484,0.8211,0.7771,0.7662,0.7459,0.7246,0.7139,0.7008,0.6834,0.6398,0.6212,0.6141,0.5675,0.5689,0.5789,0.5636,0.5639,0.5691,0.5739,0.5388,0.5037,0.519,0.4987,0.4784,0.4784,0.4784,0.4784,0.4636,0.4766,0.4847,0.4761,0.4895,0.4977,0.4992,0.4949,0.4914,0.4914,0.5071,0.519,0.519,0.5438,0.5687,0.5839,0.5687,0.5734,0.6034,0.6039,0.6092,0.6239,0.6337,0.6387,0.6387,0.6387,0.6387,0.6387,0.6387,0.6487,0.6639,0.6487,0.6401,0.6832,0.6037,0.5515,0.4638,0.3822,0.0,0.259,0.179,0.0988,0.0247,-0.0244,-0.0786,-0.169,-0.2149,-0.2552,0.0,0.0,0.0,0.0,0.0,0.0,0.0,0.0,0.0,0.2471,0.4438,0.6439,0.8474,1.073,1.341,1.6608,1.7579,1.8136,1.8203,1.8042,1.7772,1.7443,1.7384,1.6961,1.6189,1.5753,1.4939,1.3699,1.3003,1.228,1.1568,1.1185,1.0582,0.9816,0.9816,0.9261,0.8484,0.8484,0.8309,0.7965,0.7695,0.7503,0.7339,0.7072,0.6883,0.6763,0.6603,0.6408,0.6174,0.6022,0.5839,0.5687,0.5636,0.5438,0.534,0.5792,0.5338,0.4834,0.509,0.4987,0.4784,0.4784,0.4784,0.4736,0.4487,0.4751,0.4881,0.45,0.4751,0.4928,0.4796,0.4784,0.4784,0.4784,0.4987,0.514,0.514,0.5388,0.5536,0.5536,0.5536,0.5536,0.5636,0.5839,0.5992,0.6042,0.6287,0.6387,0.6387,0.6387,0.6387,0.6387,0.6387,0.6387,0.6387,0.6387,0.6429,0.8054,0.7003,0.5996,0.5054,0.4436,0.0,0.2775,0.2344,0.1912,0.0988,0.0123,-0.0734,-0.1391,-0.2066,-0.267,0.0,0.0,0.0,0.0,0.0,0.0,0.0,0.0,0.0,0.2229,0.3699,0.5416,0.7522,1.1015,1.402,1.6121,1.687,1.7351,1.7642,1.7598,1.7441,1.7171,1.6709,1.6408,1.6259,1.4818,1.4065,1.3971,1.2523,1.1768,1.1568,1.1021,1.0417,0.9816,0.9816,0.9261,0.8484,0.8484,0.8249,0.7825,0.7557,0.7367,0.7202,0.6942,0.6757,0.66,0.6372,0.6302,0.6319,0.605,0.6139,0.6187,0.5989,0.5739,0.5486,0.5391,0.5087,0.4834,0.4885,0.4834,0.4784,0.4784,0.4784,0.4784,0.4736,0.48,0.4804,0.4738,0.48,0.4804,0.4788,0.4784,0.4784,0.4784,0.4834,0.4885,0.4885,0.4935,0.5035,0.524,0.5087,0.5236,0.5889,0.5789,0.5887,0.6287,0.6387,0.6387,0.6387,0.6387,0.6387,0.6387,0.6387,0.6387,0.6387,0.6387,0.6484,0.8645,0.7593,0.6709,0.5849,0.5297,0.0,0.0,0.3083,0.2524,0.1651,0.0793,0.0,-0.0769,0.0,-0.1914,0.0,0.0,0.0,0.0,0.0,0.0,0.0,0.0,0.0,0.1685,0.2576,0.4416,0.7814,1.1016,1.3713,1.5687,1.6367,1.6851,1.7197,1.712,1.6988,1.6851,1.6561,1.6197,1.5651,1.4634,1.3854,1.3197,1.2215,1.1623,1.1345,1.1021,1.0472,0.9809,0.9727,0.9254,0.86,0.86,0.8448,0.8211,0.7663,0.7449,0.7284,0.6868,0.663,0.6478,0.6326,0.6239,0.6189,0.6189,0.6189,0.6126,0.5827,0.5563,0.5302,0.5154,0.4933,0.4771,0.4771,0.4754,0.4784,0.4784,0.4784,0.4784,0.4784,0.4784,0.4784,0.4784,0.4686,0.4636,0.4784,0.4784,0.4784,0.4784,0.4784,0.4784,0.4784,0.4784,0.4834,0.4987,0.4885,0.4985,0.5388,0.5536,0.5734,0.5984,0.6237,0.6387,0.6387,0.6387,0.6487,0.6589,0.6589,0.6589,0.6589,0.6589,0.6705,0.9106,0.8192,0.751,0.7037,0.623,0.5419,0.0,0.0,0.0,0.2119,0.0,0.0,0.0,0.0,0.0,0.0,0.0,0.0,0.0,0.0,0.0,0.0,0.0,0.0,0.0,0.16,0.375,0.8232,1.0565,1.2763,1.5003,1.5936,1.6485,1.6834,1.6687,1.6534,1.6424,1.6467,1.5923,1.4839,1.4504,1.3696,1.2382,1.206,1.1601,1.1076,1.0967,1.0514,0.9712,0.9574,0.9201,0.8665,0.8665,0.8648,0.8558,0.7858,0.7522,0.7355,0.6791,0.6468,0.6387,0.6387,0.6239,0.6139,0.6337,0.6239,0.6016,0.5664,0.5389,0.5169,0.502,0.4831,0.4708,0.4708,0.4724,0.4736,0.4784,0.4734,0.4736,0.4784,0.4734,0.4736,0.4784,0.4636,0.4537,0.4686,0.4784,0.4784,0.4736,0.4784,0.4784,0.4784,0.4784,0.4784,0.4784,0.4784,0.4834,0.4885,0.5286,0.5586,0.5687,0.6087,0.6337,0.6387,0.6387,0.6537,0.6892,0.6892,0.6892,0.6892,0.6892,0.7042,1.0009,0.8979,0.8381,0.8732,0.7508,0.6217,0.5963,0.0,0.3807,0.2239,0.0,0.0,0.0,0.0,0.0,0.0,0.0,0.0,0.0,0.0,0.0,0.0,0.0,0.0,0.0,0.0,0.3978,0.7712,0.9287,1.1174,1.3758,1.5336,1.6239,1.6518,1.6594,1.6389,1.588,1.5689,1.5102,1.4261,1.3725,1.3064,1.2382,1.1896,1.1368,1.0894,1.0626,1.0056,0.9331,0.9365,0.9039,0.8509,0.8509,0.8431,0.8268,0.7734,0.7382,0.716,0.6606,0.6398,0.6387,0.6387,0.6387,0.6337,0.6387,0.6387,0.6263,0.5953,0.5679,0.5366,0.5068,0.4831,0.4708,0.4708,0.4577,0.4487,0.4734,0.4638,0.4537,0.4734,0.4587,0.4537,0.4734,0.4784,0.4686,0.4487,0.4636,0.4736,0.4487,0.4636,0.4784,0.4784,0.4784,0.4784,0.4784,0.4784,0.4887,0.514,0.519,0.5441,0.5942,0.5992,0.6139,0.6387,0.6387,0.6637,0.7138,0.7138,0.7138,0.7138,0.7138,0.7291,1.1802,1.1371,1.0732,0.9476,0.8868,0.8111,0.6339,0.5409,0.4481,0.0,0.0,0.0,0.0,0.0,0.0,0.0,-0.1358,0.0,0.0,0.0,0.0,0.0,0.0,0.0,0.0,0.0,0.0,0.0,0.0,1.0049,1.2946,1.439,1.5377,1.5957,1.5866,1.5722,1.5507,1.528,1.476,1.3905,1.3478,1.2763,1.1729,1.1352,1.093,1.0489,1.0331,0.9918,0.9268,0.9224,0.8873,0.835,0.8262,0.8245,0.8207,0.756,0.7287,0.7138,0.6587,0.6387,0.6387,0.6387,0.6387,0.6387,0.6387,0.6289,0.6116,0.576,0.5441,0.5129,0.4748,0.4567,0.4563,0.4618,0.4503,0.4379,0.4526,0.4487,0.4438,0.4537,0.4487,0.4438,0.4537,0.4587,0.4585,0.4636,0.4736,0.4734,0.4636,0.4736,0.4784,0.4784,0.4784,0.4784,0.4784,0.4784,0.4834,0.4937,0.509,0.5489,0.6189,0.6239,0.6437,0.6836,0.6886,0.7039,0.7444,0.7444,0.749,0.7637,0.749,0.7494,1.346,0.0,0.0,0.0,0.0,0.0,0.0,0.0,0.0,0.0,0.0,0.0,0.0,0.0,0.0928,0.023,0.0,-0.1798,0.0,0.0,0.0,0.0,0.0,0.0,0.0,0.0,0.0,0.0,0.0,0.0,1.1619,1.3141,1.4314,1.518,1.5191,1.5168,1.5168,1.4904,1.439,1.3591,1.3207,1.2445,1.1291,1.1025,1.0623,1.0139,1.0139,0.9749,0.9131,0.906,0.8708,0.8197,0.8032,0.8109,0.8143,0.7528,0.7238,0.7138,0.6689,0.6437,0.6387,0.6387,0.6387,0.6387,0.6387,0.6287,0.6019,0.5615,0.5314,0.5018,0.4505,0.4388,0.4413,0.4551,0.4448,0.4337,0.437,0.4338,0.4288,0.4288,0.4288,0.4288,0.4288,0.4338,0.4437,0.4583,0.4684,0.4784,0.4686,0.4734,0.4784,0.4784,0.4784,0.4784,0.4784,0.4784,0.4885,0.5035,0.5288,0.5689,0.6387,0.6487,0.6739,0.7188,0.7188,0.7391,0.7693,0.7693,0.7793,0.7988,0.7793,0.7693,0.0,0.0,0.0,1.2909,0.0,0.0,0.0,0.0,0.6145,0.0,0.0,0.0,0.0,0.2156,0.1468,0.0516,-0.0699,0.0,0.0,0.0,0.0,0.0,0.0,0.0,0.0,0.0,0.0,0.0,0.0,0.0,0.9255,1.1559,1.3191,1.4212,1.4604,1.4823,1.4885,1.4461,1.3905,1.3315,1.2713,1.2008,1.1291,1.1025,1.0552,0.9892,0.9892,0.9493,0.884,0.8832,0.8489,0.7995,0.7992,0.7992,0.7998,0.7696,0.7444,0.7138,0.6892,0.6639,0.6387,0.6387,0.6387,0.6387,0.6387,0.6387,0.6263,0.5664,0.5461,0.5258,0.4551,0.4388,0.4413,0.4551,0.4448,0.4337,0.437,0.4185,0.4033,0.4033,0.4033,0.4033,0.4033,0.4236,0.4338,0.4083,0.4483,0.4686,0.4438,0.4636,0.4784,0.4784,0.4784,0.4784,0.4784,0.4784,0.5035,0.5536,0.5839,0.6089,0.6387,0.6642,0.6942,0.7188,0.7188,0.7437,0.7988,0.7988,0.7988,0.7988,0.7988,0.7988,0.0,0.0,1.601,1.4216,0.0,0.0,0.0,0.0,0.0,0.0,0.0,0.0,0.0,0.296,0.2415,0.1241,0.0354,-0.0535,0.0,0.0,0.0,0.0,0.0,0.0,0.0,0.0,0.0,0.0,0.3036,0.0,0.0,1.0505,1.2112,1.3294,1.3721,1.402,1.409,1.3621,1.3072,1.2549,1.1961,1.1309,1.0638,1.0381,1.0043,0.9713,0.9518,0.918,0.8775,0.8627,0.8333,0.7988,0.7988,0.7988,0.7992,0.7696,0.7543,0.7394,0.6945,0.6639,0.6387,0.6387,0.6387,0.6387,0.6387,0.6287,0.6032,0.5695,0.5363,0.5034,0.4626,0.4436,0.4383,0.4536,0.4403,0.422,0.4157,0.4083,0.3932,0.3784,0.3736,0.3736,0.3736,0.3786,0.3937,0.4237,0.4437,0.4587,0.4636,0.4734,0.4784,0.4784,0.4784,0.4784,0.4784,0.4987,0.5288,0.5839,0.5942,0.6289,0.6886,0.7039,0.7288,0.7739,0.7739,0.7839,0.7988,0.7988,0.7988,0.7988,0.7793,0.7746,1.7787,1.7723,0.0,1.5233,1.4664,0.0,1.1709,0.0,0.9428,0.0,0.0,0.0,0.0,0.4402,0.3441,0.2263,0.1245,0.0178,0.0,-0.1968,0.0,0.0,0.0,-0.3331,0.0,0.0,0.0,0.0308,0.18,0.0,0.0,0.0,1.0868,1.2131,1.2864,1.3336,1.3527,1.2874,1.2391,1.2014,1.1434,1.0862,1.0285,1.0036,0.9791,0.9579,0.9331,0.9031,0.8775,0.8528,0.8237,0.7988,0.7988,0.7988,0.7992,0.7793,0.7696,0.7547,0.6995,0.6692,0.6539,0.6437,0.6387,0.6387,0.6387,0.6287,0.6089,0.5687,0.5415,0.5088,0.4722,0.4461,0.4385,0.4536,0.4381,0.4186,0.415,0.3984,0.3784,0.3635,0.3534,0.3433,0.3433,0.3433,0.3635,0.4185,0.4338,0.4489,0.4784,0.4784,0.4784,0.4784,0.4885,0.4985,0.5085,0.5236,0.5589,0.6089,0.6139,0.6439,0.7185,0.7188,0.7388,0.769,0.7793,0.7842,0.7842,0.7842,0.7842,0.7842,0.7645,0.7519]}]]